[[{"header":{"parameterUnit":"m.s-1","parameterCategory":1,"la1":30.6,"la2":29.2853,"lo1":-89.7004,"lo2":-87.6739,"dy":0.0162,"dx":0.0183,"nx":112,"ny":82,"refTime":"2023-08-23T06:00:00:Z","depth":0,"parameterNumber":2,"parameterNumberName":"U-component_of_WINDS"},"data":[0.0,0.0,0.0,0.0,0.0,0.0,0.0,0.0,0.0,0.0,0.0,0.0,0.0,0.0,0.0,0.0,0.0,0.0,0.0,0.0,0.0,0.0,0.0,0.0,0.0,0.0,0.0,0.0,0.0,0.0,0.0,0.0,0.0,0.0,0.0,0.0,0.0,0.0,0.0,0.0,0.0,0.0,0.0,0.0,0.0,0.0,0.0,0.0,0.0,0.0,0.0,0.0,0.0,0.0,0.0,0.0,0.0,0.0,0.0,0.0,0.0,0.0,0.0,0.0,0.0,0.0,0.0,0.0,0.0,0.0,0.0,0.0,0.0,0.0,0.0,0.0,0.0,0.0,0.0,0.0,0.0,0.0,0.0,0.0,0.0,0.0,0.0,0.0,0.0,0.0,0.0,-1.5832,-1.5832,-1.5838,-1.6048,-1.6055,-1.7102,-1.9317,0.0,0.0,0.0,0.0,0.0,0.0,0.0,0.0,0.0,0.0,0.0,0.0,0.0,0.0,0.0,0.0,0.0,0.0,0.0,0.0,0.0,0.0,0.0,0.0,0.0,0.0,0.0,0.0,0.0,0.0,0.0,0.0,0.0,0.0,0.0,0.0,0.0,0.0,0.0,0.0,0.0,0.0,0.0,0.0,0.0,0.0,0.0,0.0,0.0,0.0,0.0,0.0,0.0,0.0,0.0,0.0,0.0,0.0,0.0,0.0,0.0,0.0,0.0,0.0,0.0,0.0,0.0,0.0,0.0,0.0,0.0,0.0,0.0,0.0,0.0,0.0,0.0,0.0,0.0,0.0,0.0,0.0,0.0,0.0,0.0,0.0,0.0,0.0,0.0,0.0,0.0,0.0,0.0,0.0,0.0,0.0,0.0,0.0,0.0,0.0,0.0,0.0,0.0,0.0,-1.5832,-1.5832,-1.5832,-1.6259,-1.7348,-1.7458,-1.8044,-1.9446,0.0,0.0,0.0,0.0,0.0,0.0,0.0,0.0,0.0,0.0,0.0,0.0,0.0,0.0,0.0,0.0,0.0,0.0,0.0,0.0,0.0,0.0,0.0,0.0,0.0,0.0,0.0,0.0,0.0,0.0,0.0,0.0,0.0,0.0,0.0,0.0,0.0,0.0,0.0,0.0,0.0,0.0,0.0,0.0,0.0,0.0,0.0,0.0,0.0,0.0,0.0,0.0,0.0,0.0,0.0,0.0,0.0,0.0,0.0,0.0,0.0,0.0,0.0,0.0,0.0,0.0,0.0,0.0,0.0,0.0,0.0,0.0,0.0,0.0,0.0,0.0,0.0,0.0,0.0,0.0,0.0,0.0,0.0,0.0,0.0,0.0,0.0,0.0,0.0,0.0,0.0,0.0,0.0,0.0,0.0,0.0,0.0,0.0,0.0,0.0,0.0,0.0,0.0,-1.5832,-1.5832,-1.5832,-1.5832,-1.6048,-1.6592,-1.6686,-1.7477,-1.9401,-1.9462,0.0,0.0,0.0,0.0,0.0,0.0,0.0,0.0,0.0,0.0,0.0,0.0,0.0,0.0,0.0,0.0,0.0,0.0,0.0,0.0,0.0,0.0,0.0,0.0,0.0,0.0,0.0,0.0,0.0,0.0,0.0,0.0,0.0,0.0,0.0,0.0,0.0,0.0,0.0,0.0,0.0,0.0,0.0,0.0,0.0,0.0,0.0,0.0,0.0,0.0,0.0,0.0,0.0,0.0,0.0,0.0,0.0,0.0,0.0,0.0,0.0,0.0,0.0,0.0,0.0,0.0,0.0,0.0,0.0,0.0,0.0,0.0,0.0,0.0,0.0,0.0,0.0,0.0,0.0,0.0,0.0,0.0,0.0,0.0,0.0,0.0,0.0,0.0,0.0,0.0,0.0,0.0,0.0,0.0,0.0,0.0,0.0,0.0,0.0,0.0,0.0,0.0,-1.5832,-1.5832,-1.5832,-1.5832,-1.6048,-1.6592,-1.6711,-1.7733,-2.0201,-2.0332,0.0,0.0,0.0,0.0,0.0,0.0,0.0,0.0,0.0,0.0,0.0,0.0,0.0,0.0,0.0,0.0,0.0,0.0,0.0,0.0,0.0,0.0,0.0,0.0,0.0,0.0,0.0,0.0,0.0,0.0,0.0,0.0,0.0,0.0,0.0,0.0,0.0,0.0,0.0,0.0,0.0,0.0,0.0,0.0,0.0,0.0,0.0,0.0,0.0,0.0,0.0,0.0,0.0,0.0,0.0,0.0,0.0,0.0,0.0,0.0,0.0,0.0,0.0,0.0,0.0,0.0,0.0,0.0,0.0,0.0,0.0,0.0,0.0,0.0,0.0,0.0,0.0,0.0,0.0,0.0,0.0,0.0,0.0,0.0,0.0,0.0,0.0,0.0,0.0,0.0,0.0,0.0,0.0,0.0,0.0,0.0,0.0,0.0,0.0,0.0,0.0,0.0,-1.5832,-1.5832,-1.5832,-1.5832,-1.67,-1.9028,-1.9194,-2.0297,-2.2674,-2.2818,0.0,0.0,0.0,0.0,0.0,0.0,0.0,0.0,0.0,0.0,0.0,0.0,0.0,0.0,0.0,0.0,0.0,0.0,0.0,0.0,0.0,0.0,0.0,0.0,0.0,0.0,0.0,0.0,0.0,0.0,0.0,0.0,0.0,0.0,0.0,0.0,0.0,0.0,0.0,0.0,0.0,0.0,0.0,0.0,0.0,0.0,0.0,0.0,0.0,0.0,0.0,0.0,0.0,0.0,0.0,0.0,0.0,0.0,0.0,0.0,0.0,0.0,0.0,0.0,0.0,0.0,0.0,0.0,0.0,0.0,0.0,0.0,0.0,0.0,0.0,0.0,0.0,0.0,0.0,0.0,0.0,0.0,0.0,0.0,0.0,0.0,0.0,0.0,0.0,0.0,0.0,0.0,0.0,0.0,0.0,0.0,0.0,0.0,0.0,0.0,0.0,0.0,-1.5832,-1.5832,0.0,-1.5832,-1.6157,-1.713,-1.7911,-1.9101,-2.0766,0.0,0.0,0.0,0.0,0.0,0.0,0.0,0.0,0.0,0.0,0.0,0.0,0.0,0.0,0.0,0.0,0.0,0.0,0.0,0.0,0.0,0.0,0.0,0.0,0.0,0.0,0.0,0.0,0.0,0.0,0.0,0.0,0.0,0.0,0.0,0.0,0.0,0.0,0.0,0.0,0.0,0.0,0.0,0.0,0.0,0.0,0.0,0.0,0.0,0.0,0.0,0.0,0.0,0.0,0.0,0.0,0.0,0.0,0.0,0.0,0.0,0.0,0.0,0.0,0.0,0.0,0.0,0.0,0.0,0.0,0.0,0.0,0.0,0.0,0.0,0.0,0.0,0.0,0.0,0.0,0.0,0.0,0.0,0.0,0.0,0.0,0.0,0.0,0.0,0.0,0.0,0.0,0.0,0.0,0.0,0.0,0.0,0.0,0.0,0.0,0.0,0.0,-1.5832,-1.5832,-1.5832,0.0,-1.6157,-1.6585,-1.6918,-1.8112,-1.9346,-2.0544,0.0,0.0,0.0,0.0,0.0,0.0,0.0,0.0,0.0,0.0,0.0,0.0,0.0,0.0,0.0,0.0,0.0,0.0,0.0,0.0,0.0,0.0,0.0,0.0,0.0,0.0,0.0,0.0,0.0,0.0,0.0,0.0,0.0,0.0,0.0,0.0,0.0,0.0,0.0,0.0,0.0,0.0,0.0,0.0,0.0,0.0,0.0,0.0,0.0,0.0,0.0,0.0,0.0,0.0,0.0,0.0,0.0,0.0,0.0,0.0,0.0,0.0,0.0,0.0,0.0,0.0,0.0,0.0,0.0,0.0,0.0,0.0,0.0,0.0,0.0,0.0,0.0,0.0,0.0,0.0,0.0,0.0,0.0,0.0,0.0,0.0,0.0,0.0,0.0,0.0,0.0,0.0,0.0,0.0,0.0,0.0,0.0,0.0,0.0,0.0,0.0,0.0,-1.5832,-1.5832,-1.5832,-1.5832,-1.6918,-1.8233,-1.936,-2.0637,-2.178,0.0,0.0,0.0,0.0,0.0,0.0,0.0,0.0,0.0,0.0,0.0,0.0,0.0,0.0,0.0,0.0,0.0,0.0,0.0,0.0,0.0,0.0,0.0,0.0,0.0,0.0,0.0,0.0,0.0,0.0,0.0,0.0,0.0,0.0,0.0,0.0,0.0,0.0,0.0,0.0,0.0,0.0,0.0,0.0,0.0,0.0,0.0,0.0,0.0,0.0,0.0,0.0,0.0,0.0,0.0,0.0,0.0,0.0,0.0,0.0,0.0,0.0,0.0,0.0,0.0,0.0,0.0,0.0,0.0,0.0,0.0,0.0,0.0,0.0,0.0,0.0,0.0,0.0,0.0,0.0,0.0,0.0,0.0,0.0,0.0,0.0,0.0,0.0,0.0,0.0,0.0,0.0,0.0,0.0,0.0,0.0,0.0,0.0,0.0,0.0,0.0,0.0,0.0,-1.594,-1.6585,-1.7137,-1.7137,-1.824,-1.9082,-1.9454,-2.0625,-2.1434,-2.178,0.0,0.0,0.0,0.0,0.0,0.0,0.0,0.0,0.0,0.0,0.0,0.0,0.0,0.0,0.0,0.0,0.0,0.0,0.0,0.0,0.0,0.0,0.0,0.0,0.0,0.0,0.0,0.0,0.0,0.0,0.0,0.0,0.0,0.0,0.0,0.0,0.0,0.0,0.0,0.0,0.0,0.0,0.0,0.0,0.0,0.0,0.0,0.0,0.0,0.0,0.0,0.0,0.0,0.0,0.0,0.0,0.0,0.0,0.0,0.0,0.0,0.0,0.0,0.0,0.0,0.0,0.0,0.0,0.0,0.0,0.0,0.0,0.0,0.0,0.0,0.0,0.0,0.0,0.0,0.0,0.0,0.0,0.0,0.0,0.0,0.0,0.0,0.0,0.0,0.0,0.0,0.0,0.0,0.0,0.0,0.0,0.0,0.0,0.0,0.0,0.0,0.0,-1.6592,-1.6802,-1.6892,-1.6955,-1.8441,-1.9505,-1.9511,-2.1089,-2.2001,-2.2001,0.0,0.0,0.0,0.0,0.0,0.0,0.0,0.0,0.0,0.0,0.0,0.0,0.0,0.0,0.0,0.0,0.0,0.0,0.0,0.0,0.0,0.0,0.0,0.0,0.0,0.0,0.0,0.0,0.0,0.0,0.0,0.0,0.0,0.0,0.0,0.0,0.0,0.0,0.0,0.0,0.0,0.0,0.0,0.0,0.0,0.0,0.0,0.0,0.0,0.0,0.0,0.0,0.0,0.0,0.0,0.0,0.0,0.0,0.0,0.0,0.0,0.0,0.0,0.0,0.0,0.0,0.0,0.0,0.0,0.0,0.0,0.0,0.0,0.0,0.0,0.0,0.0,0.0,0.0,0.0,0.0,0.0,0.0,0.0,0.0,0.0,0.0,0.0,0.0,0.0,0.0,0.0,0.0,0.0,0.0,0.0,0.0,0.0,0.0,0.0,0.0,0.0,-1.7567,-1.67,-1.6058,-1.6154,-1.8241,-1.972,-1.9791,-2.1876,-2.3135,-2.3135,0.0,0.0,0.0,0.0,0.0,0.0,0.0,0.0,0.0,0.0,0.0,0.0,0.0,0.0,0.0,0.0,0.0,0.0,0.0,0.0,0.0,0.0,0.0,0.0,0.0,0.0,0.0,0.0,0.0,0.0,0.0,0.0,0.0,0.0,0.0,0.0,0.0,0.0,0.0,0.0,0.0,0.0,0.0,0.0,0.0,0.0,0.0,0.0,0.0,0.0,0.0,0.0,0.0,0.0,0.0,0.0,0.0,0.0,0.0,0.0,-0.6406,0.0,0.0,0.0,0.0,0.0,0.0,0.0,0.0,0.0,0.0,0.0,0.0,0.0,0.0,0.0,0.0,0.0,0.0,0.0,0.0,0.0,0.0,0.0,0.0,0.0,0.0,0.0,0.0,0.0,0.0,0.0,0.0,0.0,0.0,0.0,0.0,0.0,0.0,0.0,0.0,0.0,-1.7625,-1.7465,-1.7688,-1.8624,-2.0,-2.1275,-2.2271,-2.2804,-2.3135,-2.3135,-2.3299,0.0,0.0,0.0,0.0,0.0,0.0,0.0,0.0,0.0,0.0,0.0,0.0,0.0,0.0,0.0,0.0,0.0,0.0,0.0,0.0,0.0,0.0,0.0,0.0,0.0,0.0,0.0,0.0,0.0,0.0,0.0,0.0,0.0,0.0,0.0,0.0,0.0,0.0,0.0,0.0,0.0,0.0,0.0,0.0,0.0,0.0,0.0,0.0,0.0,0.0,0.0,0.0,0.0,0.0,0.0,0.0,0.0,0.0,0.0,0.0,-0.6303,0.0,0.0,0.0,0.0,0.0,0.0,0.0,0.0,0.0,0.0,0.0,0.0,0.0,0.0,0.0,0.0,0.0,0.0,0.0,0.0,0.0,0.0,0.0,0.0,0.0,0.0,0.0,0.0,0.0,0.0,0.0,0.0,0.0,0.0,0.0,0.0,0.0,0.0,0.0,0.0,-1.9244,-1.838,-1.8186,-1.9336,-2.0585,-2.1527,-2.2164,-2.2795,-2.3135,-2.3135,-2.3637,0.0,0.0,0.0,0.0,0.0,0.0,0.0,0.0,0.0,0.0,0.0,0.0,0.0,0.0,0.0,0.0,0.0,0.0,0.0,0.0,0.0,0.0,0.0,0.0,0.0,0.0,0.0,0.0,0.0,0.0,0.0,0.0,0.0,0.0,0.0,0.0,0.0,0.0,0.0,0.0,0.0,0.0,0.0,0.0,0.0,0.0,0.0,0.0,0.0,0.0,0.0,0.0,0.0,-0.0,-0.0,-0.0186,-0.5509,-0.7995,-0.791,-0.5647,-0.5818,-0.7604,0.0,0.0,0.0,0.0,0.0,0.0,0.0,0.0,0.0,0.0,0.0,0.0,0.0,0.0,0.0,0.0,0.0,0.0,0.0,0.0,0.0,0.0,0.0,0.0,0.0,-1.5832,-1.5832,0.0,0.0,0.0,0.0,0.0,0.0,0.0,0.0,0.0,0.0,0.0,0.0,-2.0395,-1.8948,-1.8187,-1.9393,-2.0624,-2.1382,-2.1586,-2.2562,-2.3135,-2.3135,-2.3963,-2.4049,0.0,0.0,0.0,0.0,0.0,0.0,0.0,0.0,0.0,0.0,0.0,0.0,0.0,0.0,0.0,0.0,0.0,0.0,0.0,0.0,0.0,0.0,0.0,0.0,0.0,0.0,0.0,0.0,0.0,0.0,0.0,0.0,-0.6641,-0.6641,0.0,0.0,0.0,0.0,0.0,0.0,0.0,0.0,0.0,0.0,0.0,0.0,0.0,-0.5133,-0.0988,-0.0274,-0.0,-0.0,-0.0,-0.0,-0.019,-0.5543,-0.8044,-0.7955,-0.7611,0.0,-0.7712,-0.7604,0.0,0.0,0.0,0.0,0.0,0.0,0.0,0.0,0.0,0.0,0.0,0.0,0.0,0.0,0.0,0.0,0.0,0.0,0.0,0.0,0.0,0.0,-1.6015,-1.5825,-1.5832,-1.5832,0.0,-1.5832,-1.5832,-1.5832,-1.6857,0.0,0.0,0.0,0.0,0.0,0.0,0.0,-1.8141,-1.787,-1.8149,-1.9338,-2.0593,-2.1747,-2.2726,-2.3028,-2.3135,-2.3135,-2.3222,-2.3222,-2.3144,-2.4382,0.0,0.0,0.0,0.0,0.0,0.0,0.0,0.0,0.0,0.0,0.0,0.0,0.0,0.0,0.0,0.0,0.0,0.0,0.0,0.0,0.0,0.0,0.0,0.0,0.0,0.0,0.0,0.0,0.0,-0.6658,-0.6702,-0.6702,-0.6702,-0.6732,0.0,0.0,0.0,0.0,0.0,0.0,0.0,0.0,0.0,-0.3145,-0.3087,-0.21,-0.0,-0.0,-0.0,-0.0,-0.0,-0.155,-0.456,-0.5391,-0.6533,-0.7991,-0.7967,-0.7919,-0.7855,-0.7848,-0.8229,-0.8995,0.0,0.0,0.0,0.0,-1.4551,-1.5832,-1.5832,-1.5832,0.0,-1.7318,0.0,0.0,0.0,0.0,0.0,0.0,0.0,0.0,0.0,0.0,0.0,-1.5832,-1.5832,-1.5832,-1.5832,-1.5832,-1.5832,0.0,-1.6857,-1.7963,-1.8588,0.0,0.0,0.0,0.0,0.0,-2.0593,-2.0133,-2.0223,-2.1409,-2.2041,-2.2501,-2.3047,-2.3135,-2.3135,-2.3135,-2.3135,-2.3135,-2.3135,-2.4211,-2.4542,0.0,0.0,0.0,0.0,0.0,0.0,0.0,0.0,0.0,0.0,0.0,0.0,0.0,0.0,0.0,0.0,0.0,0.0,0.0,0.0,0.0,0.0,0.0,0.0,0.0,0.0,0.0,0.0,-0.679,-0.6814,-0.6814,-0.6817,-0.6868,0.0,0.0,0.0,0.0,0.0,0.0,-0.522,-0.5248,-0.3622,-0.0091,-0.0,-0.0,-0.0,-0.0,-0.0,-0.0,-0.1371,-0.4155,-0.796,-0.5909,-0.6137,-0.7972,-0.8048,-0.8038,-0.8038,-0.8038,-0.8627,-0.9509,-0.9899,-1.1356,-1.3392,-1.3776,-1.4752,-1.5832,-1.5832,-1.5832,-1.592,-1.6943,0.0,-1.8048,-1.9852,0.0,0.0,0.0,0.0,-1.7591,-1.7318,-1.648,-1.5832,-1.5832,-1.5832,-1.5832,-1.5832,-1.5832,-1.5832,0.0,-1.6574,-1.7677,-1.9222,0.0,0.0,0.0,0.0,-2.0042,-2.1498,-2.148,-2.1658,-2.258,-2.295,-2.3135,-2.3135,-2.3135,-2.3135,-2.3135,-2.3135,-2.3135,-2.3135,-2.3877,-2.4382,-2.4382,0.0,0.0,0.0,0.0,0.0,0.0,0.0,0.0,0.0,0.0,0.0,0.0,0.0,0.0,0.0,0.0,0.0,0.0,0.0,0.0,0.0,0.0,0.0,0.0,0.0,0.0,0.0,0.0,0.0,-0.7115,-0.7051,0.0,0.0,0.0,0.0,-0.7131,-0.6952,-0.5039,-0.0629,-0.0366,-0.0277,-0.0,-0.0,-0.0,-0.0,-0.0,-0.0,-0.0098,-0.5205,-0.7704,-0.8012,-0.7882,-0.7869,-0.7972,-0.8048,-0.8038,-0.8038,-0.8038,-0.8038,-0.8233,-0.9509,-1.0779,-1.2139,-1.3392,-1.4752,-1.5832,-1.5832,-1.5832,-1.5832,-1.5825,-1.6669,-1.7692,-1.787,-1.868,0.0,0.0,-1.7785,-1.7412,-1.6204,-1.5825,-1.5832,-1.5832,-1.5832,-1.5832,-1.5832,-1.5832,-1.5832,0.0,-1.5825,-1.6655,-1.9031,0.0,-1.8234,-1.9497,-1.9579,-1.9131,-1.8141,-1.9943,-2.1293,-2.1382,-2.2403,-2.3135,-2.3135,-2.3135,-2.3135,-2.3135,-2.3135,-2.3135,-2.3135,-2.3135,-2.3222,-2.3222,-2.4296,0.0,0.0,0.0,0.0,0.0,0.0,0.0,0.0,0.0,0.0,0.0,0.0,0.0,0.0,0.0,0.0,0.0,0.0,0.0,0.0,0.0,0.0,0.0,0.0,0.0,0.0,0.0,0.0,-0.7139,-0.7058,0.0,0.0,-0.5722,-0.4832,-0.4837,-0.3448,-0.183,-0.0092,-0.0,-0.0,-0.0,-0.0,-0.0,-0.0,-0.3467,-0.5107,-0.5107,-0.5329,-0.6356,-0.7992,-0.7979,-0.7965,-0.7952,-0.8041,-0.8531,-0.9316,-0.9316,-0.9316,-0.941,-1.0681,-1.2042,-1.3199,-1.368,-1.4752,-1.5832,-1.5832,-1.5832,-1.5832,-1.5832,-1.6669,-1.7598,-1.6763,-1.7311,-1.8048,-1.685,-1.648,-1.6386,-1.592,-1.5832,-1.5832,-1.5832,-1.5832,-1.5832,-1.5832,-1.648,-1.6763,-1.592,-1.5832,-1.6835,-2.0116,-1.9039,-1.8596,-2.1409,-2.1123,-2.0755,-2.1132,-2.1952,-2.2492,-2.2492,-2.2862,-2.3135,-2.3135,-2.3135,-2.3135,-2.3135,-2.3135,-2.3135,-2.3135,-2.3135,-2.3135,-2.3135,-2.3464,-2.4467,0.0,0.0,0.0,0.0,0.0,0.0,0.0,0.0,0.0,0.0,0.0,0.0,0.0,0.0,0.0,0.0,0.0,0.0,0.0,0.0,0.0,0.0,0.0,0.0,0.0,0.0,-0.7577,-0.7139,-0.7058,-0.7064,-0.7064,-0.576,-0.4608,-0.3789,-0.1382,-0.0,-0.0,-0.0,-0.0866,-0.2599,-0.2747,-0.2278,-0.1384,-0.4914,-0.7086,-0.8012,-0.6247,-0.6239,-0.7972,-0.7965,-0.7952,-0.8038,-0.8038,-0.8528,-0.941,-1.0288,-1.0681,-1.0779,-1.2042,-1.3102,-1.3974,-1.4364,-1.5045,-1.5832,-1.5832,-1.5832,-1.5832,-1.5832,-1.6386,-1.6943,-1.6015,-1.6386,-1.685,-1.6015,-1.5832,-1.5832,-1.5832,-1.6109,-1.6292,-1.592,-1.6109,-1.648,-1.648,-1.7131,-1.7677,-1.7662,-1.7296,-1.784,-2.0296,-1.9405,-1.9231,-2.2041,-2.1845,-2.1569,-2.2403,-2.2862,-2.3135,-2.3135,-2.3135,-2.3135,-2.3135,-2.3135,-2.3135,-2.3135,-2.3135,-2.3135,-2.3135,-2.3135,-2.3299,-2.3637,-2.3637,-2.4382,-2.588,0.0,0.0,0.0,0.0,0.0,0.0,0.0,0.0,0.0,0.0,0.0,0.0,0.0,0.0,0.0,0.0,0.0,0.0,0.0,0.0,0.0,0.0,0.0,-0.9061,-0.889,-0.8456,-0.7234,-0.7078,-0.7094,-0.7098,-0.7427,-0.6673,-0.4334,-0.1692,-0.019,-0.0095,-0.0194,-0.2553,-0.7707,-0.7949,-0.6776,-0.4117,-0.4117,-0.5432,-0.7992,-0.7979,-0.7972,-0.7972,-0.8048,-0.8038,-0.8038,-0.8038,-0.8038,-0.8333,-1.0872,-1.195,-1.2139,-1.3494,-1.3968,-1.407,-1.5337,-1.5832,-1.5832,-1.5832,-1.5832,-1.5832,-1.5832,-1.5832,-1.5832,-1.5832,-1.5832,-1.5832,-1.5832,-1.5832,-1.5832,-1.5825,-1.6763,-1.7318,-1.6197,-1.685,-1.7684,-1.7785,-1.7785,-1.8503,-2.0845,-2.0395,-1.9588,-1.9588,-1.9579,-1.9943,-2.1203,-2.1391,0.0,-2.1391,-2.2403,-2.3135,-2.3135,-2.3135,-2.3135,-2.3135,-2.3135,-2.3135,-2.3135,-2.3135,-2.3135,-2.3135,-2.3135,-2.3637,-2.4702,-2.4787,-2.4787,-2.4787,0.0,0.0,0.0,0.0,0.0,0.0,0.0,0.0,0.0,0.0,0.0,0.0,0.0,0.0,0.0,0.0,0.0,0.0,0.0,0.0,0.0,0.0,-1.1406,-0.917,-0.889,-0.85,-0.7476,-0.7316,-0.7363,-0.7472,-0.7436,-0.7276,-0.6698,-0.6165,-0.4966,-0.3007,-0.4761,-0.5615,-0.5094,-0.6954,-0.7685,-0.6862,-0.6853,-0.726,-0.7979,-0.7959,-0.8048,-0.8048,-0.8041,-0.8038,-0.8038,-0.9019,-0.9998,-1.097,-1.2619,-1.3878,-1.4758,-1.5146,-1.5242,-1.5343,-1.5635,-1.5832,-1.5832,-1.5832,-1.5832,-1.5832,-1.5832,-1.5832,-1.5832,-1.5832,-1.5832,-1.5832,-1.5832,-1.5832,-1.6015,-1.6943,-1.6763,-1.6662,-1.8126,-1.8041,-1.7963,-1.8864,-1.967,-2.0215,-2.0034,-2.1132,-2.2138,-2.2138,-2.1391,-2.1212,-2.2403,-2.2589,0.0,-2.2589,-2.2862,-2.3135,-2.3135,-2.3135,-2.3135,-2.3135,-2.3135,-2.3135,-2.3135,-2.3135,-2.3135,-2.3135,-2.3135,-2.3222,-2.3551,-2.4382,-2.4787,0.0,0.0,0.0,0.0,0.0,0.0,0.0,0.0,0.0,0.0,0.0,0.0,0.0,0.0,0.0,0.0,0.0,0.0,0.0,0.0,0.0,0.0,-1.4153,-1.3016,-1.1003,-1.0276,-0.9341,-0.7639,-0.7465,-0.7502,-0.759,-0.7563,-0.76,-0.7699,-0.7872,-0.6958,-0.4747,-0.6728,-0.7281,-0.5732,-0.7163,-0.7979,-0.7969,-0.7962,-0.7959,-0.7959,-0.8045,-0.8038,-0.8041,-0.8627,-0.8825,0.0,-1.0194,-1.1268,-1.2042,-1.3397,-1.4364,0.0,0.0,0.0,0.0,0.0,-1.5832,-1.5832,-1.5832,-1.5832,-1.5832,-1.5832,-1.5832,-1.5832,-1.5832,-1.6197,-1.6574,-1.6574,-1.6574,-1.685,-1.8133,-1.794,-1.7755,-1.9131,-1.9314,-1.9405,-2.0124,-2.0845,-2.1203,-2.1033,-2.2129,0.0,-2.3135,-2.2492,-2.2306,-2.296,-2.3135,-2.3135,-2.3135,-2.3135,-2.3135,-2.3135,-2.3135,-2.3135,-2.3135,-2.3135,0.0,0.0,0.0,-2.3135,-2.3135,-2.3551,0.0,0.0,0.0,-2.4542,-2.4125,0.0,0.0,0.0,-2.4221,-2.3877,0.0,0.0,0.0,0.0,0.0,0.0,0.0,0.0,0.0,0.0,0.0,0.0,0.0,0.0,0.0,0.0,-1.5017,-1.465,-1.3483,-1.2281,-1.07,-0.837,-0.7904,-0.7816,-0.7834,-0.7859,-0.7838,-0.7838,-0.7885,-0.7353,-0.5824,0.0,0.0,0.0,0.0,-0.7959,-0.8038,-0.8038,-0.8038,-0.8233,-0.8038,-0.8137,-0.8432,-0.9509,-1.0096,-1.0288,-1.1556,-1.2139,-1.2237,-1.359,-1.407,-1.4262,-1.5343,-1.5832,-1.5832,-1.5832,-1.5832,-1.5832,-1.5832,0.0,0.0,-1.5832,-1.5832,-1.5832,-1.5832,-1.6574,-1.7505,-1.7505,-1.7598,-1.7963,-1.9222,-1.9497,-1.9588,-1.9861,-2.0576,-2.1382,-2.1471,-2.148,-2.1845,-2.2862,-2.3135,-2.3135,-2.3135,-2.3135,-2.3135,-2.3135,-2.3135,-2.3135,-2.3135,-2.3135,-2.3135,-2.3135,0.0,0.0,-2.3135,-2.3135,-2.3135,-2.3135,-2.3135,-2.3135,-2.3135,-2.4039,-2.4125,-2.3135,-2.4125,-2.4135,-2.3135,-2.3135,-2.3135,-2.3135,-2.4125,-2.4049,0.0,0.0,0.0,0.0,0.0,0.0,0.0,0.0,0.0,0.0,0.0,0.0,0.0,0.0,0.0,-1.5629,-1.5311,-1.4922,-1.3892,-1.3535,-1.2791,-1.1094,-1.0039,-0.944,-0.949,-0.8565,-0.7994,-0.7994,-0.7945,-0.7862,-0.7534,-0.7859,0.0,-0.8045,-0.8045,-0.8045,-0.8038,-0.8038,-0.8528,-0.9608,0.0,0.0,-1.1165,-1.0391,-1.0583,-1.1658,-1.2909,-1.3488,-1.359,-1.4854,-1.5439,-1.5439,-1.573,-1.5832,-1.5832,-1.5832,-1.5832,-1.5832,-1.5832,-1.5832,-1.5832,-1.5832,-1.5832,-1.5832,-1.5832,-1.6015,0.0,-1.6204,-1.6943,-1.7963,-1.9222,-1.9497,-1.9951,-2.1952,-2.1854,-2.1569,-2.258,-2.2765,-2.2862,-2.3047,-2.3135,-2.3135,-2.3135,-2.3135,-2.3135,-2.3135,-2.3135,-2.3135,-2.3135,-2.3135,-2.3135,-2.3135,-2.3135,-2.3135,-2.3135,-2.3135,-2.3135,-2.3135,-2.3135,-2.3135,-2.3135,-2.3299,-2.3299,-2.3135,-2.3299,-2.3299,-2.3135,-2.3135,-2.3135,-2.3144,-2.3299,-2.3299,0.0,0.0,0.0,0.0,0.0,0.0,0.0,0.0,0.0,0.0,0.0,-2.1485,0.0,0.0,-1.9365,-1.7667,-1.6977,-1.6392,-1.5859,-1.5222,-1.4124,-1.2076,-1.0725,-0.9892,-0.9989,-0.8825,-0.8038,-0.8038,-0.8048,-0.7952,-0.8038,-0.8048,-0.7952,-0.8038,-0.8038,-0.8333,-0.9019,-0.9019,-0.9702,-1.0974,-1.0288,-1.0681,-1.1945,-1.194,-1.2328,-1.3006,-1.4268,-1.4854,-1.4854,-1.5534,-1.5832,-1.5832,-1.5832,-1.5832,-1.5832,-1.5832,-1.5832,-1.5832,-1.5832,-1.5832,-1.5832,-1.5832,-1.5832,-1.5832,-1.5832,-1.6292,-1.685,-1.7483,-1.8126,-1.9047,-2.0863,-2.0854,-2.0854,-2.2677,-2.2677,-2.2403,-2.296,-2.3135,-2.3135,-2.3135,-2.3135,-2.3135,-2.3135,-2.332,-2.3389,-2.3174,-2.3135,-2.3135,-2.3135,-2.3135,-2.3135,-2.3135,-2.3135,-2.3135,-2.3135,-2.3135,-2.3135,-2.3135,-2.3135,-2.3135,-2.3135,-2.3135,-2.3135,-2.3135,-2.3135,-2.3135,-2.3135,-2.3135,-2.3135,-2.3135,-2.3135,-2.3135,0.0,0.0,0.0,0.0,0.0,0.0,0.0,0.0,-2.4449,-2.395,-2.3866,-2.3283,-2.1585,-2.1293,-2.0935,-1.967,-1.8503,-1.7692,-1.7692,-1.6574,-1.5051,-1.2915,-1.1556,-1.0774,-1.0774,-0.9505,-0.8726,-0.8726,-0.8726,-0.8726,-0.8726,-0.8531,-0.8528,-0.8726,-0.8531,-0.9019,-1.0391,-1.0386,-1.0974,-1.2334,-1.2042,-1.2139,-1.2721,-1.3494,-1.407,-1.4364,-1.5343,-1.5832,-1.5832,-1.5832,-1.5832,-1.5832,-1.5832,-1.5832,-1.5832,-1.5832,-1.5832,-1.5832,-1.5832,-1.5832,-1.5832,-1.5832,-1.5832,-1.5825,-1.6109,-1.685,-1.7956,-1.9131,-1.9679,-2.0305,-2.2217,-2.2217,-2.1845,-2.2862,-2.3135,-2.3135,-2.3135,-2.3135,-2.3164,-2.3252,-2.3262,-2.3291,-2.3369,-2.3682,-2.376,-2.333,-2.3262,-2.3262,-2.3262,-2.3193,-2.3135,-2.3135,-2.3135,-2.3135,-2.3135,-2.3135,-2.3135,-2.3135,-2.3135,-2.3135,-2.3135,-2.3135,-2.3135,-2.3135,-2.3135,-2.3135,-2.3135,-2.3135,-2.3135,-2.3135,-2.3135,-2.3135,-2.5964,-2.7706,0.0,-2.8176,-2.7163,-2.6135,0.0,0.0,-2.3258,-2.3231,-2.324,-2.2795,-2.156,-2.1293,-2.0935,-1.967,-1.8503,-1.7692,-1.7692,-1.6574,-1.573,-1.5439,-1.4268,-1.3488,-1.3488,-1.2231,-1.1458,-1.1458,-1.1458,-1.1458,-1.1458,-1.0386,-1.0288,-1.1458,-1.0386,-1.0386,-1.1653,-1.1658,-1.2334,-1.368,-1.2431,-1.3113,-1.5343,-1.4364,-1.4561,-1.5629,-1.573,-1.5832,-1.5832,-1.5832,-1.5832,-1.5832,-1.5832,-1.5832,-1.5832,-1.5832,-1.5832,-1.5832,-1.5832,-1.5832,-1.5832,-1.5832,-1.5832,-1.6015,-1.7131,-1.7598,-1.7956,-1.9131,-2.0305,-2.1203,-2.1382,-2.2217,-2.295,-2.3047,-2.3135,-2.3135,-2.3135,-2.3135,-2.3252,-2.3643,-2.3721,-2.3838,-2.4209,-2.4316,-2.4199,-2.3779,-2.3721,-2.3721,-2.3721,-2.3379,-2.3135,-2.3135,-2.3135,-2.3135,-2.3135,-2.3135,-2.3135,-2.3135,-2.3135,-2.3135,-2.3135,-2.3135,-2.3135,-2.3135,-2.3135,-2.3135,-2.3135,-2.3135,-2.3135,-2.3135,-2.3135,-2.3135,-2.6389,0.0,0.0,0.0,-2.8279,-2.7959,-2.6213,-2.5389,-2.4723,-2.3387,-2.3135,-2.296,-2.2403,-2.2306,-2.2217,0.0,-2.0584,-1.9761,-1.9761,-1.8764,-1.7669,-1.7037,-1.6459,-1.5494,-1.4064,-1.2716,-1.1945,-1.1945,-1.1945,-1.1945,-1.1945,-1.1361,-1.1361,-1.1848,-1.1365,-1.175,-1.3006,-1.3102,-1.3686,-1.5045,-1.4465,-1.4758,-1.5825,-1.5242,-1.5337,-1.5832,-1.5832,-1.5832,-1.5832,-1.5832,-1.5832,-1.5845,-1.6019,-1.6086,-1.6066,-1.5892,-1.5832,-1.5832,-1.5832,-1.5832,-1.5832,-1.5832,-1.5832,-1.592,-1.6386,-1.7131,-1.7956,-1.9131,-2.0395,-2.148,-2.2129,-2.2677,-2.3135,-2.3135,-2.3135,-2.3213,-2.3467,-2.3516,-2.3643,-2.4072,-2.415,-2.4209,-2.4385,-2.4629,-2.4736,-2.456,-2.4316,-2.4062,-2.3828,-2.3633,-2.3418,-2.3164,-2.3135,-2.3135,-2.3135,-2.3135,-2.3135,-2.3135,-2.3135,-2.3135,-2.3135,-2.3135,-2.3135,-2.3135,-2.3135,-2.3135,-2.3135,-2.3135,-2.3135,-2.3135,-2.3135,-2.3135,-2.7302,0.0,0.0,-2.8767,-2.8937,-2.8949,-2.729,-2.6719,-2.5975,-2.3973,-2.3551,-2.3464,-2.3135,-2.3135,-2.3135,-2.3135,-2.212,-2.1293,-2.1293,-2.0305,-1.9039,-1.787,-1.7956,-1.7382,-1.5203,-1.3776,-1.3017,-1.3017,-1.3017,-1.3017,-1.3017,-1.2624,-1.2624,-1.2915,-1.2624,-1.3108,-1.4364,-1.4459,-1.4854,-1.5832,-1.5832,-1.5832,-1.5832,-1.5832,-1.5832,-1.5832,-1.5832,-1.5879,-1.5952,-1.632,-1.6279,-1.6092,-1.669,-1.6967,-1.694,-1.6718,-1.6354,-1.6072,-1.6072,-1.6072,-1.6072,-1.6072,-1.6258,-1.6628,-1.7003,-1.804,-1.9346,-2.0531,-2.1445,-2.2367,-2.321,-2.3496,-2.3496,-2.3496,-2.3496,-2.3574,-2.3896,-2.3965,-2.4092,-2.4512,-2.459,-2.4639,-2.4766,-2.5049,-2.5254,-2.5254,-2.499,-2.4629,-2.4199,-2.3935,-2.3623,-2.3184,-2.3135,-2.3135,-2.3135,-2.3135,-2.3135,-2.3135,-2.3135,-2.3135,-2.3135,-2.3135,-2.3135,-2.3135,-2.3135,-2.3135,-2.3135,-2.3135,-2.3135,-2.3135,-2.3135,-2.3135,-2.9365,0.0,-2.9792,-2.9792,-2.8937,-2.8096,-2.8096,-2.729,-2.6141,-2.4957,-2.4787,-2.4372,-2.3299,-2.3135,-2.3135,-2.3135,-2.212,-2.1293,-2.1293,-2.0305,-1.9039,-1.787,-1.8772,-1.8956,0.0,-1.6473,-1.5635,-1.5635,-1.5635,-1.5635,-1.5635,-1.4555,-1.4364,-1.5635,-1.4459,-1.4459,-1.573,-1.573,-1.573,-1.5832,-1.5832,-1.5832,-1.5832,-1.5832,-1.5832,-1.5832,-1.5832,-1.5992,-1.6357,-1.7676,-1.7573,-1.6773,-1.8149,-1.8633,-1.8633,-1.8626,-1.7747,-1.668,-1.668,-1.668,-1.668,-1.668,-1.7556,-1.8814,-2.0055,-2.1406,-2.2662,-2.3894,-2.4283,-2.4283,-2.4375,-2.4375,-2.4375,-2.4375,-2.4375,-2.4385,-2.4394,-2.4394,-2.4521,-2.4961,-2.5049,-2.5185,-2.5625,-2.5713,-2.5713,-2.5713,-2.5703,-2.5537,-2.5088,-2.4297,-2.3623,-2.3184,-2.3135,-2.3135,-2.3135,-2.3135,-2.3135,-2.3135,-2.3135,-2.3135,-2.3135,-2.3135,-2.3135,-2.3135,-2.3135,-2.3135,-2.3135,-2.3135,-2.3135,-2.3135,-2.3135,-2.3135,-2.8767,0.0,-2.9624,-2.8858,-2.8937,-2.9028,-2.8255,-2.7844,-2.7279,-2.613,-2.5975,-2.5808,-2.5389,-2.4713,-2.4211,-2.4211,-2.326,-2.2492,-2.2492,-2.2129,-2.14,-2.0215,-2.0486,0.0,0.0,0.0,0.0,-1.7037,-1.6292,-1.5832,-1.5832,-1.5439,-1.5343,-1.5825,-1.5343,-1.5337,-1.5832,-1.5832,-1.5832,-1.5832,-1.6669,-1.7037,-1.7037,-1.7037,-1.7609,-1.8636,-1.7808,-1.8177,-1.9341,-1.9726,-1.979,-1.9431,-2.0149,-2.0335,-2.0367,-2.06,-2.0387,-1.9923,-1.9571,-1.9408,-1.9408,-1.9408,-1.97,-2.0184,-2.057,-2.1631,-2.2699,-2.3084,-2.3746,-2.4414,-2.4414,-2.4414,-2.4414,-2.4414,-2.4414,-2.4492,-2.4785,-2.4844,-2.498,-2.543,-2.5518,-2.5557,-2.5713,-2.5742,-2.5742,-2.5742,-2.5488,-2.5137,-2.4697,-2.4141,-2.3623,-2.3184,-2.3135,-2.3135,-2.3135,-2.3135,-2.3135,-2.3135,-2.3135,-2.3135,-2.3135,-2.3135,-2.3135,-2.3135,-2.3135,-2.3135,-2.3135,-2.3135,-2.3135,-2.3135,-2.3135,-2.3135,-2.8937,-2.9275,-2.9624,-2.8858,-2.9275,-2.9624,-2.8858,-2.8688,-2.8438,-2.729,-2.7046,-2.6964,-2.6565,-2.5891,-2.5378,-2.5378,-2.4798,-2.4135,-2.38,-2.3714,-2.3086,-2.1471,-2.1658,0.0,0.0,0.0,0.0,-1.7777,-1.7304,-1.6936,-1.648,-1.648,-1.6292,-1.5825,-1.5832,-1.5832,-1.5832,-1.5832,-1.6015,-1.648,-1.7318,-1.8024,-1.859,-1.859,-1.9231,-2.0309,-1.9566,-1.9854,-2.0953,-2.1445,-2.1425,-2.1178,-2.1807,-2.2098,-2.2124,-2.2372,-2.2767,-2.2906,-2.1615,-2.1153,-2.1153,-2.1153,-2.1447,-2.1844,-2.1844,-2.2733,-2.3727,-2.3727,-2.4307,-2.4883,-2.4883,-2.4883,-2.4883,-2.4883,-2.4883,-2.4961,-2.5244,-2.5303,-2.5391,-2.5684,-2.5742,-2.5742,-2.5742,-2.5742,-2.5742,-2.5742,-2.5488,-2.5088,-2.4492,-2.418,-2.3789,-2.3203,-2.3135,-2.3135,-2.3135,-2.3135,-2.3135,-2.3135,-2.3135,-2.3135,-2.3135,-2.3135,-2.3135,-2.3135,-2.3135,-2.3135,-2.3135,-2.3135,-2.3135,-2.3135,-2.3135,-2.3135,-2.9792,-2.9792,-2.9792,-2.9792,-2.9792,-2.9792,-2.9792,-2.9792,-2.9456,-2.8426,-2.8176,-2.7855,0.0,0.0,-2.6483,-2.6483,-2.64,-2.5975,-2.4872,-2.4702,-2.3912,0.0,0.0,0.0,0.0,0.0,0.0,-1.8048,0.0,-1.9047,-1.787,-1.7777,-1.7225,-1.592,-1.592,-1.592,-1.592,-1.592,-1.6574,-1.7692,-1.7893,-1.8699,-2.0212,-2.0229,-2.0531,-2.0979,-2.0979,-2.1092,-2.1526,-2.2832,-2.2849,-2.2055,-2.3285,-2.3791,-2.3791,-2.3791,-2.4609,-2.5323,-2.2767,-2.1853,-2.1853,-2.1853,-2.2767,-2.3791,-2.3791,-2.4707,-2.5742,-2.5742,-2.5742,-2.5742,-2.5742,-2.5742,-2.5742,-2.5742,-2.5742,-2.5742,-2.5742,-2.5742,-2.5742,-2.5742,-2.5742,-2.5742,-2.5742,-2.5742,-2.5742,-2.5742,-2.5742,-2.542,-2.4531,-2.4414,-2.4092,-2.3232,-2.3135,-2.3135,-2.3135,-2.3135,-2.3135,-2.3135,-2.3135,-2.3135,-2.3135,-2.3135,-2.3135,-2.3135,-2.3135,-2.3135,-2.3135,-2.3135,-2.3135,-2.3135,-2.3135,-2.3135,-2.9792,-2.9792,-2.9792,-2.9792,-2.9792,-2.9792,-2.9792,-2.9792,-2.9702,-2.9443,-2.9365,-2.9287,0.0,0.0,0.0,-2.6483,-2.5052,0.0,-2.3551,-2.3551,0.0,0.0,0.0,-2.2589,-2.1391,-2.212,0.0,0.0,-1.9852,-1.9405,-1.9039,-1.9039,-1.8495,-1.7225,-1.8133,-1.8126,-1.7225,-1.8126,-1.8311,-1.7692,-1.9886,-2.1081,-2.1556,-2.1839,-2.2659,-2.3918,-2.3048,-2.3372,-2.4557,-2.4965,-2.4925,-2.4707,-2.502,-2.5226,-2.5226,-2.5226,-2.543,-2.5635,-2.4913,-2.4707,-2.4707,-2.4707,-2.4913,-2.5226,-2.5226,-2.543,-2.5742,-2.5742,-2.5742,-2.5742,-2.5742,-2.5742,-2.5742,-2.5742,-2.5742,-2.5742,-2.5742,-2.5742,-2.5742,-2.5742,-2.5742,-2.5742,-2.5742,-2.5742,-2.5742,-2.5742,-2.5742,-2.542,-2.4531,-2.4414,-2.4092,-2.3232,-2.3135,-2.3135,-2.3135,-2.3135,-2.3135,-2.3135,-2.3135,-2.3135,-2.3135,-2.3135,-2.3135,-2.3135,-2.3135,-2.3135,-2.3135,-2.3135,-2.3135,-2.3135,-2.3135,-2.3135,-2.9792,-2.9792,-2.9792,-2.9792,-2.9792,-2.9792,-2.9792,-2.9792,-2.9792,-2.9792,-2.9792,0.0,0.0,0.0,0.0,0.0,0.0,0.0,-2.4638,-2.4135,-2.3627,0.0,-2.3135,0.0,-2.2129,-2.2677,-2.2862,0.0,-2.1489,-2.0854,-2.0305,-2.0305,-1.9761,-1.8503,-1.9131,-1.9131,-1.8503,-1.9377,-1.9736,-1.9576,-2.1432,-2.2657,-2.3401,-2.3636,-2.426,-2.5361,0.0,-2.4908,-2.5742,-2.5742,-2.5742,-2.5742,-2.5742,-2.5742,-2.5742,-2.5742,-2.5742,-2.5742,-2.5742,-2.5742,-2.5742,-2.5742,-2.5742,-2.5742,-2.5742,-2.5742,-2.5742,-2.5742,-2.5742,-2.5742,-2.5742,-2.5742,-2.5742,-2.5742,-2.5742,-2.5742,-2.5742,-2.5742,-2.5742,-2.5742,-2.5742,-2.5742,-2.5742,-2.5742,-2.5742,-2.5742,-2.5742,-2.542,-2.4531,-2.4414,-2.4092,-2.3232,-2.3135,-2.3135,-2.3135,-2.3135,-2.3135,-2.3135,-2.3135,-2.3135,-2.3135,-2.3135,-2.3135,-2.3135,-2.3135,-2.3135,-2.3135,-2.3135,-2.3135,-2.3135,-2.3135,-2.3135,-2.9934,-3.0011,-2.9998,-3.0152,-3.0152,-3.0152,-3.0152,-3.0075,-3.0011,-3.0011,0.0,-2.9792,-2.9792,0.0,-2.9534,-2.9378,0.0,-2.7267,-2.6224,-2.5221,-2.4211,-2.3222,-2.3135,-2.3135,-2.3135,-2.3135,-2.3135,-2.3135,-2.3135,-2.2677,-2.1569,-2.1569,-2.1025,-2.0042,-1.9852,-1.9786,-1.9845,-2.0332,-2.1093,-2.2106,-2.2692,-2.3739,-2.5068,-2.5127,-2.5371,-2.5742,0.0,0.0,-2.5742,-2.5742,-2.5742,-2.5742,-2.5742,-2.5742,-2.5742,-2.5742,-2.5742,-2.5742,-2.5742,-2.5742,-2.5742,-2.5742,-2.5742,-2.5742,-2.5742,-2.5742,-2.5742,-2.5742,-2.5742,-2.5742,-2.5742,-2.5742,-2.5742,-2.5742,-2.5742,-2.5742,-2.5742,-2.5742,-2.5742,-2.5742,-2.5742,-2.5742,-2.5742,-2.5742,-2.5742,-2.5742,-2.5742,-2.542,-2.4531,-2.4414,-2.4092,-2.3232,-2.3135,-2.3135,-2.3135,-2.3135,-2.3135,-2.3135,-2.3135,-2.3135,-2.3135,-2.3135,-2.3135,-2.3135,-2.3135,-2.3135,-2.3135,-2.3135,-2.3135,-2.3135,-2.3135,-2.3135,-3.0771,-3.097,-3.1106,-3.1901,-3.2105,-3.2105,-3.2105,-3.1536,0.0,0.0,-3.0343,-2.9792,-2.9792,-2.9028,0.0,-2.7221,0.0,0.0,0.0,0.0,-2.3299,0.0,0.0,0.0,0.0,0.0,0.0,0.0,0.0,0.0,-2.2775,-2.2775,-2.2677,-2.2501,-2.148,-2.1194,-2.1541,-2.2628,-2.2924,-2.2505,-2.3975,-2.4801,-2.5078,-2.5449,-2.5664,-2.5742,-2.5742,0.0,-2.5742,-2.5742,-2.5742,-2.5742,-2.5742,-2.5742,-2.5742,-2.5742,-2.5742,-2.5742,-2.5742,-2.5742,-2.5742,-2.5742,-2.5742,-2.5742,-2.5742,-2.5742,-2.5742,-2.5742,-2.5742,-2.5742,-2.5742,-2.5742,-2.5742,-2.5742,-2.5742,-2.5742,-2.5742,-2.5742,-2.5742,-2.5742,-2.5742,-2.5742,-2.5742,-2.5742,-2.5742,-2.5742,-2.5742,-2.542,-2.4531,-2.4414,-2.4092,-2.3232,-2.3135,-2.3135,-2.3135,-2.3135,-2.3135,-2.3135,-2.3135,-2.3135,-2.3135,-2.3135,-2.3135,-2.3135,-2.3135,-2.3135,-2.3135,-2.3135,-2.3135,-2.3135,-2.3135,-2.3135,-3.1683,-3.1609,-3.1315,-3.1742,-3.1476,-3.1267,-3.1756,0.0,0.0,0.0,-3.118,-3.0558,-3.0558,0.0,0.0,0.0,0.0,0.0,0.0,0.0,0.0,0.0,0.0,0.0,0.0,0.0,0.0,0.0,0.0,0.0,-2.3135,-2.3135,-2.3242,-2.3467,-2.2914,-2.2834,-2.3268,-2.4059,-2.4272,-2.389,-2.4909,-2.541,-2.543,-2.5635,-2.5742,-2.5742,-2.5742,0.0,-2.5742,-2.5742,-2.5742,-2.5742,-2.5742,-2.5742,-2.5742,-2.5742,-2.5742,-2.5742,-2.5742,-2.5742,-2.5742,-2.5742,-2.5742,-2.5742,-2.5742,-2.5742,-2.5742,-2.5742,-2.5742,-2.5742,-2.5742,-2.5742,-2.5742,-2.5742,-2.5742,-2.5742,-2.5742,-2.5742,-2.5742,-2.5742,-2.5742,-2.5742,-2.5742,-2.5742,-2.5742,-2.5742,-2.5742,-2.542,-2.4531,-2.4414,-2.4092,-2.3232,-2.3135,-2.3135,-2.3135,-2.3135,-2.3135,-2.3135,-2.3135,-2.3135,-2.3135,-2.3135,-2.3135,-2.3135,-2.3135,-2.3135,-2.3135,-2.3135,-2.3135,-2.3135,-2.3135,-2.3135,-3.2593,-3.2393,-3.1815,-3.2046,-3.1563,-3.122,-3.1974,-3.196,0.0,0.0,-3.215,-3.1404,-3.1523,0.0,0.0,0.0,0.0,0.0,0.0,0.0,0.0,0.0,0.0,0.0,0.0,0.0,0.0,0.0,0.0,0.0,-2.3281,-2.3281,-2.3477,-2.3906,-2.3926,-2.4131,-2.4551,-2.4893,-2.5117,-2.5215,-2.5566,-2.5742,-2.5742,-2.5742,-2.5742,-2.5742,-2.5742,0.0,0.0,-2.5742,-2.5742,-2.5742,-2.5742,-2.5742,-2.5742,-2.5742,-2.5742,-2.5742,-2.5742,-2.5742,-2.5742,-2.5742,-2.5742,-2.5742,-2.5742,-2.5742,-2.5742,-2.5742,-2.5742,-2.5742,-2.5742,-2.5742,-2.5742,-2.5742,-2.5742,-2.5742,-2.5742,-2.5742,-2.5742,-2.5742,-2.5742,-2.5742,-2.5742,-2.5742,-2.5742,-2.5742,-2.5742,-2.542,-2.4531,-2.4414,-2.4092,-2.3232,-2.3135,-2.3135,-2.3135,-2.3135,-2.3135,-2.3135,-2.3135,-2.3135,-2.3135,-2.3135,-2.3135,-2.3135,-2.3135,-2.3135,-2.3135,-2.3135,-2.3135,-2.3135,-2.3135,-2.3135,-3.338,-3.3808,-3.3959,-3.4854,-3.5001,-3.5001,-3.5082,0.0,0.0,-3.4608,-3.3276,-3.213,-3.2749,-3.1935,-3.0897,0.0,0.0,-2.8949,0.0,0.0,0.0,0.0,0.0,0.0,0.0,0.0,0.0,0.0,0.0,0.0,0.0,-2.373,-2.3926,-2.4346,-2.4355,-2.457,-2.5,-2.5049,-2.5273,-2.5674,-2.5713,-2.5742,-2.5742,-2.5742,-2.5742,-2.5742,-2.5742,0.0,0.0,-2.5742,-2.5742,-2.5742,-2.5742,-2.5742,-2.5742,-2.5742,-2.5742,-2.5742,-2.5742,-2.5742,-2.5742,-2.5742,-2.5742,-2.5742,-2.5742,-2.5742,-2.5742,-2.5742,-2.5742,-2.5742,-2.5742,-2.5742,-2.5742,-2.5742,-2.5742,-2.5742,-2.5742,-2.5742,-2.5742,-2.5742,-2.5742,-2.5742,-2.5742,-2.5742,-2.5742,-2.5742,-2.5742,-2.542,-2.4531,-2.4414,-2.4092,-2.3232,-2.3135,-2.3135,-2.3135,-2.3135,-2.3135,-2.3135,-2.3135,-2.3135,-2.3135,-2.3135,-2.3135,-2.3135,-2.3135,-2.3135,-2.3135,-2.3135,-2.3135,-2.3135,-2.3135,-2.3135,-3.4543,-3.4461,-3.4095,-3.4476,-3.4192,-3.4005,-3.4957,0.0,-3.4984,-3.6207,-3.485,-3.3525,-3.377,-3.2528,-3.1304,-3.0799,-3.0193,0.0,0.0,0.0,0.0,0.0,0.0,0.0,0.0,0.0,0.0,0.0,0.0,0.0,0.0,-2.4307,-2.4365,-2.4795,-2.4805,-2.5019,-2.5469,-2.5469,-2.5557,-2.5742,-2.5742,-2.5742,-2.5742,-2.5742,-2.5742,-2.5742,-2.5742,0.0,0.0,-2.5742,-2.5742,-2.5742,-2.5742,-2.5742,-2.5742,-2.5742,-2.5742,-2.5742,-2.5742,-2.5742,-2.5742,-2.5742,-2.5742,-2.5742,-2.5742,-2.5742,-2.5742,-2.5742,-2.5742,-2.5742,-2.5742,-2.5742,-2.5742,-2.5742,-2.5742,-2.5742,-2.5742,-2.5742,-2.5742,-2.5742,-2.5742,-2.5742,-2.5742,-2.5742,-2.5742,-2.5742,-2.5742,-2.5508,-2.4893,-2.458,-2.4189,-2.3594,-2.3291,-2.3135,-2.3135,-2.3714,-2.4125,-2.4125,-2.4125,-2.4125,-2.4125,-2.3464,-2.3135,-2.3135,-2.3135,-2.3135,-2.3135,-2.3135,-2.3135,-2.3135,-2.3135,-2.3135,-3.5213,-3.4986,-3.4461,-3.4461,-3.4103,-3.407,0.0,0.0,-3.6084,-3.7416,-3.6115,-3.4734,-3.49,-3.3264,-3.1888,-3.1888,-3.128,-3.0701,0.0,0.0,0.0,0.0,0.0,0.0,0.0,0.0,0.0,0.0,0.0,0.0,0.0,-2.4971,-2.4951,-2.5254,-2.5264,-2.542,-2.5732,-2.5742,-2.5742,-2.5742,-2.5742,-2.5742,-2.5742,-2.5742,-2.5927,-2.6294,0.0,0.0,0.0,-2.6658,-2.638,-2.5732,-2.611,-2.6294,-2.6294,-2.6294,-2.6294,-2.6294,-2.6294,-2.6014,-2.5742,-2.5742,-2.5742,-2.5742,-2.5742,-2.5742,-2.5742,-2.5742,-2.5742,-2.5742,-2.5742,-2.5742,-2.5742,-2.5742,-2.5742,-2.5742,-2.5742,-2.5742,-2.5742,-2.5742,-2.5742,-2.5742,-2.5742,-2.5742,-2.5742,-2.5742,-2.5742,-2.5576,-2.5127,-2.4687,-2.4258,-2.3838,-2.3398,-2.3135,-2.3135,-2.4125,-2.4617,-2.4296,-2.4617,-2.4628,-2.4296,-2.3551,-2.3135,-2.3135,-2.3135,-2.3299,-2.3637,-2.3299,-2.3299,-2.3551,-2.3222,-2.3135,-3.5213,-3.5504,-3.5504,-3.5504,-3.5998,-3.6477,0.0,-3.6956,-3.7584,-3.8242,-3.6716,-3.543,-3.6073,-3.4459,-3.3056,-3.3056,-3.3056,0.0,0.0,0.0,0.0,0.0,0.0,0.0,0.0,0.0,0.0,0.0,0.0,0.0,0.0,-2.5723,-2.5723,-2.5732,-2.5732,-2.5732,-2.5742,-2.5742,-2.5742,-2.5742,-2.5742,-2.5742,-2.5742,-2.5742,-2.639,0.0,0.0,0.0,0.0,-2.8855,-2.7934,-2.583,-2.7125,-2.7589,-2.7589,-2.7589,-2.7589,-2.7589,-2.7589,-2.6754,-2.5742,-2.5742,-2.5742,-2.5742,-2.5742,-2.5742,-2.5742,-2.5742,-2.5742,-2.5742,-2.5742,-2.5742,-2.5742,-2.5742,-2.5742,-2.5742,-2.5742,-2.5742,-2.5742,-2.5742,-2.5742,-2.5742,-2.5742,-2.5742,-2.5742,-2.5742,-2.5742,-2.5576,-2.5127,-2.4687,-2.4258,-2.3838,-2.3398,-2.3135,-2.3135,-2.4125,-2.4296,-2.3222,-2.4211,-2.4296,-2.3135,-2.3144,-2.3135,-2.3135,-2.3135,-2.3637,-2.4787,-2.3627,-2.3714,-2.4787,-2.3637,-2.3135,-3.5424,-3.5504,-3.5609,-3.6073,-3.6327,-3.6716,-3.7584,-3.7943,-3.8046,-3.8004,-3.6878,-3.5754,-3.5251,-3.4024,-3.3081,-3.3081,-3.3081,0.0,0.0,0.0,0.0,0.0,0.0,0.0,0.0,0.0,0.0,0.0,0.0,0.0,0.0,-2.5742,-2.5742,-2.5742,-2.5742,-2.5742,-2.5742,-2.5742,-2.5742,-2.5742,-2.5742,-2.5742,-2.5742,-2.5742,0.0,0.0,0.0,0.0,0.0,-2.9223,-2.8947,-2.8308,-2.868,-2.8866,-2.8866,-2.8866,-2.8319,-2.7589,-2.7589,-2.6754,-2.5742,-2.5742,-2.5742,-2.5742,-2.5742,-2.5742,-2.5742,-2.5742,-2.5742,-2.5742,-2.5742,-2.5742,-2.5742,-2.5742,-2.5742,-2.5742,-2.5742,-2.5742,-2.5742,-2.5742,-2.5742,-2.5742,-2.5742,-2.5742,-2.5742,-2.5742,-2.5742,-2.5684,-2.5547,-2.4873,-2.4365,-2.4228,-2.3564,-2.3135,-2.3135,-2.4893,-2.5473,-2.4296,-2.5305,-2.5473,-2.4296,-2.3551,-2.3135,-2.3135,-2.3135,-2.3299,-2.3637,-2.3309,-2.3309,-2.3637,-2.3299,-2.3135,0.0,-3.5684,-3.5968,-3.6387,-3.655,0.0,0.0,-3.7956,-3.771,-3.8295,-3.6944,-3.5588,-3.5278,-3.4108,-3.3081,-3.3081,-3.3081,0.0,0.0,0.0,0.0,0.0,0.0,0.0,0.0,0.0,0.0,0.0,0.0,0.0,0.0,0.0,-2.5742,-2.5742,-2.5742,-2.5742,-2.5742,-2.5742,-2.5742,-2.5742,-2.5742,-2.5742,-2.5742,-2.6197,0.0,0.0,0.0,0.0,0.0,-3.0598,-3.0226,-2.9407,-2.9863,-3.0045,-3.0045,-3.0045,-2.959,-2.8958,-2.8958,-2.7851,-2.639,-2.639,-2.611,-2.5742,-2.5742,-2.5742,-2.5742,-2.5742,-2.5742,-2.5742,-2.5742,-2.5742,-2.5742,-2.5742,-2.5742,-2.5742,-2.5742,-2.5742,-2.5742,-2.5742,-2.5742,-2.5742,-2.5742,-2.5742,-2.5742,-2.5742,-2.5742,-2.5742,-2.5742,-2.4961,-2.4414,-2.4414,-2.3652,-2.3299,-2.3714,-2.5473,-2.6047,-2.4872,-2.5891,-2.5975,-2.4872,-2.3714,-2.3135,-2.3135,-2.3551,-2.3973,-2.4392,-2.4392,-2.3973,-2.3135,-2.3135,-2.3135,0.0,-3.6028,0.0,0.0,0.0,0.0,-3.821,-3.7368,0.0,-3.8767,-3.6802,-3.4979,-3.5814,-3.4415,-3.3081,-3.3081,0.0,0.0,0.0,0.0,0.0,0.0,0.0,0.0,0.0,0.0,0.0,0.0,0.0,0.0,0.0,0.0,-2.5742,-2.5742,-2.5742,-2.5742,-2.5742,-2.5742,-2.5742,-2.5742,-2.5742,-2.5742,-2.5732,-2.704,0.0,0.0,0.0,0.0,0.0,-3.2612,-3.1777,-2.9772,-3.0855,-3.1311,-3.1311,-3.1311,-3.1311,-3.1223,-3.1223,-2.9681,-2.7683,-2.7589,-2.6754,-2.583,-2.5732,-2.5742,-2.5742,-2.5742,-2.5742,-2.5742,-2.5742,-2.5742,-2.5742,-2.5742,-2.5742,-2.5742,-2.5742,-2.5742,-2.5742,-2.5742,-2.5742,-2.5742,-2.5742,-2.5742,-2.5742,-2.5742,-2.5742,-2.5742,-2.5742,-2.4961,-2.4414,-2.4414,-2.3652,-2.3551,-2.4702,-2.5797,-2.6058,-2.4957,-2.5975,-2.6047,-2.4872,-2.38,-2.3222,-2.3135,-2.4211,-2.5294,-2.6224,-2.6318,-2.5221,-2.3135,-2.3135,-2.3135,-3.6118,0.0,-3.6596,-3.7075,-3.764,-3.8213,0.0,-3.8266,-3.7343,-3.7007,0.0,-3.4498,-3.394,-3.3386,0.0,0.0,0.0,0.0,0.0,0.0,0.0,0.0,0.0,0.0,0.0,0.0,0.0,0.0,0.0,0.0,0.0,0.0,-2.5742,-2.5742,-2.5742,-2.5742,-2.5742,-2.5742,-2.5742,-2.5742,-2.5742,-2.5742,-2.5732,-2.704,0.0,0.0,0.0,0.0,-3.2698,-3.2982,-3.2797,-3.2251,-3.2525,-3.2612,-3.2612,-3.2612,-3.2052,-3.1223,-3.1223,-3.0214,-2.8866,-2.7861,-2.741,-2.6945,-2.6014,-2.5742,-2.5742,-2.5742,-2.5742,-2.5742,-2.5742,-2.5742,-2.5742,-2.5742,-2.5742,-2.5742,-2.5742,-2.5742,-2.5742,-2.5742,-2.5742,-2.5742,-2.5742,-2.5742,-2.5742,-2.5742,-2.5742,-2.5742,-2.5742,-2.4961,-2.4414,-2.4414,-2.3652,-2.3551,-2.4702,-2.5797,-2.6389,-2.6141,-2.7116,-2.686,-2.4872,-2.4542,-2.3963,-2.3135,-2.4211,-2.4457,-2.3887,-2.4798,-2.4467,-2.3135,-2.3135,-2.3135,-3.6312,-3.6686,-3.706,-3.7704,-3.7979,-3.8325,-3.919,-3.7829,-3.6476,0.0,0.0,0.0,0.0,0.0,0.0,0.0,0.0,0.0,0.0,0.0,0.0,0.0,0.0,0.0,0.0,0.0,0.0,0.0,0.0,0.0,0.0,0.0,-2.5742,-2.5742,-2.5742,-2.5742,-2.5742,-2.5742,-2.5742,-2.5742,-2.5742,-2.6014,-2.6562,-2.7861,-2.9039,0.0,0.0,0.0,-3.3081,-3.3081,-3.3081,-3.3081,-3.3081,-3.3081,-3.3081,-3.3081,-3.2698,-3.2052,-3.2052,-3.1223,-3.0045,-2.8866,-2.8402,-2.8226,-2.6935,-2.6572,-2.6476,-2.583,-2.5742,-2.5742,-2.5742,-2.5742,-2.5742,-2.5742,-2.5742,-2.5742,-2.5742,-2.5742,-2.5742,-2.5742,-2.5742,-2.5742,-2.5742,-2.5742,-2.5742,-2.5742,-2.5742,-2.5742,-2.5742,-2.4961,-2.4414,-2.4414,-2.4068,-2.4296,-2.5462,-2.6625,-2.7197,-2.7197,-2.7763,-2.7348,-2.563,-2.5041,-2.4798,-2.4638,-2.5305,-2.5546,-2.5368,-2.6025,-2.5452,-2.3877,-2.3877,-2.3637,-3.6201,-3.6796,-3.7347,-3.7987,-3.7974,-3.7994,-3.8782,0.0,0.0,0.0,0.0,0.0,0.0,0.0,0.0,0.0,0.0,0.0,0.0,0.0,0.0,0.0,0.0,0.0,0.0,0.0,0.0,0.0,0.0,0.0,0.0,0.0,0.0,-2.5742,-2.5742,-2.5742,-2.5742,-2.5742,-2.5742,-2.5742,-2.5742,-2.639,-2.7683,-2.8866,-3.0033,0.0,0.0,0.0,-3.3081,-3.3081,-3.3081,-3.3081,-3.3081,-3.3081,-3.3081,-3.3081,-3.3081,-3.3081,-3.3081,-3.2413,-3.1311,-3.0045,-2.967,-2.9498,-2.8226,-2.7861,-2.7579,-2.639,-2.583,-2.5742,-2.5742,-2.5742,-2.5742,-2.5742,-2.5742,-2.5742,-2.5742,-2.5742,-2.5742,-2.5742,-2.5742,-2.5742,-2.5742,-2.5742,-2.5742,-2.5742,-2.5742,-2.5742,-2.5742,-2.5019,-2.4492,-2.4424,-2.4727,-2.5285,-2.64,-2.7441,-2.8176,-2.8347,-2.8347,-2.7775,-2.6554,-2.5378,-2.521,-2.6224,-2.6389,-2.6964,-2.7844,-2.7844,-2.6767,-2.4787,-2.4628,-2.4049,-3.5863,-3.6028,-3.6316,-3.6925,-3.7428,-3.7587,-3.6852,-3.5682,0.0,0.0,0.0,0.0,0.0,0.0,0.0,0.0,0.0,0.0,0.0,0.0,0.0,0.0,0.0,0.0,0.0,0.0,0.0,0.0,0.0,0.0,0.0,0.0,0.0,-2.5742,-2.5742,-2.5742,-2.5742,-2.5742,-2.5742,-2.5742,-2.5742,-2.639,-2.7683,-2.8866,-3.0033,0.0,0.0,-3.3081,-3.3081,-3.3081,-3.3081,-3.3081,-3.3081,-3.3081,-3.3081,-3.3081,-3.3081,-3.3081,-3.3081,-3.2982,-3.2612,-3.1311,-3.0944,-3.0676,-2.9498,-2.9131,-2.8855,-2.7673,-2.6572,-2.5742,-2.5742,-2.5742,-2.5742,-2.5742,-2.5742,-2.5742,-2.5742,-2.5742,-2.5742,-2.5742,-2.5742,-2.5742,-2.5742,-2.5742,-2.5742,-2.5742,-2.5742,-2.5742,-2.5742,-2.5293,-2.4824,-2.4453,-2.4923,-2.5658,-2.6434,-2.7441,-2.8505,-2.9456,-2.9534,-2.8621,-2.6554,-2.5378,-2.4872,-2.5041,-2.5975,-2.6554,-2.6719,-2.6719,-2.6047,-2.4787,-2.38,-2.3299,-3.5682,-3.5494,-3.5176,-3.5576,-3.6331,-3.6774,-3.6277,-3.544,0.0,0.0,0.0,0.0,0.0,0.0,0.0,0.0,0.0,0.0,0.0,0.0,0.0,0.0,0.0,0.0,0.0,0.0,0.0,0.0,0.0,0.0,0.0,0.0,0.0,0.0,-2.5742,-2.5742,-2.5742,-2.5742,-2.5742,-2.5732,-2.638,-2.74,-2.8588,-2.9852,-3.1045,-3.2239,0.0,-3.3081,-3.3081,-3.3081,-3.3081,-3.3081,-3.3081,-3.3081,-3.3081,-3.3081,-3.3081,-3.3081,-3.3081,-3.3081,-3.2884,-3.1589,-3.1223,-3.0944,-2.9772,-2.8947,-2.8319,-2.7778,-2.722,-2.6572,-2.5927,-2.5742,-2.5742,-2.5742,-2.5742,-2.5742,-2.5742,-2.5742,-2.5742,-2.5742,-2.5742,-2.5742,-2.5742,-2.5742,-2.5742,-2.5742,-2.5742,-2.5742,-2.5742,-2.5352,-2.5174,-2.527,-2.5939,-2.6576,-2.7325,-2.8359,-2.9275,-2.9792,-2.8712,-2.7557,-2.6565,-2.4808,-2.4467,-2.5714,-2.6224,-2.7058,-2.8303,-2.7626,-2.6789,-2.5714,-2.4542,-2.3714,-3.5311,-3.4952,-3.4402,-3.4291,0.0,-3.5814,-3.5494,-3.4884,0.0,0.0,0.0,0.0,0.0,0.0,0.0,0.0,0.0,0.0,0.0,0.0,0.0,0.0,0.0,0.0,0.0,0.0,0.0,0.0,0.0,0.0,0.0,0.0,0.0,0.0,-2.583,-2.6014,-2.6562,-2.6014,-2.5742,-2.5742,-2.704,-2.8226,-2.9407,-3.0676,-3.1865,-3.3081,-3.3081,-3.3081,-3.3081,-3.3081,-3.3081,-3.3081,-3.3081,-3.3081,-3.3081,-3.3081,-3.3081,-3.3081,-3.3081,-3.3081,-3.2982,-3.1965,-3.14,-3.1033,-3.0124,-2.8947,-2.7955,-2.7683,-2.7589,-2.7315,-2.6014,-2.5742,-2.5742,-2.5742,-2.5742,-2.5742,-2.5742,-2.5742,-2.5742,-2.5742,-2.5742,-2.5742,-2.5742,-2.5742,-2.5742,-2.5742,-2.5742,-2.5742,-2.5742,-2.5707,-2.5742,-2.6087,-2.7074,-2.7877,-2.8486,-2.9275,-2.9792,-2.9792,-2.7959,-2.6801,-2.6472,-2.4808,-2.4734,-2.6483,-2.6719,-2.7879,-2.9792,-2.8438,-2.7279,-2.6483,-2.5052,-2.3963,-3.457,-3.4369,-3.4122,-3.3444,-3.4037,-3.4594,-3.3556,-3.324,0.0,-3.324,0.0,0.0,0.0,0.0,0.0,0.0,0.0,0.0,0.0,0.0,0.0,0.0,0.0,0.0,0.0,0.0,0.0,0.0,0.0,0.0,0.0,0.0,0.0,-2.741,-2.6294,-2.6839,-2.9131,-2.6839,-2.5742,-2.5742,-2.704,-2.8226,-2.9407,-3.0676,-3.1865,-3.3081,-3.3081,-3.3081,-3.3081,-3.3081,-3.3081,-3.3081,-3.3081,-3.3081,-3.3081,-3.3081,-3.3081,-3.3081,-3.3081,-3.3081,-3.3068,-3.2982,-3.214,-3.1211,-3.1122,-3.0226,-2.9039,-2.7955,-2.7589,-2.7315,-2.6014,-2.5742,-2.5742,-2.5742,-2.5742,-2.5742,-2.5742,-2.5742,-2.5742,-2.5742,-2.5742,-2.5742,-2.5742,-2.5742,-2.5742,-2.5742,-2.5742,-2.5742,-2.5742,-2.6723,-2.7108,-2.6208,-2.8068,-2.9462,-2.9633,-2.9792,-2.9792,-2.9792,-2.8688,-2.7522,-2.6565,-2.6318,-2.6307,-2.6483,-2.7452,-2.8597,-2.9792,-2.7637,-2.6554,-2.6483,-2.4221,-2.3222,-3.4187,-3.3376,-3.2587,-3.3035,-3.3398,0.0,0.0,-3.3081,-3.3081,-3.3081,-3.3081,0.0,0.0,0.0,0.0,0.0,0.0,0.0,0.0,0.0,0.0,0.0,0.0,0.0,0.0,0.0,0.0,0.0,0.0,0.0,0.0,0.0,0.0,-2.638,-2.7484,-2.8132,-2.8319,-2.7305,-2.721,-2.8038,-2.8495,-2.9315,-3.0586,-3.1777,-3.2612,-3.3081,-3.3081,-3.3081,-3.3081,-3.3081,-3.3081,-3.3081,-3.3081,-3.3081,-3.3081,-3.3081,-3.3081,-3.2982,-3.2152,-3.2426,-3.2711,-3.0429,-3.0406,-3.0944,-2.9407,-2.868,-2.8226,-2.7778,-2.703,-2.6294,-2.583,-2.5742,-2.5742,-2.5742,-2.5742,-2.5742,-2.5742,-2.5742,-2.5742,-2.5742,-2.5742,-2.5742,-2.5742,-2.639,-2.6572,-2.583,-2.702,-2.7484,-2.5917,-2.7484,-2.8429,-2.7763,-2.9148,-3.0103,-2.9854,-2.9792,-2.9792,-2.9792,-2.8767,-2.7602,-2.6565,-2.6483,-2.6483,-2.6483,-2.7522,-2.8688,-2.9792,-2.7557,-2.6483,-2.6483,-2.4135,-2.3464,-3.3506,-3.2698,-3.1996,-3.2651,0.0,0.0,-3.3081,-3.3081,-3.3081,-3.3081,-3.3081,0.0,0.0,0.0,0.0,0.0,0.0,0.0,0.0,0.0,0.0,0.0,0.0,0.0,0.0,0.0,0.0,0.0,0.0,0.0,0.0,0.0,0.0,0.0,-2.7945,-2.8773,-2.8773,-2.7955,-2.8598,-3.0598,-3.0135,-3.0406,-3.1223,-3.2513,-3.3081,-3.3081,-3.3081,-3.3081,-3.3081,-3.3081,-3.3081,-3.3081,-3.3081,-3.3081,-3.3081,-3.3081,-3.3081,-3.2982,-3.214,-3.2339,-3.2612,-2.9692,-2.959,-3.0214,-2.8226,-2.7315,-2.703,-2.703,-2.639,-2.5742,-2.5742,-2.5742,-2.5742,-2.5742,-2.5742,-2.5742,-2.5742,-2.5742,-2.5742,-2.5742,-2.6014,-2.6294,-2.6294,-2.7305,-2.7851,-2.703,-2.7945,-2.8402,-2.702,-2.8308,-2.9421,-2.948,-3.0129,-3.0394,-2.9842,-2.9792,-2.9792,-2.9792,-2.9106,-2.8187,-2.7046,-2.7046,-2.7046,-2.7046,-2.8108,-2.9028,-2.9792,-2.7959,-2.7046,-2.6964,-2.5052,-2.4553,-3.2393,-3.2383,0.0,0.0,0.0,0.0,-3.3081,-3.3081,-3.3081,-3.3081,0.0,0.0,0.0,0.0,0.0,0.0,0.0,0.0,0.0,0.0,0.0,0.0,0.0,0.0,0.0,0.0,0.0,0.0,0.0,0.0,0.0,0.0,0.0,0.0,-2.7589,-2.8773,-3.1134,-2.8866,-2.951,-3.3068,-3.1777,-3.1223,-3.1223,-3.2513,-3.3081,-3.3081,-3.3081,-3.3081,-3.3081,-3.3081,-3.3081,-3.3081,-3.3081,-3.3081,-3.3081,-3.3081,-3.3081,-3.3081,-3.3081,-3.3068,-3.2884,-3.1589,-3.0406,-2.9223,-2.7955,-2.6754,-2.5732,-2.5732,-2.5742,-2.5732,-2.5742,-2.5732,-2.5732,-2.5742,-2.5742,-2.5732,-2.5742,-2.5732,-2.5742,-2.5742,-2.6754,-2.7589,-2.7589,-2.8588,-2.9407,-2.9407,-2.8402,-2.8038,-2.9315,-2.9407,-2.9923,-3.1253,-3.0934,-3.0407,-2.9842,-2.9792,-2.9792,-2.9792,-2.9792,-2.9275,-2.8176,-2.8084,-2.8084,-2.8096,-2.9197,-2.9792,-2.9792,-2.8688,-2.8096,-2.8084,-2.6964,-2.6483,-3.2445,-3.2173,0.0,0.0,0.0,0.0,0.0,-3.3081,0.0,0.0,0.0,0.0,0.0,0.0,0.0,0.0,0.0,0.0,0.0,0.0,0.0,0.0,0.0,0.0,0.0,0.0,0.0,0.0,0.0,0.0,0.0,0.0,0.0,0.0,-3.0147,-3.0968,-2.9954,-3.0045,-3.1134,-3.3068,-3.1777,-3.1677,-3.2525,-3.2896,-3.3081,-3.3081,-3.3081,-3.3081,-3.3081,-3.3081,-3.3081,-3.3081,-3.3081,-3.3081,-3.3081,-3.3081,-3.3081,-3.2982,-3.2052,-3.1777,-3.1589,-3.0316,-3.0316,-3.0406,-2.9223,-2.9223,-2.9396,-2.8577,-2.8308,-2.8121,-2.722,-2.7673,-2.7851,-2.61,-2.702,-2.8038,-2.721,-2.7662,-2.8308,-2.8308,-2.8588,-2.8866,-2.8866,-2.9863,-3.0406,-2.9498,-3.0598,-3.1601,-3.1965,-3.1235,-3.0961,-3.1872,-3.1486,-3.0947,-3.0419,-3.0018,-2.9792,-2.9792,-2.9792,-2.9275,-2.8176,-2.8858,-2.8937,-2.8096,-2.9197,-2.9792,-2.9792,-2.8688,-2.8096,-2.8084,-2.6964,-2.6883,-3.1526,0.0,0.0,0.0,0.0,0.0,0.0,0.0,0.0,0.0,0.0,0.0,0.0,0.0,0.0,0.0,0.0,0.0,0.0,0.0,0.0,0.0,0.0,0.0,0.0,0.0,0.0,0.0,0.0,0.0,0.0,0.0,0.0,0.0,-3.0687,-3.1412,-2.9407,-3.0586,-3.1865,-3.3081,-3.2326,-3.2339,-3.3081,-3.3081,-3.3081,-3.3081,-3.3081,-3.3081,-3.3081,-3.3081,-3.3081,-3.3081,-3.3081,-3.3081,-3.3081,-3.3081,-3.3081,-3.2982,-3.2239,-3.1952,-3.1777,-3.0496,-3.0586,-3.0944,-2.9772,-2.9954,-3.0316,-2.959,-2.9407,-2.9223,-2.8495,-2.9223,-2.9487,-2.703,-2.7945,-2.9223,-2.8495,-2.8866,-2.9407,-2.9407,-2.9772,-3.0135,-3.0135,-3.1134,-3.1689,-3.0968,-3.2152,-3.2896,-3.2426,-3.214,-3.2031,-3.2181,-3.1913,-3.1424,-3.067,-3.0306,-3.003,-2.9804,-2.9792,-2.9456,-2.8767,-2.9456,-2.9456,-2.8767,-2.9456,-2.9792,-2.9792,-2.9106,-2.8767,-2.8767,-2.8119,-2.8131,-3.0138,0.0,0.0,0.0,0.0,0.0,0.0,0.0,0.0,0.0,0.0,0.0,0.0,0.0,0.0,0.0,0.0,0.0,0.0,0.0,0.0,0.0,0.0,0.0,0.0,0.0,0.0,0.0,0.0,0.0,0.0,0.0,0.0,0.0,-3.0135,-3.0765,-2.959,-3.0765,-3.1952,0.0,-3.3081,-3.3081,-3.3081,-3.3081,-3.3081,-3.3081,-3.3081,-3.3068,-3.2982,-3.3068,-3.3068,-3.2982,-3.3068,-3.3081,-3.3081,-3.2982,-3.2982,-3.3068,-3.2982,-3.2896,-3.2797,-3.1689,-3.1311,-3.1033,-3.0045,-2.9772,-2.9772,-2.9772,-2.9772,-2.9681,-2.959,-3.0496,-3.0765,-2.8505,-2.8866,-2.9681,-2.959,-2.9681,-2.9772,-2.9772,-3.0586,-3.14,-3.14,-3.2326,-3.3081,-3.3081,-3.3081,-3.2698,-3.15,-3.2426,-3.288,-3.2353,-3.224,-3.18,-3.0771,-3.0645,-3.0382,-2.9829,-2.9792,-2.9792,-2.9792,-2.9792,-2.9792,-2.9792,-2.9792,-2.9792,-2.9792,-2.9792,-2.9792,-2.9792,-2.9792,-2.9792,0.0,-3.0896,0.0,0.0,0.0,0.0,0.0,0.0,0.0,0.0,0.0,0.0,0.0,0.0,0.0,0.0,0.0,0.0,0.0,0.0,0.0,0.0,0.0,0.0,0.0,0.0,0.0,0.0,0.0,0.0,0.0,0.0,0.0,-3.0395,-3.1877,-3.2064,-3.0855,-3.2052,-3.2797,0.0,-3.3081,-3.3081,-3.3081,-3.3081,-3.3081,-3.3081,-3.3081,-3.2513,-3.1689,-3.2698,-3.2513,-3.1689,-3.2711,-3.3081,-3.2982,-3.1965,-3.2239,-3.2982,-3.1965,-3.1589,-3.1689,-3.2426,-3.2052,-3.1311,-3.2064,-3.2339,-3.2339,-3.2339,-3.2339,-3.2064,-3.1045,-3.1777,-3.2339,-3.0777,-3.1412,-3.2064,-3.1045,-3.1601,-3.2339,-3.2339,-3.2525,-3.2698,-3.2698,-3.2884,-3.3081,-3.3081,-3.3081,-3.2982,-3.2711,-3.2896,-3.3031,-3.2905,-3.2478,-3.1951,-3.1273,-3.0846,-3.0382,-2.9829,-2.9792,-2.9792,-2.9792,-2.9792,-2.9792,-2.9792,-2.9792,-2.9792,-2.9792,-2.9792,-2.9792,-2.9792,-2.9792,-2.9792,0.0,0.0,0.0,0.0,0.0,0.0,0.0,0.0,0.0,0.0,0.0,0.0,0.0,0.0,0.0,0.0,0.0,0.0,0.0,0.0,0.0,0.0,0.0,0.0,0.0,0.0,0.0,0.0,0.0,0.0,0.0,-3.1223,-3.1223,-3.1223,-3.2426,-3.2513,-3.1223,-3.2426,-3.3081,-3.3081,-3.3081,-3.3081,-3.3081,-3.3081,-3.3081,-3.3081,-3.3081,-3.2698,-3.214,-3.2797,-3.2326,-3.1311,-3.1952,-3.1877,-3.1235,-3.0586,-3.0777,-3.1235,-3.0586,-3.0316,-3.0406,-3.1146,-3.1235,-3.1311,-3.1965,-3.2612,-3.3081,-3.3081,-3.3081,-3.2982,-3.2239,-3.2612,-3.2884,-3.2239,-3.2612,-3.2884,-3.2239,-3.2612,-3.3081,-3.3081,-3.3081,-3.3081,-3.3081,-3.3081,-3.3081,-3.3081,-3.3081,-3.3081,-3.3081,-3.3081,-3.3081,-3.3081,-3.2805,-3.2403,-3.1838,-3.1298,-3.0758,-3.0218,-2.9942,-2.9792,-2.9792,-2.9792,-2.9792,-2.9792,-2.9792,-2.9792,-2.9792,-2.9792,-2.9792,-2.9792,-2.9792,-2.9792,0.0,0.0,0.0,0.0,0.0,0.0,0.0,0.0,0.0,0.0,0.0,0.0,0.0,0.0,0.0,0.0,0.0,0.0,0.0,0.0,0.0,0.0,0.0,0.0,0.0,0.0,0.0,0.0,0.0,0.0,-3.1223,-3.1412,-3.15,-3.15,-3.2525,-3.2612,-3.15,-3.2612,-3.3081,-3.3081,-3.3081,-3.3081,-3.3081,-3.3081,-3.3081,-3.3081,-3.3081,-3.2982,-3.2797,-3.2982,-3.2326,-3.1223,-3.1223,-3.0586,-2.9681,-2.9223,-2.9223,-2.9407,-2.9131,-2.9223,-2.9407,-2.9407,-3.0045,-3.0944,-3.1134,-3.1965,-3.2797,-3.3068,-3.3081,-3.3081,-3.3081,-3.3081,-3.3081,-3.3081,-3.3081,-3.3081,-3.3081,-3.3081,-3.3081,-3.3081,-3.3081,-3.3081,-3.3081,-3.3081,-3.3081,-3.3081,-3.3081,-3.3081,-3.3081,-3.3081,-3.3081,-3.3081,-3.3081,-3.2842,-3.2265,-3.1788,-3.1273,-3.0658,-3.0181,-2.9892,-2.9792,-2.9792,-2.9792,-2.9792,-2.9792,-2.9792,-2.9792,-2.9792,-2.9792,-2.9792,-2.9792,-2.9792,0.0,0.0,0.0,0.0,0.0,0.0,0.0,0.0,0.0,0.0,0.0,0.0,0.0,0.0,0.0,0.0,0.0,0.0,0.0,0.0,0.0,0.0,0.0,0.0,0.0,0.0,0.0,0.0,0.0,0.0,-3.1223,-3.2239,-3.2884,-3.2884,-3.2982,-3.2982,-3.2884,-3.2982,-3.3081,-3.3081,-3.3081,-3.3081,-3.3081,-3.3081,-3.3081,-3.3081,-3.3081,-3.2426,-3.15,-3.2612,-3.2326,-3.1223,-3.1223,-3.1122,-3.0676,-2.8588,-2.8495,-2.9223,-2.8226,-2.8495,-2.9407,-2.9407,-2.9498,-2.9863,-3.0855,-3.1311,-3.1677,-3.2797,-3.3081,-3.3081,-3.3081,-3.3081,-3.3081,-3.3081,-3.3081,-3.3081,-3.3081,-3.3081,-3.3081,-3.3081,-3.3081,-3.3081,-3.3081,-3.3081,-3.3081,-3.3081,-3.3081,-3.3081,-3.3081,-3.3081,-3.3081,-3.3081,-3.3081,-3.2842,-3.2265,-3.2139,-3.1675,-3.067,-3.0545,-3.0294,-2.9817,-2.9792,-2.9792,-2.9792,-2.9792,-2.9792,-2.9792,-2.9792,-2.9792,-2.9792,-2.9792,-2.9792,-3.2492,0.0,0.0,0.0,0.0,0.0,0.0,0.0,0.0,0.0,0.0,0.0,0.0,0.0,0.0,0.0,0.0,0.0,0.0,0.0,0.0,0.0,0.0,0.0,0.0,0.0,0.0,0.0,0.0,-3.2239,-3.2239,-3.2797,-3.3081,-3.3081,-3.3081,-3.3081,-3.3081,-3.3081,-3.3081,-3.3081,-3.3081,-3.3081,-3.3081,-3.3081,-3.2711,-3.2052,-3.2797,-3.2426,-3.1311,-3.2612,-3.2326,-3.1223,-3.1223,-3.0406,-2.9131,-2.8773,-2.8495,-2.8402,-2.8588,-2.8958,-2.9407,-2.9407,-2.9863,-3.0496,-3.1045,-3.1689,-3.2426,-3.2982,-3.3081,-3.3081,-3.3081,-3.3081,-3.3081,-3.3081,-3.3081,-3.3081,-3.3081,-3.3081,-3.3081,-3.3081,-3.3081,-3.3081,-3.3081,-3.3081,-3.3081,-3.3081,-3.3081,-3.3081,-3.3081,-3.3081,-3.3081,-3.3081,-3.3081,-3.2968,-3.2717,-3.2403,-3.2014,-3.1537,-3.0947,-3.0507,-3.0269,-2.9955,-2.9792,-2.9792,-2.9792,-2.9792,-2.9792,-2.9792,-2.9792,-2.9792,-2.9792,-2.9792,0.0,0.0,0.0,0.0,0.0,0.0,0.0,0.0,0.0,0.0,0.0,0.0,0.0,0.0,0.0,0.0,0.0,0.0,0.0,0.0,0.0,0.0,0.0,0.0,0.0,0.0,0.0,0.0,0.0,-3.2797,-3.2152,-3.2797,-3.3081,-3.3081,-3.3081,-3.3081,-3.3081,-3.3081,-3.3081,-3.3081,-3.3081,-3.2896,-3.2612,-3.2612,-3.1777,-3.0406,-3.1965,-3.2052,-3.1223,-3.1877,-3.1601,-3.0676,-3.0395,-2.9223,-2.7683,-2.8226,-2.8132,-2.7778,-2.8588,-2.9131,-2.9407,-2.9407,-3.0045,-3.0765,-3.1134,-3.1865,-3.2698,-3.2982,-3.3081,-3.3081,-3.3081,-3.3081,-3.3081,-3.3081,-3.3081,-3.3081,-3.3081,-3.3081,-3.3081,-3.3081,-3.3081,-3.3081,-3.3081,-3.3081,-3.3081,-3.3081,-3.3081,-3.3081,-3.3081,-3.3081,-3.3081,-3.3081,-3.3081,-3.3081,-3.3081,-3.2679,-3.2365,-3.2227,-3.1461,-3.0896,-3.062,-3.0218,-2.993,-2.9792,-2.9792,-2.9792,-2.9792,-2.9792,-2.9792,-2.9792,-2.9792,-2.9792,0.0,0.0,0.0,0.0,0.0,0.0,0.0,0.0,0.0,0.0,0.0,0.0,0.0,0.0,0.0,0.0,0.0,0.0,0.0,0.0,0.0,0.0,0.0,0.0,0.0,0.0,0.0,0.0,0.0,-3.2064,-2.9681,-3.1789,-3.3081,-3.3081,-3.3081,-3.3081,-3.3081,-3.3081,-3.3081,-3.3081,-3.3081,-3.2426,-3.1311,-3.1311,-3.0045,-2.7955,-3.0316,-3.1223,-3.1134,-3.0045,-2.959,-2.9407,-2.8226,-2.7683,-2.7494,-2.6294,-2.6668,-2.7589,-2.7683,-2.8402,-2.9407,-2.9407,-2.9407,-2.9681,-3.0855,-3.1223,-3.1589,-3.2797,-3.3081,-3.3081,-3.3081,-3.3081,-3.3081,-3.3081,-3.3081,-3.3081,-3.3081,-3.3081,-3.3081,-3.3081,-3.3081,-3.3081,-3.3081,-3.3081,-3.3081,-3.3081,-3.3081,-3.3081,-3.3081,-3.3081,-3.3081,-3.3081,-3.3081,-3.3081,-3.3081,-3.3056,-3.2805,-3.2252,-3.2164,-3.1675,-3.0658,-3.0583,-3.0331,-2.9804,-2.9792,-2.9792,-2.9792,-2.9792,-2.9792,-2.9792,-2.9792,-2.9792,0.0,0.0,0.0,0.0,0.0,0.0,0.0,0.0,0.0,0.0,0.0,0.0,0.0,0.0,0.0,0.0,0.0,0.0,0.0,0.0,0.0,0.0,0.0,0.0,0.0,0.0,0.0,0.0,0.0,0.0,-3.0586,-3.1412,-3.1865,-3.1865,-3.2698,-3.3081,-3.3081,-3.2326,-3.2326,-3.3081,-3.3081,-3.2884,-3.2413,-3.1589,-3.0765,-2.9863,-2.9223,-2.8866,-2.8958,-2.9223,-2.9407,-2.9315,-2.8947,-2.8319,-2.7683,-2.7945,-2.8402,-2.8773,-2.8773,-3.0045,-3.1601,-3.0855,-3.1146,-3.1877,-3.2326,-3.2426,-3.2513,-3.2982,-3.3081,-3.3081,-3.3081,-3.3081,-3.3081,-3.3081,-3.3081,-3.3081,-3.3081,-3.3081,-3.3081,-3.3081,-3.3081,-3.3081,-3.3081,-3.3081,-3.3081,-3.3081,-3.3081,-3.3081,-3.3081,-3.3081,-3.3081,-3.3081,-3.3081,-3.3081,-3.3081,-3.3081,-3.2993,-3.278,-3.2416,-3.1876,-3.1135,-3.0796,-3.0357,-2.9804,-2.9792,-2.9792,-2.9792,-2.9792,-2.9792,-2.9792,-2.9792,-2.9792,-3.4611,0.0,0.0,0.0,0.0,0.0,0.0,0.0,0.0,0.0,0.0,0.0,0.0,0.0,0.0,0.0,0.0,0.0,0.0,0.0,0.0,0.0,0.0,0.0,0.0,0.0,0.0,0.0,0.0,0.0,-3.0586,-3.0586,-3.0765,-3.1223,-3.2426,-3.3081,-3.3081,-3.1865,-3.1589,-3.2426,-3.2064,-3.1613,-3.1247,-3.0406,-2.9761,-2.9304,-2.7673,-2.722,-2.7589,-2.8038,-2.8121,-2.8121,-2.8121,-2.7673,-2.703,-2.7851,-2.8402,-2.8855,-2.9223,-3.0777,-3.2413,-3.1965,-3.2426,-3.3081,-3.3081,-3.3081,-3.3081,-3.3081,-3.3081,-3.3081,-3.3081,-3.3081,-3.3081,-3.3081,-3.3081,-3.3081,-3.3081,-3.3081,-3.3081,-3.3081,-3.3081,-3.3081,-3.3081,-3.3081,-3.3081,-3.3081,-3.3081,-3.3081,-3.3081,-3.3081,-3.3081,-3.3081,-3.3081,-3.3081,-3.3081,-3.3081,-3.3081,-3.3081,-3.2717,-3.2252,-3.1687,-3.1148,-3.062,-3.008,-2.988,-2.9792,-2.9792,-2.9792,-2.9792,-2.9792,-2.9792,-2.9792,0.0,0.0,0.0,0.0,0.0,0.0,0.0,0.0,0.0,0.0,0.0,0.0,0.0,0.0,0.0,0.0,0.0,0.0,0.0,0.0,0.0,0.0,0.0,0.0,0.0,0.0,0.0,0.0,0.0,-3.0676,-2.9498,-2.9407,-2.9863,-3.1134,-3.2326,-3.2982,-3.3068,-3.1777,-3.1211,-3.1223,-3.0045,-2.8855,-2.7683,-2.7589,-2.6945,-2.5732,-2.5742,-2.638,-2.7494,-2.6197,-2.5742,-2.5742,-2.5742,-2.5742,-2.5742,-2.5742,-2.6476,-2.7778,-2.8947,-3.0135,-3.14,-3.2612,-3.3068,-3.3081,-3.3081,-3.3081,-3.3081,-3.3081,-3.3081,-3.3081,-3.3081,-3.3081,-3.3081,-3.3081,-3.3081,-3.3081,-3.3081,-3.3081,-3.3081,-3.3081,-3.3081,-3.3081,-3.3081,-3.3081,-3.3081,-3.3081,-3.3081,-3.3081,-3.3081,-3.3081,-3.3081,-3.3081,-3.3081,-3.3081,-3.3081,-3.3081,-3.3081,-3.3081,-3.3081,-3.2817,-3.224,-3.1687,-3.1148,-3.062,-3.0068,-2.9792,-2.9792,-2.9792,-2.9792,-2.9792,-2.9792,-2.9792,-3.4212,0.0,0.0,0.0,0.0,0.0,0.0,0.0,0.0,0.0,0.0,0.0,0.0,0.0,0.0,0.0,0.0,0.0,0.0,0.0,0.0,0.0,0.0,0.0,0.0,0.0,0.0,0.0,-3.0866,-2.9772,-2.9407,-2.8588,-2.868,-2.9863,-2.9407,-2.9966,-3.1689,-3.0496,-3.0777,-3.2525,-3.1311,-3.0496,-3.0124,-2.8412,-2.74,-2.703,-2.611,-2.5917,-2.6197,-2.583,-2.5742,-2.5742,-2.5742,-2.5742,-2.5742,-2.5742,-2.6476,-2.7683,-2.7955,-2.9498,-3.1223,-3.1589,-3.2326,-3.3081,-3.3081,-3.3081,-3.3081,-3.3081,-3.3081,-3.3081,-3.3081,-3.3081,-3.3081,-3.3081,-3.3081,-3.3081,-3.3081,-3.3081,-3.3081,-3.3081,-3.3081,-3.3081,-3.3081,-3.3081,-3.3081,-3.3081,-3.3081,-3.3081,-3.3081,-3.3081,-3.3081,-3.3081,-3.3081,-3.3081,-3.3081,-3.3081,-3.3081,-3.3081,-3.3081,-3.2817,-3.224,-3.1687,-3.1148,-3.062,-3.0068,-2.9792,-2.9792,-2.9792,-2.9792,-2.9792,-2.9792,-2.9792,-3.3933,-3.4498,0.0,0.0,0.0,0.0,0.0,0.0,0.0,0.0,0.0,0.0,0.0,0.0,0.0,0.0,0.0,0.0,0.0,0.0,0.0,0.0,0.0,0.0,0.0,0.0,0.0,-3.3068,-3.0777,-2.8947,-2.7945,-2.7673,-2.7955,-2.8588,-2.8495,-2.9039,-3.0406,-2.9772,-2.9863,-3.0789,-3.0045,-2.9681,-2.959,-2.7673,-2.74,-2.8226,-2.6476,-2.6014,-2.6476,-2.5927,-2.6014,-2.6476,-2.6476,-2.6476,-2.638,-2.5927,-2.6197,-2.6945,-2.7945,-2.9315,-3.0586,-3.1689,-3.2513,-3.3081,-3.3081,-3.3081,-3.3081,-3.3081,-3.3081,-3.3081,-3.3081,-3.3081,-3.3081,-3.3081,-3.3081,-3.3081,-3.3081,-3.3081,-3.3081,-3.3081,-3.3081,-3.3081,-3.3081,-3.3081,-3.3081,-3.3081,-3.3081,-3.3081,-3.3081,-3.3081,-3.3081,-3.3081,-3.3081,-3.3081,-3.3081,-3.3081,-3.3081,-3.3081,-3.3081,-3.2918,-3.2591,-3.2026,-3.1486,-3.0947,-3.0407,-3.0018,-2.9792,-2.9792,-2.9792,-2.9792,-2.9792,-2.9792,-3.3081,-3.3081,-3.3081,0.0,0.0,0.0,-3.3081,-3.3081,-3.3081,0.0,0.0,0.0,0.0,0.0,0.0,0.0,0.0,0.0,0.0,0.0,0.0,0.0,0.0,0.0,0.0,0.0,-3.2982,-3.3081,-3.0777,-2.8402,-2.6197,-2.6945,-2.74,-2.74,-2.8402,-2.9039,-2.9223,-2.9223,-2.8773,-2.7778,-2.7683,-2.7589,-2.7589,-2.638,-2.7115,-2.9039,-2.6839,-2.6572,-2.7494,-2.639,-2.6572,-2.7589,-2.7589,-2.7683,-2.7683,-2.6572,-2.61,-2.6476,-2.868,-2.9498,-2.9954,-3.2152,-3.2982,-3.3081,-3.3081,-3.3081,-3.3081,-3.3081,-3.3081,-3.3081,-3.3081,-3.3081,-3.3081,-3.3081,-3.3081,-3.3081,-3.3081,-3.3081,-3.3081,-3.3081,-3.3081,-3.3081,-3.3081,-3.3081,-3.3081,-3.3081,-3.3081,-3.3081,-3.3081,-3.3081,-3.3081,-3.3081,-3.3081,-3.3081,-3.3081,-3.3081,-3.3081,-3.3081,-3.3081,-3.3081,-3.3081,-3.2516,-3.1951,-3.1399,-3.0821,-3.0281,-2.9792,-2.9792,-2.9792,-2.9792,-2.9792,-2.9792,0.0,0.0,0.0,0.0,0.0,0.0,-3.3081,-3.3081,-3.3081,0.0,0.0,0.0,0.0,0.0,0.0,0.0,0.0,0.0,0.0,0.0,0.0,0.0,0.0,0.0,0.0,0.0,-3.1965,-3.2982,-3.0777,-2.9223,-2.8669,-2.703,-2.611,-2.611,-2.6284,-2.6935,-2.7955,-2.7955,-2.8319,-2.9039,-2.8038,-2.7589,-2.7589,-2.7315,-2.7494,-2.7955,-2.74,-2.741,-2.7589,-2.7305,-2.74,-2.7589,-2.7589,-2.8226,-2.9039,-2.8762,-2.868,-2.8762,-2.9223,-3.0045,-3.0944,-3.1412,-3.2239,-3.3081,-3.3081,-3.3081,-3.3081,-3.3081,-3.3081,-3.3081,-3.3081,-3.3081,-3.3081,-3.3081,-3.3081,-3.3081,-3.3081,-3.3081,-3.3081,-3.3081,-3.3081,-3.3081,-3.3081,-3.3081,-3.3081,-3.3081,-3.3081,-3.3081,-3.3081,-3.3081,-3.3081,-3.3081,-3.3081,-3.3081,-3.3081,-3.3081,-3.3081,-3.3081,-3.3081,-3.3081,-3.3081,-3.2516,-3.1951,-3.1399,-3.0444,-2.9892,-2.9792,-2.9792,-2.9792,-2.9792,-2.9792,-2.9792,0.0,0.0,0.0,-3.3081,0.0,0.0,0.0,-3.3081,0.0,0.0,0.0,0.0,0.0,0.0,0.0,0.0,0.0,0.0,0.0,0.0,0.0,0.0,0.0,0.0,0.0,-3.0687,-3.0586,-3.1235,-3.0676,-2.9772,-2.8588,-2.7305,-2.639,-2.5742,-2.5742,-2.6014,-2.6668,-2.7315,-2.7579,-2.7579,-2.7589,-2.7589,-2.7589,-2.6945,-2.7673,-2.9315,-2.8132,-2.8319,-2.9315,-2.8773,-2.8866,-2.9315,-2.8773,-2.9223,-3.0214,-2.959,-2.9407,-2.9498,-3.0135,-3.0676,-3.1311,-3.1952,-3.2612,-3.3081,-3.3081,-3.3081,-3.3081,-3.3081,-3.3081,-3.3081,-3.3081,-3.3081,-3.3081,-3.3081,-3.3081,-3.3081,-3.3081,-3.3081,-3.3081,-3.3081,-3.3081,-3.3081,-3.3081,-3.3081,-3.3081,-3.3081,-3.3081,-3.3081,-3.3081,-3.3081,-3.3081,-3.3081,-3.3081,-3.3081,-3.3081,-3.3081,-3.3081,-3.3081,-3.3081,-3.3081,-3.3081,-3.2805,-3.2252,-3.1411,-3.0344,-2.9792,-2.9792,-2.9792,-2.9792,-2.9792,-2.9792,-2.9792,0.0,0.0,0.0,0.0,0.0,-3.3081,0.0,0.0,0.0,0.0,0.0,0.0,0.0,0.0,0.0,0.0,0.0,0.0,0.0,0.0,0.0,0.0,0.0,0.0,0.0,-2.9407,-2.9407,-2.9407,-3.0135,-2.9772,-2.8038,-2.7494,-2.6849,-2.611,-2.583,-2.5742,-2.5742,-2.6754,-2.6754,-2.5732,-2.6754,-2.722,-2.722,-2.639,-2.7662,-3.0406,-2.868,-2.9039,-3.0765,-2.9772,-3.0135,-3.1122,-3.0135,-3.0496,-3.1412,-3.0496,-3.0135,-3.0226,-3.0956,-3.14,-3.1677,-3.2513,-3.2896,-3.3081,-3.3081,-3.3081,-3.3081,-3.3081,-3.3081,-3.3081,-3.3081,-3.3081,-3.3081,-3.3081,-3.3081,-3.3081,-3.3081,-3.3081,-3.3081,-3.3081,-3.3081,-3.3081,-3.3081,-3.3081,-3.3081,-3.3081,-3.3081,-3.3081,-3.3081,-3.3081,-3.3081,-3.3081,-3.3081,-3.3081,-3.3081,-3.3081,-3.3081,-3.3081,-3.3081,-3.3081,-3.3081,-3.2867,-3.2328,-3.1411,-3.0344,-2.9792,-2.9792,-2.9792,-2.9792,-2.9792,-2.9792,-2.9792,0.0,0.0,0.0,0.0,-3.3081,0.0,0.0,0.0,0.0,0.0,0.0,0.0,0.0,0.0,0.0,0.0,0.0,0.0,0.0,0.0,0.0,0.0,0.0,0.0,0.0,0.0,-2.9407,-2.9407,-2.8495,-2.8319,-2.9131,-2.7115,-2.639,-2.7315,-2.6294,-2.5742,-2.5742,-2.583,-2.583,-2.5742,-2.583,-2.5927,-2.5917,-2.6945,-2.7589,-2.8038,-2.8866,-2.9315,-2.959,-2.9498,-3.0135,-3.1223,-3.1033,-3.1777,-3.2884,-3.2711,-3.2711,-3.2525,-3.15,-3.1952,-3.2698,-3.1777,-3.2152,-3.3081,-3.3081,-3.3081,-3.3081,-3.3081,-3.3081,-3.3081,-3.3081,-3.3081,-3.3081,-3.3081,-3.3081,-3.3081,-3.3081,-3.3081,-3.3081,-3.3081,-3.3081,-3.3081,-3.3081,-3.3081,-3.3081,-3.3081,-3.3081,-3.3081,-3.3081,-3.3081,-3.3081,-3.3081,-3.3081,-3.3081,-3.3081,-3.3081,-3.3081,-3.3081,-3.3081,-3.3081,-3.3081,-3.2114,-3.1524,-3.1386,-3.0344,-2.9792,-2.9792,-2.9792,-2.9792,-2.9792,-2.9792,-2.9792,0.0,0.0,0.0,0.0,0.0,0.0,-3.1965,0.0,-3.3081,0.0,0.0,0.0,0.0,0.0,0.0,0.0,0.0,0.0,0.0,0.0,0.0,0.0,0.0,0.0,0.0,0.0,0.0,0.0,0.0,-2.8588,-2.8412,-2.74,-2.6658,-2.6476,-2.6014,-2.5742,-2.5742,-2.5742,-2.5742,-2.5742,-2.5742,-2.5742,-2.5742,-2.6294,-2.6945,-2.7589,-2.8132,-2.9131,-3.0406,-3.0406,-3.1134,-3.2326,-3.2326,-3.2612,-3.3081,-3.3081,-3.3081,-3.2982,-3.2513,-3.2612,-3.2982,-3.2513,-3.2698,-3.3081,-3.3081,-3.3081,-3.3081,-3.3081,-3.3081,-3.3081,-3.3081,-3.3081,-3.3081,-3.3081,-3.3081,-3.3081,-3.3081,-3.3081,-3.3081,-3.3081,-3.3081,-3.3081,-3.3081,-3.3081,-3.3081,-3.3081,-3.3081,-3.3081,-3.3081,-3.3081,-3.3081,-3.3081,-3.3081,-3.3081,-3.3081,-3.3081,-3.3081,-3.3081,-3.3081,-3.3081,-3.3081,-3.1989,-3.1386,-3.1386,-3.0344,-2.9792,-2.9792,-2.9792,-2.9792,-2.9792,-2.9792,-2.9792,-2.959,0.0,0.0,0.0,0.0,0.0,0.0,0.0,0.0,0.0,0.0,0.0,0.0,0.0,0.0,0.0,0.0,0.0,0.0,0.0,0.0,0.0,0.0,0.0,0.0,0.0,0.0,0.0,-2.8402,-2.8132,-2.7589,-2.7315,-2.6849,-2.6197,-2.5927,-2.5742,-2.5742,-2.5742,-2.5742,-2.5742,-2.5742,-2.5742,-2.5742,-2.5742,-2.6197,-2.7125,-2.7494,-2.8588,-3.0226,-3.0944,-3.1777,-3.2612,-3.2982,-3.3081,-3.3081,-3.3081,-3.3081,-3.3081,-3.3081,-3.3081,-3.3081,-3.3081,-3.3081,-3.3081,-3.3081,-3.3081,-3.3081,-3.3081,-3.3081,-3.3081,-3.3081,-3.3081,-3.3081,-3.3081,-3.3081,-3.3081,-3.3081,-3.3081,-3.3081,-3.3081,-3.3081,-3.3081,-3.3081,-3.3081,-3.3081,-3.3081,-3.3081,-3.3081,-3.3081,-3.3081,-3.3081,-3.3081,-3.3081,-3.3081,-3.3081,-3.3081,-3.3081,-3.3081,-3.3081,-3.3081,-3.3081,-3.1989,-3.1386,-3.1386,-3.0344,-2.9792,-2.9792,-2.9792,-2.9792,-2.9792,-2.9792,-2.9792,0.0,0.0,0.0,-2.9681,0.0,0.0,0.0,0.0,-2.9498,0.0,0.0,0.0,0.0,0.0,-2.9341,-2.8858,-2.9184,0.0,0.0,0.0,0.0,0.0,0.0,0.0,0.0,0.0,0.0,-2.583,-2.583,-2.639,-2.7494,-2.638,-2.6294,-2.7494,-2.639,-2.5742,-2.5742,-2.5742,-2.5742,-2.5742,-2.5742,-2.5742,-2.5742,-2.5742,-2.5732,-2.583,-2.703,-2.7683,-2.7861,-3.0226,-3.1211,-3.14,-3.2612,-3.3081,-3.3081,-3.3081,-3.3081,-3.3081,-3.3081,-3.3081,-3.3081,-3.3081,-3.3081,-3.3081,-3.3081,-3.3081,-3.3081,-3.3081,-3.3081,-3.3081,-3.3081,-3.3081,-3.3081,-3.3081,-3.3081,-3.3081,-3.3081,-3.3081,-3.3081,-3.3081,-3.3081,-3.3081,-3.3081,-3.3081,-3.3081,-3.3081,-3.3081,-3.3081,-3.3081,-3.3081,-3.3081,-3.3081,-3.3081,-3.3081,-3.3081,-3.3081,-3.3081,-3.3081,-3.3081,-3.3081,-3.3081,-3.1989,-3.1386,-3.1386,-3.0344,-2.9792,-2.9792,-2.9792,-2.9792,-2.9792,-2.9792,-2.9792,0.0,0.0,-2.8495,-2.7295,0.0,0.0,0.0,0.0,0.0,0.0,0.0,0.0,0.0,0.0,-2.9351,-2.9183,-2.9295,-2.9442,0.0,0.0,0.0,0.0,0.0,0.0,0.0,0.0,0.0,-2.6945,-2.6197,-2.5927,0.0,-2.5917,-2.5917,-2.6294,-2.5927,-2.5742,-2.5742,-2.5742,-2.5742,-2.5742,-2.5742,-2.5742,-2.5732,-2.6572,-2.6945,-2.703,-2.8226,-2.8773,-2.8855,-2.967,-3.0496,-3.1223,-3.1677,-3.2339,-3.3081,-3.3081,-3.3081,-3.3081,-3.3081,-3.3081,-3.3081,-3.3081,-3.3081,-3.3081,-3.3081,-3.3081,-3.3081,-3.3081,-3.3081,-3.3081,-3.3081,-3.3081,-3.3081,-3.3081,-3.3081,-3.3081,-3.3081,-3.3081,-3.3081,-3.3081,-3.3081,-3.3081,-3.3081,-3.3081,-3.3081,-3.3081,-3.3081,-3.3081,-3.3081,-3.3081,-3.3081,-3.3081,-3.3081,-3.3081,-3.3081,-3.3081,-3.3081,-3.3081,-3.3081,-3.3081,-3.3081,-3.1989,-3.1386,-3.1386,-3.0344,-2.9792,-2.9792,-2.9792,-2.9792,-2.9792,-2.9792,-2.9792,-2.8038,-2.7955,0.0,-2.61,-2.6294,0.0,-2.6945,0.0,0.0,0.0,0.0,0.0,0.0,0.0,-2.8121,-2.8121,-2.8121,-2.8215,0.0,-2.9131,0.0,0.0,0.0,0.0,0.0,0.0,-2.6945,-2.6945,-2.6197,-2.5742,0.0,0.0,-2.5742,-2.5742,-2.5742,-2.5742,-2.5742,-2.5742,-2.5917,-2.639,-2.5927,-2.5927,-2.639,-2.6754,-2.7125,-2.7683,-2.8412,-2.9039,-2.9407,-2.9863,-3.0496,-3.1223,-3.1689,-3.2426,-3.3081,-3.3081,-3.3081,-3.3081,-3.3081,-3.3081,-3.3081,-3.3081,-3.3081,-3.3081,-3.3081,-3.3081,-3.3031,-3.283,-3.2918,-3.3031,-3.283,-3.2918,-3.3081,-3.3081,-3.3081,-3.3081,-3.3081,-3.3081,-3.3081,-3.3081,-3.3081,-3.3081,-3.3081,-3.3081,-3.3081,-3.3081,-3.3081,-3.3081,-3.3081,-3.3081,-3.3081,-3.3081,-3.3081,-3.3081,-3.3081,-3.3081,-3.3081,-3.3081,-3.3081,-3.3081,-3.3081,-3.1989,-3.1386,-3.1386,-3.0344,-2.9792,-2.9792,-2.9792,-2.9792,-2.9792,-2.9792,-2.9792]},{"header":{"parameterUnit":"m.s-1","parameterCategory":1,"la1":30.6,"la2":29.2853,"lo1":-89.7004,"lo2":-87.6739,"dy":0.0162,"dx":0.0183,"nx":112,"ny":82,"refTime":"2023-08-23T06:00:00:Z","depth":0,"parameterNumber":3,"parameterNumberName":"V-component_of_WINDS"},"data":[0.0,0.0,0.0,0.0,0.0,0.0,0.0,0.0,0.0,0.0,0.0,0.0,0.0,0.0,0.0,0.0,0.0,0.0,0.0,0.0,0.0,0.0,0.0,0.0,0.0,0.0,0.0,0.0,0.0,0.0,0.0,0.0,0.0,0.0,0.0,0.0,0.0,0.0,0.0,0.0,0.0,0.0,0.0,0.0,0.0,0.0,0.0,0.0,0.0,0.0,0.0,0.0,0.0,0.0,0.0,0.0,0.0,0.0,0.0,0.0,0.0,0.0,0.0,0.0,0.0,0.0,0.0,0.0,0.0,0.0,0.0,0.0,0.0,0.0,0.0,0.0,0.0,0.0,0.0,0.0,0.0,0.0,0.0,0.0,0.0,0.0,0.0,0.0,0.0,0.0,0.0,-4.3497,-4.3497,-4.3516,-4.3501,-4.352,-4.314,-4.2388,0.0,0.0,0.0,0.0,0.0,0.0,0.0,0.0,0.0,0.0,0.0,0.0,0.0,0.0,0.0,0.0,0.0,0.0,0.0,0.0,0.0,0.0,0.0,0.0,0.0,0.0,0.0,0.0,0.0,0.0,0.0,0.0,0.0,0.0,0.0,0.0,0.0,0.0,0.0,0.0,0.0,0.0,0.0,0.0,0.0,0.0,0.0,0.0,0.0,0.0,0.0,0.0,0.0,0.0,0.0,0.0,0.0,0.0,0.0,0.0,0.0,0.0,0.0,0.0,0.0,0.0,0.0,0.0,0.0,0.0,0.0,0.0,0.0,0.0,0.0,0.0,0.0,0.0,0.0,0.0,0.0,0.0,0.0,0.0,0.0,0.0,0.0,0.0,0.0,0.0,0.0,0.0,0.0,0.0,0.0,0.0,0.0,0.0,0.0,0.0,0.0,0.0,0.0,0.0,-4.3497,-4.3497,-4.3497,-4.3486,-4.3483,-4.3482,-4.303,-4.1941,0.0,0.0,0.0,0.0,0.0,0.0,0.0,0.0,0.0,0.0,0.0,0.0,0.0,0.0,0.0,0.0,0.0,0.0,0.0,0.0,0.0,0.0,0.0,0.0,0.0,0.0,0.0,0.0,0.0,0.0,0.0,0.0,0.0,0.0,0.0,0.0,0.0,0.0,0.0,0.0,0.0,0.0,0.0,0.0,0.0,0.0,0.0,0.0,0.0,0.0,0.0,0.0,0.0,0.0,0.0,0.0,0.0,0.0,0.0,0.0,0.0,0.0,0.0,0.0,0.0,0.0,0.0,0.0,0.0,0.0,0.0,0.0,0.0,0.0,0.0,0.0,0.0,0.0,0.0,0.0,0.0,0.0,0.0,0.0,0.0,0.0,0.0,0.0,0.0,0.0,0.0,0.0,0.0,0.0,0.0,0.0,0.0,0.0,0.0,0.0,0.0,0.0,0.0,-4.3497,-4.3497,-4.3497,-4.3497,-4.3501,-4.3506,-4.2359,-4.1425,-4.0905,-4.1266,0.0,0.0,0.0,0.0,0.0,0.0,0.0,0.0,0.0,0.0,0.0,0.0,0.0,0.0,0.0,0.0,0.0,0.0,0.0,0.0,0.0,0.0,0.0,0.0,0.0,0.0,0.0,0.0,0.0,0.0,0.0,0.0,0.0,0.0,0.0,0.0,0.0,0.0,0.0,0.0,0.0,0.0,0.0,0.0,0.0,0.0,0.0,0.0,0.0,0.0,0.0,0.0,0.0,0.0,0.0,0.0,0.0,0.0,0.0,0.0,0.0,0.0,0.0,0.0,0.0,0.0,0.0,0.0,0.0,0.0,0.0,0.0,0.0,0.0,0.0,0.0,0.0,0.0,0.0,0.0,0.0,0.0,0.0,0.0,0.0,0.0,0.0,0.0,0.0,0.0,0.0,0.0,0.0,0.0,0.0,0.0,0.0,0.0,0.0,0.0,0.0,0.0,-4.3497,-4.3497,-4.3497,-4.3497,-4.3501,-4.3506,-4.1887,-4.0784,-4.0517,-4.0779,0.0,0.0,0.0,0.0,0.0,0.0,0.0,0.0,0.0,0.0,0.0,0.0,0.0,0.0,0.0,0.0,0.0,0.0,0.0,0.0,0.0,0.0,0.0,0.0,0.0,0.0,0.0,0.0,0.0,0.0,0.0,0.0,0.0,0.0,0.0,0.0,0.0,0.0,0.0,0.0,0.0,0.0,0.0,0.0,0.0,0.0,0.0,0.0,0.0,0.0,0.0,0.0,0.0,0.0,0.0,0.0,0.0,0.0,0.0,0.0,0.0,0.0,0.0,0.0,0.0,0.0,0.0,0.0,0.0,0.0,0.0,0.0,0.0,0.0,0.0,0.0,0.0,0.0,0.0,0.0,0.0,0.0,0.0,0.0,0.0,0.0,0.0,0.0,0.0,0.0,0.0,0.0,0.0,0.0,0.0,0.0,0.0,0.0,0.0,0.0,0.0,0.0,-4.3497,-4.3497,-4.3497,-4.3497,-4.3506,-4.3501,-4.3364,-4.2794,-4.1761,-4.0745,0.0,0.0,0.0,0.0,0.0,0.0,0.0,0.0,0.0,0.0,0.0,0.0,0.0,0.0,0.0,0.0,0.0,0.0,0.0,0.0,0.0,0.0,0.0,0.0,0.0,0.0,0.0,0.0,0.0,0.0,0.0,0.0,0.0,0.0,0.0,0.0,0.0,0.0,0.0,0.0,0.0,0.0,0.0,0.0,0.0,0.0,0.0,0.0,0.0,0.0,0.0,0.0,0.0,0.0,0.0,0.0,0.0,0.0,0.0,0.0,0.0,0.0,0.0,0.0,0.0,0.0,0.0,0.0,0.0,0.0,0.0,0.0,0.0,0.0,0.0,0.0,0.0,0.0,0.0,0.0,0.0,0.0,0.0,0.0,0.0,0.0,0.0,0.0,0.0,0.0,0.0,0.0,0.0,0.0,0.0,0.0,0.0,0.0,0.0,0.0,0.0,0.0,-4.3497,-4.3497,0.0,-4.3497,-4.3503,-4.3486,-4.2196,-4.1197,-4.0756,0.0,0.0,0.0,0.0,0.0,0.0,0.0,0.0,0.0,0.0,0.0,0.0,0.0,0.0,0.0,0.0,0.0,0.0,0.0,0.0,0.0,0.0,0.0,0.0,0.0,0.0,0.0,0.0,0.0,0.0,0.0,0.0,0.0,0.0,0.0,0.0,0.0,0.0,0.0,0.0,0.0,0.0,0.0,0.0,0.0,0.0,0.0,0.0,0.0,0.0,0.0,0.0,0.0,0.0,0.0,0.0,0.0,0.0,0.0,0.0,0.0,0.0,0.0,0.0,0.0,0.0,0.0,0.0,0.0,0.0,0.0,0.0,0.0,0.0,0.0,0.0,0.0,0.0,0.0,0.0,0.0,0.0,0.0,0.0,0.0,0.0,0.0,0.0,0.0,0.0,0.0,0.0,0.0,0.0,0.0,0.0,0.0,0.0,0.0,0.0,0.0,0.0,-4.3497,-4.3497,-4.3497,0.0,-4.3503,-4.3488,-4.3506,-4.1407,-4.0109,-4.0103,0.0,0.0,0.0,0.0,0.0,0.0,0.0,0.0,0.0,0.0,0.0,0.0,0.0,0.0,0.0,0.0,0.0,0.0,0.0,0.0,0.0,0.0,0.0,0.0,0.0,0.0,0.0,0.0,0.0,0.0,0.0,0.0,0.0,0.0,0.0,0.0,0.0,0.0,0.0,0.0,0.0,0.0,0.0,0.0,0.0,0.0,0.0,0.0,0.0,0.0,0.0,0.0,0.0,0.0,0.0,0.0,0.0,0.0,0.0,0.0,0.0,0.0,0.0,0.0,0.0,0.0,0.0,0.0,0.0,0.0,0.0,0.0,0.0,0.0,0.0,0.0,0.0,0.0,0.0,0.0,0.0,0.0,0.0,0.0,0.0,0.0,0.0,0.0,0.0,0.0,0.0,0.0,0.0,0.0,0.0,0.0,0.0,0.0,0.0,0.0,0.0,0.0,-4.3497,-4.3497,-4.3497,-4.3497,-4.3506,-4.348,-4.3483,-4.1391,-4.0113,0.0,0.0,0.0,0.0,0.0,0.0,0.0,0.0,0.0,0.0,0.0,0.0,0.0,0.0,0.0,0.0,0.0,0.0,0.0,0.0,0.0,0.0,0.0,0.0,0.0,0.0,0.0,0.0,0.0,0.0,0.0,0.0,0.0,0.0,0.0,0.0,0.0,0.0,0.0,0.0,0.0,0.0,0.0,0.0,0.0,0.0,0.0,0.0,0.0,0.0,0.0,0.0,0.0,0.0,0.0,0.0,0.0,0.0,0.0,0.0,0.0,0.0,0.0,0.0,0.0,0.0,0.0,0.0,0.0,0.0,0.0,0.0,0.0,0.0,0.0,0.0,0.0,0.0,0.0,0.0,0.0,0.0,0.0,0.0,0.0,0.0,0.0,0.0,0.0,0.0,0.0,0.0,0.0,0.0,0.0,0.0,0.0,0.0,0.0,0.0,0.0,0.0,0.0,-4.3499,-4.3488,-4.3504,-4.3504,-4.3498,-4.2858,-4.1248,-4.0478,-4.01,-4.0113,0.0,0.0,0.0,0.0,0.0,0.0,0.0,0.0,0.0,0.0,0.0,0.0,0.0,0.0,0.0,0.0,0.0,0.0,0.0,0.0,0.0,0.0,0.0,0.0,0.0,0.0,0.0,0.0,0.0,0.0,0.0,0.0,0.0,0.0,0.0,0.0,0.0,0.0,0.0,0.0,0.0,0.0,0.0,0.0,0.0,0.0,0.0,0.0,0.0,0.0,0.0,0.0,0.0,0.0,0.0,0.0,0.0,0.0,0.0,0.0,0.0,0.0,0.0,0.0,0.0,0.0,0.0,0.0,0.0,0.0,0.0,0.0,0.0,0.0,0.0,0.0,0.0,0.0,0.0,0.0,0.0,0.0,0.0,0.0,0.0,0.0,0.0,0.0,0.0,0.0,0.0,0.0,0.0,0.0,0.0,0.0,0.0,0.0,0.0,0.0,0.0,0.0,-4.3506,-4.3488,-4.316,-4.2231,-4.2159,-4.1591,-4.0225,-4.0084,-4.0103,-4.0103,0.0,0.0,0.0,0.0,0.0,0.0,0.0,0.0,0.0,0.0,0.0,0.0,0.0,0.0,0.0,0.0,0.0,0.0,0.0,0.0,0.0,0.0,0.0,0.0,0.0,0.0,0.0,0.0,0.0,0.0,0.0,0.0,0.0,0.0,0.0,0.0,0.0,0.0,0.0,0.0,0.0,0.0,0.0,0.0,0.0,0.0,0.0,0.0,0.0,0.0,0.0,0.0,0.0,0.0,0.0,0.0,0.0,0.0,0.0,0.0,0.0,0.0,0.0,0.0,0.0,0.0,0.0,0.0,0.0,0.0,0.0,0.0,0.0,0.0,0.0,0.0,0.0,0.0,0.0,0.0,0.0,0.0,0.0,0.0,0.0,0.0,0.0,0.0,0.0,0.0,0.0,0.0,0.0,0.0,0.0,0.0,0.0,0.0,0.0,0.0,0.0,0.0,-4.348,-4.3506,-4.2664,-4.049,-4.0259,-4.021,-4.0131,-4.0083,-4.007,-4.007,0.0,0.0,0.0,0.0,0.0,0.0,0.0,0.0,0.0,0.0,0.0,0.0,0.0,0.0,0.0,0.0,0.0,0.0,0.0,0.0,0.0,0.0,0.0,0.0,0.0,0.0,0.0,0.0,0.0,0.0,0.0,0.0,0.0,0.0,0.0,0.0,0.0,0.0,0.0,0.0,0.0,0.0,0.0,0.0,0.0,0.0,0.0,0.0,0.0,0.0,0.0,0.0,0.0,0.0,0.0,0.0,0.0,0.0,0.0,0.0,-4.1026,0.0,0.0,0.0,0.0,0.0,0.0,0.0,0.0,0.0,0.0,0.0,0.0,0.0,0.0,0.0,0.0,0.0,0.0,0.0,0.0,0.0,0.0,0.0,0.0,0.0,0.0,0.0,0.0,0.0,0.0,0.0,0.0,0.0,0.0,0.0,0.0,0.0,0.0,0.0,0.0,0.0,-4.3351,-4.35,-4.2967,-4.1586,-4.1464,-4.1088,-4.0178,-4.0102,-4.007,-4.007,-3.9952,0.0,0.0,0.0,0.0,0.0,0.0,0.0,0.0,0.0,0.0,0.0,0.0,0.0,0.0,0.0,0.0,0.0,0.0,0.0,0.0,0.0,0.0,0.0,0.0,0.0,0.0,0.0,0.0,0.0,0.0,0.0,0.0,0.0,0.0,0.0,0.0,0.0,0.0,0.0,0.0,0.0,0.0,0.0,0.0,0.0,0.0,0.0,0.0,0.0,0.0,0.0,0.0,0.0,0.0,0.0,0.0,0.0,0.0,0.0,0.0,-4.1556,0.0,0.0,0.0,0.0,0.0,0.0,0.0,0.0,0.0,0.0,0.0,0.0,0.0,0.0,0.0,0.0,0.0,0.0,0.0,0.0,0.0,0.0,0.0,0.0,0.0,0.0,0.0,0.0,0.0,0.0,0.0,0.0,0.0,0.0,0.0,0.0,0.0,0.0,0.0,0.0,-4.2228,-4.2781,-4.2843,-4.2186,-4.1743,-4.1133,-4.0192,-4.0085,-4.007,-4.007,-3.9731,0.0,0.0,0.0,0.0,0.0,0.0,0.0,0.0,0.0,0.0,0.0,0.0,0.0,0.0,0.0,0.0,0.0,0.0,0.0,0.0,0.0,0.0,0.0,0.0,0.0,0.0,0.0,0.0,0.0,0.0,0.0,0.0,0.0,0.0,0.0,0.0,0.0,0.0,0.0,0.0,0.0,0.0,0.0,0.0,0.0,0.0,0.0,0.0,0.0,0.0,0.0,0.0,0.0,-4.2246,-4.2637,-4.2656,-4.3303,-4.3669,-4.3744,-4.2892,-4.275,-4.3124,0.0,0.0,0.0,0.0,0.0,0.0,0.0,0.0,0.0,0.0,0.0,0.0,0.0,0.0,0.0,0.0,0.0,0.0,0.0,0.0,0.0,0.0,0.0,0.0,0.0,-4.3497,-4.3497,0.0,0.0,0.0,0.0,0.0,0.0,0.0,0.0,0.0,0.0,0.0,0.0,-4.1358,-4.2062,-4.2588,-4.231,-4.1593,-4.0856,-4.0173,-4.0082,-4.007,-4.007,-3.9489,-3.9437,0.0,0.0,0.0,0.0,0.0,0.0,0.0,0.0,0.0,0.0,0.0,0.0,0.0,0.0,0.0,0.0,0.0,0.0,0.0,0.0,0.0,0.0,0.0,0.0,0.0,0.0,0.0,0.0,0.0,0.0,0.0,0.0,-3.7661,-3.7661,0.0,0.0,0.0,0.0,0.0,0.0,0.0,0.0,0.0,0.0,0.0,0.0,0.0,-4.1067,-4.116,-4.1874,-4.2246,-4.2246,-4.3125,-4.3535,-4.3535,-4.3574,-4.3938,-4.4549,-4.4292,0.0,-4.3184,-4.3124,0.0,0.0,0.0,0.0,0.0,0.0,0.0,0.0,0.0,0.0,0.0,0.0,0.0,0.0,0.0,0.0,0.0,0.0,0.0,0.0,0.0,0.0,-4.341,-4.3479,-4.3497,-4.3497,0.0,-4.3497,-4.3497,-4.3497,-4.3069,0.0,0.0,0.0,0.0,0.0,0.0,0.0,-4.248,-4.2616,-4.2498,-4.1948,-4.1303,-4.0685,-4.0169,-4.0087,-4.007,-4.007,-4.002,-4.002,-4.0087,-3.9209,0.0,0.0,0.0,0.0,0.0,0.0,0.0,0.0,0.0,0.0,0.0,0.0,0.0,0.0,0.0,0.0,0.0,0.0,0.0,0.0,0.0,0.0,0.0,0.0,0.0,0.0,0.0,0.0,0.0,-3.7757,-3.8007,-3.8007,-3.8007,-3.818,0.0,0.0,0.0,0.0,0.0,0.0,0.0,0.0,0.0,-4.111,-4.1546,-4.1822,-4.1875,-4.2715,-4.3125,-4.3144,-4.4004,-4.4387,-4.4317,-4.4715,-4.5056,-4.5316,-4.5182,-4.4913,-4.4547,-4.4509,-4.44,-4.4211,0.0,0.0,0.0,0.0,-4.3489,-4.3497,-4.3497,-4.3497,0.0,-4.2864,0.0,0.0,0.0,0.0,0.0,0.0,0.0,0.0,0.0,0.0,0.0,-4.3497,-4.3497,-4.3497,-4.3497,-4.3497,-4.3497,0.0,-4.3069,-4.2577,-4.2244,0.0,0.0,0.0,0.0,0.0,-4.1303,-4.1508,-4.1464,-4.0908,-4.0594,-4.0385,-4.0121,-4.007,-4.007,-4.007,-4.007,-4.007,-4.007,-3.9315,-3.9086,0.0,0.0,0.0,0.0,0.0,0.0,0.0,0.0,0.0,0.0,0.0,0.0,0.0,0.0,0.0,0.0,0.0,0.0,0.0,0.0,0.0,0.0,0.0,0.0,0.0,0.0,0.0,0.0,-3.8507,-3.8642,-3.8642,-3.8661,-3.895,0.0,0.0,0.0,0.0,0.0,0.0,-4.1036,-4.1249,-4.1404,-4.1504,-4.2305,-4.2734,-4.2734,-4.3594,-4.4023,-4.4043,-4.4881,-4.522,-4.5143,-4.5654,-4.5841,-4.5796,-4.5643,-4.5586,-4.5586,-4.5586,-4.5438,-4.5222,-4.5118,-4.4713,-4.4146,-4.4028,-4.3772,-4.3497,-4.3497,-4.3497,-4.3444,-4.3014,0.0,-4.2519,-4.1621,0.0,0.0,0.0,0.0,-4.2732,-4.2864,-4.3214,-4.3497,-4.3497,-4.3497,-4.3497,-4.3497,-4.3497,-4.3497,0.0,-4.3178,-4.2675,-4.1937,0.0,0.0,0.0,0.0,-4.1552,-4.0861,-4.0827,-4.0733,-4.0319,-4.0154,-4.007,-4.007,-4.007,-4.007,-4.007,-4.007,-4.007,-4.007,-3.9542,-3.9209,-3.9209,0.0,0.0,0.0,0.0,0.0,0.0,0.0,0.0,0.0,0.0,0.0,0.0,0.0,0.0,0.0,0.0,0.0,0.0,0.0,0.0,0.0,0.0,0.0,0.0,0.0,0.0,0.0,0.0,0.0,-4.0354,-4.0504,0.0,0.0,0.0,0.0,-4.0966,-4.0997,-4.1039,-4.1187,-4.1912,-4.2323,-4.2344,-4.3183,-4.3633,-4.3633,-4.4492,-4.4922,-4.4941,-4.5681,-4.6039,-4.6026,-4.5871,-4.5794,-4.5796,-4.5643,-4.5586,-4.5586,-4.5586,-4.5586,-4.5531,-4.5222,-4.4896,-4.4527,-4.4146,-4.3772,-4.3497,-4.3497,-4.3497,-4.3497,-4.3479,-4.3142,-4.2711,-4.2616,-4.2203,0.0,0.0,-4.2673,-4.2826,-4.3339,-4.3479,-4.3497,-4.3497,-4.3497,-4.3497,-4.3497,-4.3497,-4.3497,0.0,-4.3479,-4.3105,-4.2003,0.0,-4.244,-4.181,-4.175,-4.1979,-4.248,-4.1578,-4.0903,-4.0856,-4.0417,-4.007,-4.007,-4.007,-4.007,-4.007,-4.007,-4.007,-4.007,-4.007,-4.002,-4.002,-3.9262,0.0,0.0,0.0,0.0,0.0,0.0,0.0,0.0,0.0,0.0,0.0,0.0,0.0,0.0,0.0,0.0,0.0,0.0,0.0,0.0,0.0,0.0,0.0,0.0,0.0,0.0,0.0,0.0,-4.0489,-4.0543,0.0,0.0,-4.0713,-4.0828,-4.0867,-4.1498,-4.1913,-4.1972,-4.2773,-4.3242,-4.3242,-4.4082,-4.4531,-4.4531,-4.5317,-4.5712,-4.5712,-4.5883,-4.5949,-4.5911,-4.5834,-4.5757,-4.568,-4.5605,-4.5476,-4.5282,-4.5282,-4.5282,-4.5243,-4.4919,-4.4553,-4.4204,-4.4058,-4.3772,-4.3497,-4.3497,-4.3497,-4.3497,-4.3497,-4.3142,-4.275,-4.3105,-4.2846,-4.2519,-4.305,-4.3214,-4.325,-4.3444,-4.3497,-4.3497,-4.3497,-4.3497,-4.3497,-4.3497,-4.3214,-4.3105,-4.3444,-4.3497,-4.3014,-4.1473,-4.2021,-4.2262,-4.0908,-4.1013,-4.1178,-4.103,-4.0642,-4.0368,-4.0368,-4.0204,-4.007,-4.007,-4.007,-4.007,-4.007,-4.007,-4.007,-4.007,-4.007,-4.007,-4.007,-3.9833,-3.9156,0.0,0.0,0.0,0.0,0.0,0.0,0.0,0.0,0.0,0.0,0.0,0.0,0.0,0.0,0.0,0.0,0.0,0.0,0.0,0.0,0.0,0.0,0.0,0.0,0.0,0.0,-4.0389,-4.0489,-4.0543,-4.0581,-4.0581,-4.0984,-4.1247,-4.1232,-4.2204,-4.2793,-4.2793,-4.3652,-4.4112,-4.4064,-4.4916,-4.5353,-4.5291,-4.5792,-4.604,-4.6026,-4.5905,-4.5847,-4.5796,-4.5757,-4.568,-4.5586,-4.5586,-4.5457,-4.5243,-4.5011,-4.4919,-4.4896,-4.4553,-4.4233,-4.3986,-4.3881,-4.3693,-4.3497,-4.3497,-4.3497,-4.3497,-4.3497,-4.325,-4.3014,-4.341,-4.325,-4.305,-4.341,-4.3497,-4.3497,-4.3497,-4.3375,-4.3286,-4.3444,-4.3375,-4.3214,-4.3214,-4.2939,-4.2675,-4.2639,-4.281,-4.2544,-4.1385,-4.1853,-4.1955,-4.0594,-4.0655,-4.078,-4.0417,-4.0204,-4.007,-4.007,-4.007,-4.007,-4.007,-4.007,-4.007,-4.007,-4.007,-4.007,-4.007,-4.007,-3.9952,-3.9731,-3.9731,-3.9209,-3.8189,0.0,0.0,0.0,0.0,0.0,0.0,0.0,0.0,0.0,0.0,0.0,0.0,0.0,0.0,0.0,0.0,0.0,0.0,0.0,0.0,0.0,0.0,0.0,-4.0042,-4.0101,-4.0214,-4.0511,-4.0658,-4.0754,-4.0773,-4.1588,-4.2131,-4.2121,-4.3072,-4.3632,-4.3633,-4.4511,-4.4967,-4.485,-4.5661,-4.6027,-4.5909,-4.5909,-4.5891,-4.5911,-4.5834,-4.5796,-4.5796,-4.5643,-4.5586,-4.5586,-4.5586,-4.5586,-4.5513,-4.4853,-4.4599,-4.4527,-4.4136,-4.3967,-4.3955,-4.3612,-4.3497,-4.3497,-4.3497,-4.3497,-4.3497,-4.3497,-4.3497,-4.3497,-4.3497,-4.3497,-4.3497,-4.3497,-4.3497,-4.3497,-4.3479,-4.3105,-4.2864,-4.3321,-4.305,-4.2693,-4.2673,-4.2673,-4.2302,-4.1133,-4.1358,-4.1768,-4.1768,-4.175,-4.1578,-4.0949,-4.0874,0.0,-4.0874,-4.0417,-4.007,-4.007,-4.007,-4.007,-4.007,-4.007,-4.007,-4.007,-4.007,-4.007,-4.007,-4.007,-3.9731,-3.8962,-3.8908,-3.8908,-3.8908,0.0,0.0,0.0,0.0,0.0,0.0,0.0,0.0,0.0,0.0,0.0,0.0,0.0,0.0,0.0,0.0,0.0,0.0,0.0,0.0,0.0,0.0,-4.0109,-4.0118,-4.0101,-4.0424,-4.1341,-4.1489,-4.1758,-4.2374,-4.2717,-4.2903,-4.2898,-4.3866,-4.445,-4.439,-4.5297,-4.5731,-4.5595,-4.5843,-4.5924,-4.5916,-4.5858,-4.5835,-4.5834,-4.5719,-4.5643,-4.5643,-4.5605,-4.5586,-4.5586,-4.5342,-4.5096,-4.483,-4.4373,-4.4016,-4.3791,-4.3679,-4.3646,-4.3631,-4.3548,-4.3497,-4.3497,-4.3497,-4.3497,-4.3497,-4.3497,-4.3497,-4.3497,-4.3497,-4.3497,-4.3497,-4.3497,-4.3497,-4.341,-4.3014,-4.3105,-4.3124,-4.2444,-4.2501,-4.2577,-4.2121,-4.1707,-4.1446,-4.1534,-4.103,-4.0563,-4.0563,-4.0874,-4.0967,-4.0417,-4.0336,0.0,-4.0336,-4.0204,-4.007,-4.007,-4.007,-4.007,-4.007,-4.007,-4.007,-4.007,-4.007,-4.007,-4.007,-4.007,-4.002,-3.9782,-3.9209,-3.8908,0.0,0.0,0.0,0.0,0.0,0.0,0.0,0.0,0.0,0.0,0.0,0.0,0.0,0.0,0.0,0.0,0.0,0.0,0.0,0.0,0.0,0.0,-4.0529,-4.0663,-4.0707,-4.0836,-4.1281,-4.2244,-4.2335,-4.2547,-4.3047,-4.3448,-4.366,-4.3662,-4.4643,-4.521,-4.5161,-4.5699,-4.597,-4.5854,-4.587,-4.5834,-4.5776,-4.5738,-4.5719,-4.5719,-4.5624,-4.5586,-4.5605,-4.5438,-4.54,0.0,-4.5052,-4.4776,-4.4553,-4.4165,-4.3881,0.0,0.0,0.0,0.0,0.0,-4.3497,-4.3497,-4.3497,-4.3497,-4.3497,-4.3497,-4.3497,-4.3497,-4.3497,-4.3321,-4.3178,-4.3178,-4.3178,-4.305,-4.2462,-4.2523,-4.26,-4.1979,-4.1895,-4.1853,-4.149,-4.1133,-4.0949,-4.1059,-4.0546,0.0,-4.007,-4.0368,-4.0449,-4.0171,-4.007,-4.007,-4.007,-4.007,-4.007,-4.007,-4.007,-4.007,-4.007,-4.007,0.0,0.0,0.0,-4.007,-4.007,-3.9782,0.0,0.0,0.0,-3.9086,-3.9368,0.0,0.0,0.0,-3.9332,-3.9542,0.0,0.0,0.0,0.0,0.0,0.0,0.0,0.0,0.0,0.0,0.0,0.0,0.0,0.0,0.0,0.0,-4.1258,-4.1369,-4.1805,-4.2133,-4.2522,-4.3061,-4.3169,-4.3225,-4.3321,-4.4011,-4.4451,-4.4451,-4.5295,-4.578,-4.5783,0.0,0.0,0.0,0.0,-4.5719,-4.5586,-4.5586,-4.5586,-4.5531,-4.5586,-4.5568,-4.5495,-4.5222,-4.5074,-4.5011,-4.4682,-4.4527,-4.4501,-4.4106,-4.3955,-4.3893,-4.3631,-4.3497,-4.3497,-4.3497,-4.3497,-4.3497,-4.3497,0.0,0.0,-4.3497,-4.3497,-4.3497,-4.3497,-4.3178,-4.2788,-4.2788,-4.275,-4.2577,-4.1937,-4.181,-4.1768,-4.1639,-4.1268,-4.0856,-4.081,-4.0827,-4.0655,-4.0204,-4.007,-4.007,-4.007,-4.007,-4.007,-4.007,-4.007,-4.007,-4.007,-4.007,-4.007,-4.007,0.0,0.0,-4.007,-4.007,-4.007,-4.007,-4.007,-4.007,-4.007,-3.942,-3.9368,-4.007,-3.9368,-3.9385,-4.007,-4.007,-4.007,-4.007,-3.9368,-3.9437,0.0,0.0,0.0,0.0,0.0,0.0,0.0,0.0,0.0,0.0,0.0,0.0,0.0,0.0,0.0,-4.1803,-4.2066,-4.2433,-4.3397,-4.3591,-4.3531,-4.3288,-4.3485,-4.3939,-4.4647,-4.5112,-4.5336,-4.5336,-4.5642,-4.5755,-4.5632,-4.5736,0.0,-4.5624,-4.5624,-4.5624,-4.5586,-4.5586,-4.5457,-4.5201,0.0,0.0,-4.4781,-4.5007,-4.4943,-4.4676,-4.429,-4.4117,-4.4106,-4.3758,-4.3597,-4.3597,-4.3513,-4.3497,-4.3497,-4.3497,-4.3497,-4.3497,-4.3497,-4.3497,-4.3497,-4.3497,-4.3497,-4.3497,-4.3497,-4.341,0.0,-4.3339,-4.3014,-4.2577,-4.1937,-4.181,-4.1595,-4.0642,-4.0672,-4.078,-4.0319,-4.0237,-4.0204,-4.0121,-4.007,-4.007,-4.007,-4.007,-4.007,-4.007,-4.007,-4.007,-4.007,-4.007,-4.007,-4.007,-4.007,-4.007,-4.007,-4.007,-4.007,-4.007,-4.007,-4.007,-4.007,-3.9952,-3.9952,-4.007,-3.9952,-3.9952,-4.007,-4.007,-4.007,-4.0087,-3.9952,-3.9952,0.0,0.0,0.0,0.0,0.0,0.0,0.0,0.0,0.0,0.0,0.0,-3.876,0.0,0.0,-4.0599,-4.1875,-4.2285,-4.2704,-4.3279,-4.359,-4.3794,-4.3917,-4.4246,-4.462,-4.5058,-4.54,-4.5586,-4.5586,-4.5643,-4.568,-4.5586,-4.5643,-4.568,-4.5586,-4.5586,-4.5513,-4.5342,-4.5342,-4.5161,-4.4849,-4.5011,-4.4919,-4.458,-4.4561,-4.4455,-4.4261,-4.3912,-4.3758,-4.3758,-4.3563,-4.3497,-4.3497,-4.3497,-4.3497,-4.3497,-4.3497,-4.3497,-4.3497,-4.3497,-4.3497,-4.3497,-4.3497,-4.3497,-4.3497,-4.3497,-4.3286,-4.305,-4.2734,-4.2444,-4.2038,-4.1168,-4.115,-4.115,-4.0286,-4.0286,-4.0417,-4.0171,-4.007,-4.007,-4.007,-4.007,-4.007,-4.007,-4.0392,-4.051,-4.0138,-4.007,-4.007,-4.007,-4.007,-4.007,-4.007,-4.007,-4.007,-4.007,-4.007,-4.007,-4.007,-4.007,-4.007,-4.007,-4.007,-4.007,-4.007,-4.007,-4.007,-4.007,-4.007,-4.007,-4.007,-4.007,-4.007,0.0,0.0,0.0,0.0,0.0,0.0,0.0,0.0,-3.6938,-3.8143,-3.838,-3.8941,-4.0595,-4.0903,-4.1087,-4.1707,-4.2302,-4.2711,-4.2711,-4.3178,-4.3712,-4.4308,-4.4682,-4.4877,-4.4877,-4.5203,-4.5419,-4.5419,-4.5419,-4.5419,-4.5419,-4.5476,-4.5457,-4.5419,-4.5476,-4.5342,-4.5007,-4.4988,-4.4849,-4.4474,-4.4553,-4.4527,-4.4364,-4.4136,-4.3955,-4.3881,-4.3631,-4.3497,-4.3497,-4.3497,-4.3497,-4.3497,-4.3497,-4.3497,-4.3497,-4.3497,-4.3497,-4.3497,-4.3497,-4.3497,-4.3497,-4.3497,-4.3497,-4.3479,-4.3375,-4.305,-4.2559,-4.1979,-4.1725,-4.1402,-4.0497,-4.0497,-4.0655,-4.0204,-4.007,-4.007,-4.007,-4.007,-4.0121,-4.0273,-4.029,-4.0341,-4.0476,-4.1018,-4.1153,-4.0409,-4.029,-4.029,-4.029,-4.0172,-4.007,-4.007,-4.007,-4.007,-4.007,-4.007,-4.007,-4.007,-4.007,-4.007,-4.007,-4.007,-4.007,-4.007,-4.007,-4.007,-4.007,-4.007,-4.007,-4.007,-4.007,-4.007,-3.8133,-3.6935,0.0,-3.6554,-3.7216,-3.785,0.0,0.0,-3.9682,-3.9834,-3.9851,-4.0085,-4.0763,-4.0903,-4.1087,-4.1707,-4.2302,-4.2711,-4.2711,-4.3178,-4.3513,-4.3597,-4.3912,-4.4117,-4.4117,-4.4482,-4.4707,-4.4707,-4.4707,-4.4707,-4.4707,-4.4988,-4.5011,-4.4707,-4.4988,-4.4988,-4.4657,-4.4676,-4.4474,-4.4058,-4.4447,-4.427,-4.3631,-4.3881,-4.3836,-4.3529,-4.3513,-4.3497,-4.3497,-4.3497,-4.3497,-4.3497,-4.3497,-4.3497,-4.3497,-4.3497,-4.3497,-4.3497,-4.3497,-4.3497,-4.3497,-4.3497,-4.3497,-4.341,-4.2939,-4.275,-4.2559,-4.1979,-4.1402,-4.0949,-4.0856,-4.0497,-4.0154,-4.0121,-4.007,-4.007,-4.007,-4.007,-4.0273,-4.095,-4.1085,-4.1288,-4.1931,-4.2117,-4.1914,-4.1187,-4.1085,-4.1085,-4.1085,-4.0493,-4.007,-4.007,-4.007,-4.007,-4.007,-4.007,-4.007,-4.007,-4.007,-4.007,-4.007,-4.007,-4.007,-4.007,-4.007,-4.007,-4.007,-4.007,-4.007,-4.007,-4.007,-4.007,-3.7863,0.0,0.0,0.0,-3.6523,-3.6768,-3.7962,-3.8541,-3.8995,-3.9901,-4.007,-4.0171,-4.0417,-4.0449,-4.0497,0.0,-4.1286,-4.1664,-4.1664,-4.2144,-4.2657,-4.2976,-4.3159,-4.3453,-4.3937,-4.4346,-4.458,-4.458,-4.458,-4.458,-4.458,-4.4732,-4.4732,-4.4606,-4.4751,-4.4631,-4.4261,-4.4233,-4.4076,-4.3693,-4.3868,-4.3791,-4.3479,-4.3646,-4.3612,-4.3497,-4.3497,-4.3497,-4.3497,-4.3497,-4.3497,-4.3534,-4.4011,-4.4195,-4.414,-4.3663,-4.3497,-4.3497,-4.3497,-4.3497,-4.3497,-4.3497,-4.3497,-4.3444,-4.325,-4.2939,-4.2559,-4.1979,-4.1358,-4.0827,-4.0546,-4.0286,-4.007,-4.007,-4.007,-4.0206,-4.0646,-4.073,-4.095,-4.1694,-4.183,-4.1931,-4.2236,-4.2658,-4.2844,-4.254,-4.2117,-4.1677,-4.1271,-4.0933,-4.0561,-4.0121,-4.007,-4.007,-4.007,-4.007,-4.007,-4.007,-4.007,-4.007,-4.007,-4.007,-4.007,-4.007,-4.007,-4.007,-4.007,-4.007,-4.007,-4.007,-4.007,-4.007,-3.7235,0.0,0.0,-3.6165,-3.6054,-3.607,-3.7219,-3.7632,-3.8149,-3.9506,-3.9782,-3.9833,-4.007,-4.007,-4.007,-4.007,-4.0528,-4.0903,-4.0903,-4.1402,-4.2021,-4.2616,-4.2559,-4.2754,-4.3535,-4.4028,-4.4299,-4.4299,-4.4299,-4.4299,-4.4299,-4.4392,-4.4392,-4.4308,-4.4392,-4.4252,-4.3881,-4.3849,-4.3758,-4.3497,-4.3497,-4.3497,-4.3497,-4.3497,-4.3497,-4.3497,-4.3497,-4.3626,-4.3828,-4.365,-4.3832,-4.4213,-4.4638,-4.4784,-4.4711,-4.4127,-4.4034,-4.4158,-4.4158,-4.4158,-4.4158,-4.4158,-4.4069,-4.3889,-4.3724,-4.3286,-4.2697,-4.2096,-4.1638,-4.1194,-4.0815,-4.0696,-4.0696,-4.0696,-4.0696,-4.0832,-4.139,-4.1508,-4.1728,-4.2455,-4.2591,-4.2675,-4.2895,-4.3386,-4.3741,-4.3741,-4.3284,-4.2658,-4.1914,-4.1457,-4.0916,-4.0155,-4.007,-4.007,-4.007,-4.007,-4.007,-4.007,-4.007,-4.007,-4.007,-4.007,-4.007,-4.007,-4.007,-4.007,-4.007,-4.007,-4.007,-4.007,-4.007,-4.007,-3.5782,0.0,-3.5504,-3.5504,-3.6054,-3.6615,-3.6615,-3.7219,-3.8035,-3.8799,-3.8908,-3.9193,-3.9952,-4.007,-4.007,-4.007,-4.0528,-4.0903,-4.0903,-4.1402,-4.2021,-4.2616,-4.2162,-4.208,0.0,-4.3196,-4.3548,-4.3548,-4.3548,-4.3548,-4.3548,-4.3818,-4.3881,-4.3548,-4.3849,-4.3849,-4.3513,-4.3513,-4.3513,-4.3497,-4.3497,-4.3497,-4.3497,-4.3497,-4.3497,-4.3497,-4.3497,-4.3938,-4.4636,-4.4025,-4.4613,-4.5773,-4.5204,-4.4985,-4.4985,-4.4967,-4.5342,-4.5828,-4.5828,-4.5828,-4.5828,-4.5828,-4.5437,-4.4867,-4.4262,-4.3647,-4.3074,-4.2448,-4.2272,-4.2272,-4.2219,-4.2219,-4.2219,-4.2219,-4.2219,-4.2236,-4.2252,-4.2252,-4.2472,-4.3234,-4.3386,-4.3623,-4.4384,-4.4536,-4.4536,-4.4536,-4.4519,-4.4231,-4.3453,-4.2083,-4.0916,-4.0155,-4.007,-4.007,-4.007,-4.007,-4.007,-4.007,-4.007,-4.007,-4.007,-4.007,-4.007,-4.007,-4.007,-4.007,-4.007,-4.007,-4.007,-4.007,-4.007,-4.007,-3.6165,0.0,-3.5619,-3.6117,-3.6054,-3.6006,-3.6492,-3.6783,-3.7203,-3.8019,-3.8149,-3.8262,-3.8541,-3.8978,-3.9315,-3.9315,-3.9885,-4.0368,-4.0368,-4.0546,-4.0891,-4.1446,-4.1313,0.0,0.0,0.0,0.0,-4.2976,-4.3286,-4.3497,-4.3497,-4.3597,-4.3631,-4.3479,-4.3631,-4.3612,-4.3497,-4.3497,-4.3497,-4.3497,-4.3142,-4.2976,-4.2976,-4.2976,-4.3041,-4.3117,-4.3529,-4.3884,-4.4217,-4.4046,-4.4189,-4.4689,-4.4991,-4.5143,-4.5214,-4.573,-4.6061,-4.6093,-4.5011,-4.4635,-4.4635,-4.4635,-4.4507,-4.4289,-4.4112,-4.3623,-4.3143,-4.2961,-4.262,-4.2286,-4.2286,-4.2286,-4.2286,-4.2286,-4.2286,-4.2422,-4.2929,-4.3031,-4.3267,-4.4045,-4.4198,-4.4265,-4.4536,-4.4587,-4.4587,-4.4587,-4.4147,-4.3538,-4.2777,-4.1813,-4.0916,-4.0155,-4.007,-4.007,-4.007,-4.007,-4.007,-4.007,-4.007,-4.007,-4.007,-4.007,-4.007,-4.007,-4.007,-4.007,-4.007,-4.007,-4.007,-4.007,-4.007,-4.007,-3.6054,-3.5831,-3.5619,-3.6117,-3.5831,-3.5619,-3.6117,-3.6228,-3.6399,-3.7219,-3.7397,-3.7456,-3.7764,-3.8206,-3.8525,-3.8525,-3.8924,-3.9385,-3.961,-3.9662,-3.9986,-4.081,-4.0733,0.0,0.0,0.0,0.0,-4.2655,-4.2828,-4.2995,-4.3214,-4.3214,-4.3286,-4.3479,-4.3497,-4.3497,-4.3497,-4.3497,-4.341,-4.3214,-4.2864,-4.2721,-4.2754,-4.2754,-4.2941,-4.3306,-4.369,-4.4074,-4.4428,-4.4214,-4.4419,-4.4905,-4.5211,-4.5308,-4.5361,-4.587,-4.5915,-4.5693,-4.5064,-4.4852,-4.4852,-4.4852,-4.4712,-4.4541,-4.4541,-4.4138,-4.37,-4.37,-4.3403,-4.3098,-4.3098,-4.3098,-4.3098,-4.3098,-4.3098,-4.3234,-4.3724,-4.3826,-4.3978,-4.4485,-4.4587,-4.4587,-4.4587,-4.4587,-4.4587,-4.4587,-4.4147,-4.3453,-4.2422,-4.188,-4.1204,-4.0189,-4.007,-4.007,-4.007,-4.007,-4.007,-4.007,-4.007,-4.007,-4.007,-4.007,-4.007,-4.007,-4.007,-4.007,-4.007,-4.007,-4.007,-4.007,-4.007,-4.007,-3.5504,-3.5504,-3.5504,-3.5504,-3.5504,-3.5504,-3.5504,-3.5504,-3.5733,-3.6384,-3.6554,-3.6798,0.0,0.0,-3.7822,-3.7822,-3.7879,-3.8149,-3.8854,-3.8962,-3.9406,0.0,0.0,0.0,0.0,0.0,0.0,-4.2519,0.0,-4.2038,-4.2616,-4.2655,-4.2902,-4.3444,-4.3444,-4.3444,-4.3444,-4.3444,-4.3178,-4.2711,-4.267,-4.2749,-4.2856,-4.2891,-4.3288,-4.3983,-4.3983,-4.447,-4.5129,-4.457,-4.5087,-4.624,-4.5699,-4.5459,-4.5459,-4.5459,-4.5089,-4.4759,-4.5915,-4.6336,-4.6336,-4.6336,-4.5915,-4.5459,-4.5459,-4.5035,-4.4587,-4.4587,-4.4587,-4.4587,-4.4587,-4.4587,-4.4587,-4.4587,-4.4587,-4.4587,-4.4587,-4.4587,-4.4587,-4.4587,-4.4587,-4.4587,-4.4587,-4.4587,-4.4587,-4.4587,-4.4587,-4.4028,-4.2489,-4.2286,-4.1728,-4.024,-4.007,-4.007,-4.007,-4.007,-4.007,-4.007,-4.007,-4.007,-4.007,-4.007,-4.007,-4.007,-4.007,-4.007,-4.007,-4.007,-4.007,-4.007,-4.007,-4.007,-3.5504,-3.5504,-3.5504,-3.5504,-3.5504,-3.5504,-3.5504,-3.5504,-3.5554,-3.5718,-3.5782,-3.5846,0.0,0.0,0.0,-3.7822,-3.8761,0.0,-3.9782,-3.9782,0.0,0.0,0.0,-4.0336,-4.0874,-4.0528,0.0,0.0,-4.1621,-4.1853,-4.2021,-4.2021,-4.2284,-4.2902,-4.2462,-4.2444,-4.2902,-4.2444,-4.2364,-4.2711,-4.2404,-4.2282,-4.2305,-4.2862,-4.3296,-4.3597,-4.404,-4.4422,-4.4761,-4.4579,-4.4736,-4.5035,-4.4906,-4.4814,-4.4814,-4.4814,-4.472,-4.4626,-4.4944,-4.5035,-4.5035,-4.5035,-4.4944,-4.4814,-4.4814,-4.472,-4.4587,-4.4587,-4.4587,-4.4587,-4.4587,-4.4587,-4.4587,-4.4587,-4.4587,-4.4587,-4.4587,-4.4587,-4.4587,-4.4587,-4.4587,-4.4587,-4.4587,-4.4587,-4.4587,-4.4587,-4.4587,-4.4028,-4.2489,-4.2286,-4.1728,-4.024,-4.007,-4.007,-4.007,-4.007,-4.007,-4.007,-4.007,-4.007,-4.007,-4.007,-4.007,-4.007,-4.007,-4.007,-4.007,-4.007,-4.007,-4.007,-4.007,-4.007,-3.5504,-3.5504,-3.5504,-3.5504,-3.5504,-3.5504,-3.5504,-3.5504,-3.5504,-3.5504,-3.5504,0.0,0.0,0.0,0.0,0.0,0.0,0.0,-3.9049,-3.9385,-3.9714,0.0,-4.007,0.0,-4.0546,-4.0286,-4.0204,0.0,-4.0844,-4.115,-4.1402,-4.1402,-4.1664,-4.2302,-4.1979,-4.1979,-4.2302,-4.2274,-4.2324,-4.2463,-4.2521,-4.2612,-4.2655,-4.3083,-4.3541,-4.3927,0.0,-4.4477,-4.4587,-4.4587,-4.4587,-4.4587,-4.4587,-4.4587,-4.4587,-4.4587,-4.4587,-4.4587,-4.4587,-4.4587,-4.4587,-4.4587,-4.4587,-4.4587,-4.4587,-4.4587,-4.4587,-4.4587,-4.4587,-4.4587,-4.4587,-4.4587,-4.4587,-4.4587,-4.4587,-4.4587,-4.4587,-4.4587,-4.4587,-4.4587,-4.4587,-4.4587,-4.4587,-4.4587,-4.4587,-4.4587,-4.4587,-4.4028,-4.2489,-4.2286,-4.1728,-4.024,-4.007,-4.007,-4.007,-4.007,-4.007,-4.007,-4.007,-4.007,-4.007,-4.007,-4.007,-4.007,-4.007,-4.007,-4.007,-4.007,-4.007,-4.007,-4.007,-4.007,-3.5359,-3.5294,-3.5279,-3.5148,-3.5148,-3.5148,-3.5148,-3.5213,-3.5294,-3.5294,0.0,-3.5504,-3.5504,0.0,-3.5668,-3.5797,0.0,-3.7188,-3.7978,-3.8652,-3.9315,-4.002,-4.007,-4.007,-4.007,-4.007,-4.007,-4.007,-4.007,-4.0286,-4.078,-4.078,-4.1041,-4.1552,-4.1621,-4.1717,-4.1841,-4.2388,-4.2538,-4.2241,-4.2904,-4.3271,-4.342,-4.3521,-4.3944,-4.4587,0.0,0.0,-4.4587,-4.4587,-4.4587,-4.4587,-4.4587,-4.4587,-4.4587,-4.4587,-4.4587,-4.4587,-4.4587,-4.4587,-4.4587,-4.4587,-4.4587,-4.4587,-4.4587,-4.4587,-4.4587,-4.4587,-4.4587,-4.4587,-4.4587,-4.4587,-4.4587,-4.4587,-4.4587,-4.4587,-4.4587,-4.4587,-4.4587,-4.4587,-4.4587,-4.4587,-4.4587,-4.4587,-4.4587,-4.4587,-4.4587,-4.4028,-4.2489,-4.2286,-4.1728,-4.024,-4.007,-4.007,-4.007,-4.007,-4.007,-4.007,-4.007,-4.007,-4.007,-4.007,-4.007,-4.007,-4.007,-4.007,-4.007,-4.007,-4.007,-4.007,-4.007,-4.007,-3.4476,-3.4245,-3.4095,-3.3325,-3.3101,-3.3101,-3.3101,-3.3671,0.0,0.0,-3.4905,-3.5504,-3.5504,-3.6006,0.0,-3.7294,0.0,0.0,0.0,0.0,-3.9952,0.0,0.0,0.0,0.0,0.0,0.0,0.0,0.0,0.0,-4.0254,-4.0254,-4.0286,-4.0385,-4.0827,-4.1372,-4.205,-4.1675,-4.2003,-4.3002,-4.3253,-4.3393,-4.3436,-4.4079,-4.4451,-4.4587,-4.4587,0.0,-4.4587,-4.4587,-4.4587,-4.4587,-4.4587,-4.4587,-4.4587,-4.4587,-4.4587,-4.4587,-4.4587,-4.4587,-4.4587,-4.4587,-4.4587,-4.4587,-4.4587,-4.4587,-4.4587,-4.4587,-4.4587,-4.4587,-4.4587,-4.4587,-4.4587,-4.4587,-4.4587,-4.4587,-4.4587,-4.4587,-4.4587,-4.4587,-4.4587,-4.4587,-4.4587,-4.4587,-4.4587,-4.4587,-4.4587,-4.4028,-4.2489,-4.2286,-4.1728,-4.024,-4.007,-4.007,-4.007,-4.007,-4.007,-4.007,-4.007,-4.007,-4.007,-4.007,-4.007,-4.007,-4.007,-4.007,-4.007,-4.007,-4.007,-4.007,-4.007,-4.007,-3.3533,-3.3602,-3.3876,-3.3449,-3.3754,-3.3973,-3.3463,0.0,0.0,0.0,-3.4027,-3.4691,-3.4691,0.0,0.0,0.0,0.0,0.0,0.0,0.0,0.0,0.0,0.0,0.0,0.0,0.0,0.0,0.0,0.0,0.0,-4.007,-4.007,-4.0257,-4.0646,-4.0915,-4.1406,-4.2193,-4.2309,-4.2683,-4.3322,-4.3803,-4.4012,-4.4045,-4.4401,-4.4587,-4.4587,-4.4587,0.0,-4.4587,-4.4587,-4.4587,-4.4587,-4.4587,-4.4587,-4.4587,-4.4587,-4.4587,-4.4587,-4.4587,-4.4587,-4.4587,-4.4587,-4.4587,-4.4587,-4.4587,-4.4587,-4.4587,-4.4587,-4.4587,-4.4587,-4.4587,-4.4587,-4.4587,-4.4587,-4.4587,-4.4587,-4.4587,-4.4587,-4.4587,-4.4587,-4.4587,-4.4587,-4.4587,-4.4587,-4.4587,-4.4587,-4.4587,-4.4028,-4.2489,-4.2286,-4.1728,-4.024,-4.007,-4.007,-4.007,-4.007,-4.007,-4.007,-4.007,-4.007,-4.007,-4.007,-4.007,-4.007,-4.007,-4.007,-4.007,-4.007,-4.007,-4.007,-4.007,-4.007,-3.2593,-3.282,-3.338,-3.3185,-3.3699,-3.407,-3.3255,-3.3241,0.0,0.0,-3.3438,-3.4272,-3.4401,0.0,0.0,0.0,0.0,0.0,0.0,0.0,0.0,0.0,0.0,0.0,0.0,0.0,0.0,0.0,0.0,0.0,-4.0324,-4.0324,-4.0663,-4.1407,-4.1441,-4.1796,-4.2523,-4.3115,-4.3504,-4.3673,-4.4282,-4.4587,-4.4587,-4.4587,-4.4587,-4.4587,-4.4587,0.0,0.0,-4.4587,-4.4587,-4.4587,-4.4587,-4.4587,-4.4587,-4.4587,-4.4587,-4.4587,-4.4587,-4.4587,-4.4587,-4.4587,-4.4587,-4.4587,-4.4587,-4.4587,-4.4587,-4.4587,-4.4587,-4.4587,-4.4587,-4.4587,-4.4587,-4.4587,-4.4587,-4.4587,-4.4587,-4.4587,-4.4587,-4.4587,-4.4587,-4.4587,-4.4587,-4.4587,-4.4587,-4.4587,-4.4587,-4.4028,-4.2489,-4.2286,-4.1728,-4.024,-4.007,-4.007,-4.007,-4.007,-4.007,-4.007,-4.007,-4.007,-4.007,-4.007,-4.007,-4.007,-4.007,-4.007,-4.007,-4.007,-4.007,-4.007,-4.007,-4.007,-3.1815,-3.1389,-3.1254,-3.0432,-3.0292,-3.0292,-3.0228,0.0,0.0,-3.1991,-3.3567,-3.5064,-3.5583,-3.6575,-3.7481,0.0,0.0,-3.8591,0.0,0.0,0.0,0.0,0.0,0.0,0.0,0.0,0.0,0.0,0.0,0.0,0.0,-4.1102,-4.1441,-4.2168,-4.2185,-4.2557,-4.3301,-4.3386,-4.3775,-4.4468,-4.4536,-4.4587,-4.4587,-4.4587,-4.4587,-4.4587,-4.4587,0.0,0.0,-4.4587,-4.4587,-4.4587,-4.4587,-4.4587,-4.4587,-4.4587,-4.4587,-4.4587,-4.4587,-4.4587,-4.4587,-4.4587,-4.4587,-4.4587,-4.4587,-4.4587,-4.4587,-4.4587,-4.4587,-4.4587,-4.4587,-4.4587,-4.4587,-4.4587,-4.4587,-4.4587,-4.4587,-4.4587,-4.4587,-4.4587,-4.4587,-4.4587,-4.4587,-4.4587,-4.4587,-4.4587,-4.4587,-4.4028,-4.2489,-4.2286,-4.1728,-4.024,-4.007,-4.007,-4.007,-4.007,-4.007,-4.007,-4.007,-4.007,-4.007,-4.007,-4.007,-4.007,-4.007,-4.007,-4.007,-4.007,-4.007,-4.007,-4.007,-4.007,-3.0696,-3.0758,-3.1106,-3.0771,-3.1057,-3.1434,-3.12,0.0,-3.1638,-3.1613,-3.3217,-3.4716,-3.4969,-3.6285,-3.7473,-3.7864,-3.8299,0.0,0.0,0.0,0.0,0.0,0.0,0.0,0.0,0.0,0.0,0.0,0.0,0.0,0.0,-4.21,-4.2202,-4.2946,-4.2963,-4.3335,-4.4113,-4.4113,-4.4265,-4.4587,-4.4587,-4.4587,-4.4587,-4.4587,-4.4587,-4.4587,-4.4587,0.0,0.0,-4.4587,-4.4587,-4.4587,-4.4587,-4.4587,-4.4587,-4.4587,-4.4587,-4.4587,-4.4587,-4.4587,-4.4587,-4.4587,-4.4587,-4.4587,-4.4587,-4.4587,-4.4587,-4.4587,-4.4587,-4.4587,-4.4587,-4.4587,-4.4587,-4.4587,-4.4587,-4.4587,-4.4587,-4.4587,-4.4587,-4.4587,-4.4587,-4.4587,-4.4587,-4.4587,-4.4587,-4.4587,-4.4587,-4.4181,-4.3115,-4.2574,-4.1897,-4.0865,-4.0341,-4.007,-4.007,-3.9662,-3.9368,-3.9368,-3.9368,-3.9368,-3.9368,-3.9833,-4.007,-4.007,-4.007,-4.007,-4.007,-4.007,-4.007,-4.007,-4.007,-4.007,-3.0075,-3.0279,-3.0758,-3.0758,-3.1386,-3.191,0.0,0.0,-3.1784,-3.1675,-3.3238,-3.4734,-3.49,-3.662,-3.8003,-3.8003,-3.8455,-3.8769,0.0,0.0,0.0,0.0,0.0,0.0,0.0,0.0,0.0,0.0,0.0,0.0,0.0,-4.325,-4.3217,-4.3741,-4.3758,-4.4028,-4.457,-4.4587,-4.4587,-4.4587,-4.4587,-4.4587,-4.4587,-4.4587,-4.4457,-4.4196,0.0,0.0,0.0,-4.3931,-4.4121,-4.457,-4.4327,-4.4196,-4.4196,-4.4196,-4.4196,-4.4196,-4.4196,-4.4384,-4.4587,-4.4587,-4.4587,-4.4587,-4.4587,-4.4587,-4.4587,-4.4587,-4.4587,-4.4587,-4.4587,-4.4587,-4.4587,-4.4587,-4.4587,-4.4587,-4.4587,-4.4587,-4.4587,-4.4587,-4.4587,-4.4587,-4.4587,-4.4587,-4.4587,-4.4587,-4.4587,-4.4299,-4.3521,-4.276,-4.2016,-4.1288,-4.0527,-4.007,-4.007,-3.9368,-3.9016,-3.9262,-3.9016,-3.9032,-3.9262,-3.9782,-4.007,-4.007,-4.007,-3.9952,-3.9731,-3.9952,-3.9952,-3.9782,-4.002,-4.007,-3.0075,-2.9792,-2.9792,-2.9792,-3.0206,-3.0608,0.0,-3.1009,-3.1537,-3.2089,-3.394,-3.5585,-3.6073,-3.7936,-3.9394,-3.9394,-3.9394,0.0,0.0,0.0,0.0,0.0,0.0,0.0,0.0,0.0,0.0,0.0,0.0,0.0,0.0,-4.4553,-4.4553,-4.457,-4.457,-4.457,-4.4587,-4.4587,-4.4587,-4.4587,-4.4587,-4.4587,-4.4587,-4.4587,-4.4138,0.0,0.0,0.0,0.0,-4.2379,-4.3015,-4.4514,-4.3621,-4.3306,-4.3306,-4.3306,-4.3306,-4.3306,-4.3306,-4.3873,-4.4587,-4.4587,-4.4587,-4.4587,-4.4587,-4.4587,-4.4587,-4.4587,-4.4587,-4.4587,-4.4587,-4.4587,-4.4587,-4.4587,-4.4587,-4.4587,-4.4587,-4.4587,-4.4587,-4.4587,-4.4587,-4.4587,-4.4587,-4.4587,-4.4587,-4.4587,-4.4587,-4.4299,-4.3521,-4.276,-4.2016,-4.1288,-4.0527,-4.007,-4.007,-3.9368,-3.9262,-4.002,-3.9315,-3.9262,-4.007,-4.0087,-4.007,-4.007,-4.007,-3.9731,-3.8908,-3.9714,-3.9662,-3.8908,-3.9731,-4.007,-2.9856,-2.9792,-2.988,-3.0269,-3.0482,-3.0809,-3.1537,-3.1838,-3.2351,-3.3623,-3.4996,-3.6225,-3.7147,-3.8457,-3.9424,-3.9424,-3.9424,0.0,0.0,0.0,0.0,0.0,0.0,0.0,0.0,0.0,0.0,0.0,0.0,0.0,0.0,-4.4587,-4.4587,-4.4587,-4.4587,-4.4587,-4.4587,-4.4587,-4.4587,-4.4587,-4.4587,-4.4587,-4.4587,-4.4587,0.0,0.0,0.0,0.0,0.0,-4.2125,-4.2316,-4.2769,-4.252,-4.2395,-4.2395,-4.2395,-4.2785,-4.3306,-4.3306,-4.3873,-4.4587,-4.4587,-4.4587,-4.4587,-4.4587,-4.4587,-4.4587,-4.4587,-4.4587,-4.4587,-4.4587,-4.4587,-4.4587,-4.4587,-4.4587,-4.4587,-4.4587,-4.4587,-4.4587,-4.4587,-4.4587,-4.4587,-4.4587,-4.4587,-4.4587,-4.4587,-4.4587,-4.4485,-4.4248,-4.3081,-4.2202,-4.1965,-4.0815,-4.007,-4.007,-3.8887,-3.8486,-3.9262,-3.8596,-3.8486,-3.9262,-3.9782,-4.007,-4.007,-4.007,-3.9952,-3.9731,-3.9969,-3.9969,-3.9731,-3.9952,-4.007,0.0,-2.9942,-3.0181,-3.0532,-3.1217,0.0,0.0,-3.2995,-3.3806,-3.403,-3.5521,-3.6852,-3.7175,-3.8383,-3.9424,-3.9424,-3.9424,0.0,0.0,0.0,0.0,0.0,0.0,0.0,0.0,0.0,0.0,0.0,0.0,0.0,0.0,0.0,-4.4587,-4.4587,-4.4587,-4.4587,-4.4587,-4.4587,-4.4587,-4.4587,-4.4587,-4.4587,-4.4587,-4.4253,0.0,0.0,0.0,0.0,0.0,-4.1162,-4.1412,-4.1997,-4.1674,-4.1543,-4.1543,-4.1543,-4.1869,-4.2332,-4.2332,-4.3092,-4.4138,-4.4138,-4.4327,-4.4587,-4.4587,-4.4587,-4.4587,-4.4587,-4.4587,-4.4587,-4.4587,-4.4587,-4.4587,-4.4587,-4.4587,-4.4587,-4.4587,-4.4587,-4.4587,-4.4587,-4.4587,-4.4587,-4.4587,-4.4587,-4.4587,-4.4587,-4.4587,-4.4587,-4.4587,-4.3234,-4.2286,-4.2286,-4.0967,-3.9952,-3.9662,-3.8486,-3.8076,-3.8854,-3.8206,-3.8149,-3.8854,-3.9662,-4.007,-4.007,-3.9782,-3.9506,-3.9226,-3.9226,-3.9506,-4.007,-4.007,-4.007,0.0,-3.0231,0.0,0.0,0.0,0.0,-3.2491,-3.4241,0.0,-3.37,-3.5695,-3.751,-3.6604,-3.8055,-3.9424,-3.9424,0.0,0.0,0.0,0.0,0.0,0.0,0.0,0.0,0.0,0.0,0.0,0.0,0.0,0.0,0.0,0.0,-4.4587,-4.4587,-4.4587,-4.4587,-4.4587,-4.4587,-4.4587,-4.4587,-4.4587,-4.4587,-4.457,-4.3697,0.0,0.0,0.0,0.0,0.0,-3.9737,-4.0309,-4.1739,-4.0946,-4.0622,-4.0622,-4.0622,-4.0622,-4.069,-4.069,-4.1804,-4.3246,-4.3306,-4.3873,-4.4514,-4.457,-4.4587,-4.4587,-4.4587,-4.4587,-4.4587,-4.4587,-4.4587,-4.4587,-4.4587,-4.4587,-4.4587,-4.4587,-4.4587,-4.4587,-4.4587,-4.4587,-4.4587,-4.4587,-4.4587,-4.4587,-4.4587,-4.4587,-4.4587,-4.4587,-4.3234,-4.2286,-4.2286,-4.0967,-3.9782,-3.8962,-3.8246,-3.8092,-3.8799,-3.8149,-3.8076,-3.8854,-3.961,-4.002,-4.007,-3.9315,-3.858,-3.7978,-3.7937,-3.8652,-4.007,-4.007,-4.007,-3.0306,0.0,-3.0708,-3.111,-3.1864,-3.2637,0.0,-3.4004,-3.5129,-3.5426,0.0,-3.7979,-3.8531,-3.909,0.0,0.0,0.0,0.0,0.0,0.0,0.0,0.0,0.0,0.0,0.0,0.0,0.0,0.0,0.0,0.0,0.0,0.0,-4.4587,-4.4587,-4.4587,-4.4587,-4.4587,-4.4587,-4.4587,-4.4587,-4.4587,-4.4587,-4.457,-4.3697,0.0,0.0,0.0,0.0,-3.9666,-3.9481,-3.961,-4.0005,-3.9809,-3.9737,-3.9737,-3.9737,-4.0115,-4.069,-4.069,-4.1396,-4.2395,-4.3108,-4.3443,-4.3756,-4.4384,-4.4587,-4.4587,-4.4587,-4.4587,-4.4587,-4.4587,-4.4587,-4.4587,-4.4587,-4.4587,-4.4587,-4.4587,-4.4587,-4.4587,-4.4587,-4.4587,-4.4587,-4.4587,-4.4587,-4.4587,-4.4587,-4.4587,-4.4587,-4.4587,-4.3234,-4.2286,-4.2286,-4.0967,-3.9782,-3.8962,-3.8246,-3.7863,-3.8035,-3.7322,-3.7483,-3.8854,-3.9086,-3.9489,-4.007,-3.9315,-3.9139,-3.9558,-3.8924,-3.9156,-4.007,-4.007,-4.007,-3.047,-3.0783,-3.1097,-3.1637,-3.2581,-3.3315,-3.3177,-3.4664,-3.6001,0.0,0.0,0.0,0.0,0.0,0.0,0.0,0.0,0.0,0.0,0.0,0.0,0.0,0.0,0.0,0.0,0.0,0.0,0.0,0.0,0.0,0.0,0.0,-4.4587,-4.4587,-4.4587,-4.4587,-4.4587,-4.4587,-4.4587,-4.4587,-4.4587,-4.4384,-4.3989,-4.3108,-4.2252,0.0,0.0,0.0,-3.9424,-3.9424,-3.9424,-3.9424,-3.9424,-3.9424,-3.9424,-3.9424,-3.9666,-4.0115,-4.0115,-4.069,-4.1543,-4.2395,-4.2707,-4.2847,-4.3739,-4.4006,-4.4064,-4.4514,-4.4587,-4.4587,-4.4587,-4.4587,-4.4587,-4.4587,-4.4587,-4.4587,-4.4587,-4.4587,-4.4587,-4.4587,-4.4587,-4.4587,-4.4587,-4.4587,-4.4587,-4.4587,-4.4587,-4.4587,-4.4587,-4.3234,-4.2286,-4.2286,-4.0656,-3.9262,-3.8469,-3.7674,-3.7263,-3.7263,-3.6843,-3.7128,-3.8358,-3.8745,-3.8924,-3.9049,-3.8596,-3.8414,-3.8509,-3.8044,-3.8453,-3.9542,-3.9542,-3.9731,-3.0782,-3.1289,-3.1757,-3.2301,-3.3597,-3.4511,-3.3713,0.0,0.0,0.0,0.0,0.0,0.0,0.0,0.0,0.0,0.0,0.0,0.0,0.0,0.0,0.0,0.0,0.0,0.0,0.0,0.0,0.0,0.0,0.0,0.0,0.0,0.0,-4.4587,-4.4587,-4.4587,-4.4587,-4.4587,-4.4587,-4.4587,-4.4587,-4.4138,-4.3246,-4.2395,-4.1528,0.0,0.0,0.0,-3.9424,-3.9424,-3.9424,-3.9424,-3.9424,-3.9424,-3.9424,-3.9424,-3.9424,-3.9424,-3.9424,-3.9849,-4.0622,-4.1543,-4.1788,-4.1933,-4.2847,-4.3108,-4.329,-4.4138,-4.4514,-4.4587,-4.4587,-4.4587,-4.4587,-4.4587,-4.4587,-4.4587,-4.4587,-4.4587,-4.4587,-4.4587,-4.4587,-4.4587,-4.4587,-4.4587,-4.4587,-4.4587,-4.4587,-4.4587,-4.4587,-4.3335,-4.2422,-4.2303,-4.035,-3.875,-3.7879,-3.7084,-3.6554,-3.6446,-3.6446,-3.6859,-3.7748,-3.8525,-3.8635,-3.7978,-3.7863,-3.7456,-3.6783,-3.6783,-3.7526,-3.8908,-3.9032,-3.9437,-3.215,-3.2725,-3.2843,-3.3393,-3.4146,-3.4897,-3.5588,-3.6788,0.0,0.0,0.0,0.0,0.0,0.0,0.0,0.0,0.0,0.0,0.0,0.0,0.0,0.0,0.0,0.0,0.0,0.0,0.0,0.0,0.0,0.0,0.0,0.0,0.0,-4.4587,-4.4587,-4.4587,-4.4587,-4.4587,-4.4587,-4.4587,-4.4587,-4.4138,-4.3246,-4.2395,-4.1528,0.0,0.0,-3.9424,-3.9424,-3.9424,-3.9424,-3.9424,-3.9424,-3.9424,-3.9424,-3.9424,-3.9424,-3.9424,-3.9424,-3.9481,-3.9737,-4.0622,-4.0878,-4.108,-4.1933,-4.2189,-4.2379,-4.3229,-4.4006,-4.4587,-4.4587,-4.4587,-4.4587,-4.4587,-4.4587,-4.4587,-4.4587,-4.4587,-4.4587,-4.4587,-4.4587,-4.4587,-4.4587,-4.4587,-4.4587,-4.4587,-4.4587,-4.4587,-4.4587,-4.3809,-4.2997,-4.2354,-4.0871,-3.9322,-3.7927,-3.7084,-3.6322,-3.5733,-3.5668,-3.6305,-3.7748,-3.8525,-3.8854,-3.8745,-3.8149,-3.7748,-3.7632,-3.7632,-3.8076,-3.8908,-3.961,-3.9952,-3.2554,-3.3389,-3.4118,-3.5576,-3.5702,-3.5668,-3.6119,-3.7021,0.0,0.0,0.0,0.0,0.0,0.0,0.0,0.0,0.0,0.0,0.0,0.0,0.0,0.0,0.0,0.0,0.0,0.0,0.0,0.0,0.0,0.0,0.0,0.0,0.0,0.0,-4.4587,-4.4587,-4.4587,-4.4587,-4.4587,-4.457,-4.4121,-4.3426,-4.2583,-4.1658,-4.0826,-3.999,0.0,-3.9424,-3.9424,-3.9424,-3.9424,-3.9424,-3.9424,-3.9424,-3.9424,-3.9424,-3.9424,-3.9424,-3.9424,-3.9424,-3.9538,-4.0432,-4.069,-4.0878,-4.1739,-4.2316,-4.2785,-4.3185,-4.3562,-4.4006,-4.4457,-4.4587,-4.4587,-4.4587,-4.4587,-4.4587,-4.4587,-4.4587,-4.4587,-4.4587,-4.4587,-4.4587,-4.4587,-4.4587,-4.4587,-4.4587,-4.4587,-4.4587,-4.4587,-4.391,-4.2951,-4.1849,-4.0327,-3.885,-3.7266,-3.6461,-3.5831,-3.5504,-3.6258,-3.7071,-3.7764,-3.8941,-3.9156,-3.8302,-3.7978,-3.7413,-3.6554,-3.6995,-3.7557,-3.8302,-3.9086,-3.9662,-3.2928,-3.39,-3.5008,-3.7587,0.0,-3.6604,-3.6916,-3.7572,0.0,0.0,0.0,0.0,0.0,0.0,0.0,0.0,0.0,0.0,0.0,0.0,0.0,0.0,0.0,0.0,0.0,0.0,0.0,0.0,0.0,0.0,0.0,0.0,0.0,0.0,-4.4514,-4.4384,-4.3989,-4.4384,-4.4587,-4.4587,-4.3697,-4.2847,-4.1997,-4.108,-4.0239,-3.9424,-3.9424,-3.9424,-3.9424,-3.9424,-3.9424,-3.9424,-3.9424,-3.9424,-3.9424,-3.9424,-3.9424,-3.9424,-3.9424,-3.9424,-3.9481,-4.0185,-4.0554,-4.0811,-4.1462,-4.2316,-4.3047,-4.3246,-4.3306,-4.3502,-4.4384,-4.4587,-4.4587,-4.4587,-4.4587,-4.4587,-4.4587,-4.4587,-4.4587,-4.4587,-4.4587,-4.4587,-4.4587,-4.4587,-4.4587,-4.4587,-4.4587,-4.4587,-4.4587,-4.3861,-4.2842,-4.1345,-3.9763,-3.8194,-3.6461,-3.5831,-3.5504,-3.5504,-3.6768,-3.7573,-3.7806,-3.8941,-3.9011,-3.7822,-3.7632,-3.6829,-3.5504,-3.6399,-3.7203,-3.7822,-3.8761,-3.9489,-3.3676,-3.4519,-3.5335,-3.8472,-3.8472,-3.7919,-3.8943,-3.9265,0.0,-3.9265,0.0,0.0,0.0,0.0,0.0,0.0,0.0,0.0,0.0,0.0,0.0,0.0,0.0,0.0,0.0,0.0,0.0,0.0,0.0,0.0,0.0,0.0,0.0,-4.3443,-4.4196,-4.3798,-4.2189,-4.3798,-4.4587,-4.4587,-4.3697,-4.2847,-4.1997,-4.108,-4.0239,-3.9424,-3.9424,-3.9424,-3.9424,-3.9424,-3.9424,-3.9424,-3.9424,-3.9424,-3.9424,-3.9424,-3.9424,-3.9424,-3.9424,-3.9424,-3.9409,-3.9481,-4.0045,-4.0675,-4.0743,-4.1412,-4.2252,-4.3047,-4.3306,-4.3502,-4.4384,-4.4587,-4.4587,-4.4587,-4.4587,-4.4587,-4.4587,-4.4587,-4.4587,-4.4587,-4.4587,-4.4587,-4.4587,-4.4587,-4.4587,-4.4587,-4.4587,-4.4587,-4.4587,-4.3823,-4.2756,-4.1337,-3.9715,-3.788,-3.5789,-3.5504,-3.5504,-3.5504,-3.6228,-3.7024,-3.7764,-3.7937,-3.7921,-3.7822,-3.71,-3.6275,-3.5504,-3.7011,-3.7748,-3.7822,-3.9332,-4.002,-3.4038,-3.548,-3.6833,-3.885,-3.9104,0.0,0.0,-3.9424,-3.9424,-3.9424,-3.9424,0.0,0.0,0.0,0.0,0.0,0.0,0.0,0.0,0.0,0.0,0.0,0.0,0.0,0.0,0.0,0.0,0.0,0.0,0.0,0.0,0.0,0.0,-4.4121,-4.335,-4.2909,-4.2785,-4.3486,-4.3545,-4.297,-4.2645,-4.2062,-4.1147,-4.0309,-3.9737,-3.9424,-3.9424,-3.9424,-3.9424,-3.9424,-3.9424,-3.9424,-3.9424,-3.9424,-3.9424,-3.9424,-3.9424,-3.9481,-4.006,-3.9864,-3.9681,-4.1311,-4.128,-4.0878,-4.1997,-4.252,-4.2847,-4.3185,-4.368,-4.4196,-4.4514,-4.4587,-4.4587,-4.4587,-4.4587,-4.4587,-4.4587,-4.4587,-4.4587,-4.4587,-4.4587,-4.4587,-4.4587,-4.4138,-4.4006,-4.4514,-4.3663,-4.335,-4.444,-4.335,-4.2148,-4.116,-3.8857,-3.6844,-3.5579,-3.5504,-3.5504,-3.5504,-3.6165,-3.6964,-3.7764,-3.7822,-3.7822,-3.7822,-3.7024,-3.6228,-3.5504,-3.7071,-3.7822,-3.7822,-3.9385,-3.9833,-3.4245,-3.5841,-3.7297,-3.874,0.0,0.0,-3.9424,-3.9424,-3.9424,-3.9424,-3.9424,0.0,0.0,0.0,0.0,0.0,0.0,0.0,0.0,0.0,0.0,0.0,0.0,0.0,0.0,0.0,0.0,0.0,0.0,0.0,0.0,0.0,0.0,0.0,-4.3031,-4.2458,-4.2458,-4.3047,-4.2599,-4.1162,-4.1478,-4.128,-4.069,-3.9793,-3.9424,-3.9424,-3.9424,-3.9424,-3.9424,-3.9424,-3.9424,-3.9424,-3.9424,-3.9424,-3.9424,-3.9424,-3.9424,-3.9481,-4.0045,-3.9935,-3.9737,-4.182,-4.1869,-4.1396,-4.2847,-4.3502,-4.368,-4.368,-4.4138,-4.4587,-4.4587,-4.4587,-4.4587,-4.4587,-4.4587,-4.4587,-4.4587,-4.4587,-4.4587,-4.4587,-4.4384,-4.4196,-4.4196,-4.3486,-4.3092,-4.368,-4.3031,-4.2707,-4.3663,-4.2769,-4.1438,-4.0022,-3.7877,-3.6222,-3.5564,-3.5504,-3.5504,-3.5504,-3.5943,-3.6569,-3.7397,-3.7397,-3.7397,-3.7397,-3.6631,-3.6006,-3.5504,-3.6768,-3.7397,-3.7456,-3.8761,-3.9102,-3.4285,-3.5495,0.0,0.0,0.0,0.0,-3.9424,-3.9424,-3.9424,-3.9424,0.0,0.0,0.0,0.0,0.0,0.0,0.0,0.0,0.0,0.0,0.0,0.0,0.0,0.0,0.0,0.0,0.0,0.0,0.0,0.0,0.0,0.0,0.0,0.0,-4.3306,-4.2458,-4.0758,-4.2395,-4.1949,-3.9409,-4.0309,-4.069,-4.069,-3.9793,-3.9424,-3.9424,-3.9424,-3.9424,-3.9424,-3.9424,-3.9424,-3.9424,-3.9424,-3.9424,-3.9424,-3.9424,-3.9424,-3.9424,-3.9424,-3.9409,-3.9538,-4.0432,-4.128,-4.2125,-4.3047,-4.3873,-4.457,-4.457,-4.4587,-4.457,-4.4587,-4.457,-4.457,-4.4587,-4.4587,-4.457,-4.4587,-4.457,-4.4587,-4.4587,-4.3873,-4.3306,-4.3306,-4.2583,-4.1997,-4.1997,-4.2707,-4.297,-4.2062,-4.1997,-4.081,-3.7744,-3.6866,-3.6237,-3.5564,-3.5504,-3.5504,-3.5504,-3.5504,-3.5831,-3.6554,-3.66,-3.66,-3.6615,-3.5894,-3.5504,-3.5504,-3.6228,-3.6615,-3.66,-3.7456,-3.7822,-3.5252,-3.6365,0.0,0.0,0.0,0.0,0.0,-3.9424,0.0,0.0,0.0,0.0,0.0,0.0,0.0,0.0,0.0,0.0,0.0,0.0,0.0,0.0,0.0,0.0,0.0,0.0,0.0,0.0,0.0,0.0,0.0,0.0,0.0,0.0,-4.1494,-4.0909,-4.1609,-4.1543,-4.0758,-3.9409,-4.0309,-4.0363,-3.9809,-3.9553,-3.9424,-3.9424,-3.9424,-3.9424,-3.9424,-3.9424,-3.9424,-3.9424,-3.9424,-3.9424,-3.9424,-3.9424,-3.9424,-3.9481,-4.0115,-4.0309,-4.0432,-4.1346,-4.1346,-4.128,-4.2125,-4.2125,-4.1981,-4.2567,-4.2769,-4.2892,-4.3562,-4.3229,-4.3092,-4.431,-4.3663,-4.297,-4.3545,-4.3213,-4.2769,-4.2769,-4.2583,-4.2395,-4.2395,-4.1674,-4.128,-4.1933,-4.1162,-4.0447,-4.0185,-4.0706,-4.0349,-3.8322,-3.7524,-3.6881,-3.6252,-3.5774,-3.5504,-3.5504,-3.5504,-3.5831,-3.6554,-3.6117,-3.6054,-3.6615,-3.5894,-3.5504,-3.5504,-3.6228,-3.6615,-3.66,-3.7456,-3.7515,-3.5477,0.0,0.0,0.0,0.0,0.0,0.0,0.0,0.0,0.0,0.0,0.0,0.0,0.0,0.0,0.0,0.0,0.0,0.0,0.0,0.0,0.0,0.0,0.0,0.0,0.0,0.0,0.0,0.0,0.0,0.0,0.0,0.0,0.0,-4.1095,-4.0569,-4.1997,-4.1147,-4.0239,-3.9424,-3.992,-3.9935,-3.9424,-3.9424,-3.9424,-3.9424,-3.9424,-3.9424,-3.9424,-3.9424,-3.9424,-3.9424,-3.9424,-3.9424,-3.9424,-3.9424,-3.9424,-3.9481,-3.999,-4.017,-4.0309,-4.1213,-4.1147,-4.0878,-4.1739,-4.1609,-4.1346,-4.1869,-4.1997,-4.2125,-4.2645,-4.2125,-4.1917,-4.368,-4.3031,-4.2125,-4.2645,-4.2395,-4.1997,-4.1997,-4.1739,-4.1478,-4.1478,-4.0758,-4.0378,-4.0909,-4.006,-3.9553,-3.9864,-4.0045,-3.9732,-3.8522,-3.8033,-3.7449,-3.6552,-3.6118,-3.5789,-3.5519,-3.5504,-3.5733,-3.6165,-3.5733,-3.5733,-3.6165,-3.5733,-3.5504,-3.5504,-3.5943,-3.6165,-3.6165,-3.6646,-3.6662,-3.5288,0.0,0.0,0.0,0.0,0.0,0.0,0.0,0.0,0.0,0.0,0.0,0.0,0.0,0.0,0.0,0.0,0.0,0.0,0.0,0.0,0.0,0.0,0.0,0.0,0.0,0.0,0.0,0.0,0.0,0.0,0.0,0.0,0.0,-4.1478,-4.1013,-4.1869,-4.1013,-4.017,0.0,-3.9424,-3.9424,-3.9424,-3.9424,-3.9424,-3.9424,-3.9424,-3.9409,-3.9481,-3.9409,-3.9409,-3.9481,-3.9409,-3.9424,-3.9424,-3.9481,-3.9481,-3.9409,-3.9481,-3.9553,-3.961,-4.0378,-4.0622,-4.0811,-4.1543,-4.1739,-4.1739,-4.1739,-4.1739,-4.1804,-4.1869,-4.1213,-4.1013,-4.2661,-4.2395,-4.1804,-4.1869,-4.1804,-4.1739,-4.1739,-4.1147,-4.0554,-4.0554,-3.992,-3.9424,-3.9424,-3.9424,-3.9666,-4.05,-3.9864,-3.9185,-3.8556,-3.8422,-3.7898,-3.6671,-3.6522,-3.6207,-3.5549,-3.5504,-3.5504,-3.5504,-3.5504,-3.5504,-3.5504,-3.5504,-3.5504,-3.5504,-3.5504,-3.5504,-3.5504,-3.5504,-3.5504,0.0,-3.6821,0.0,0.0,0.0,0.0,0.0,0.0,0.0,0.0,0.0,0.0,0.0,0.0,0.0,0.0,0.0,0.0,0.0,0.0,0.0,0.0,0.0,0.0,0.0,0.0,0.0,0.0,0.0,0.0,0.0,0.0,0.0,-4.1264,-4.0255,-4.013,-4.0946,-4.0115,-3.961,0.0,-3.9424,-3.9424,-3.9424,-3.9424,-3.9424,-3.9424,-3.9424,-3.9793,-4.0378,-3.9666,-3.9793,-4.0378,-3.9681,-3.9424,-3.9481,-4.0185,-3.999,-3.9481,-4.0185,-4.0432,-4.0378,-3.9864,-4.0115,-4.0622,-4.013,-3.9935,-3.9935,-3.9935,-3.9935,-4.013,-4.0826,-4.0309,-3.9935,-4.1028,-4.0569,-4.013,-4.0826,-4.0447,-3.9935,-3.9935,-3.9809,-3.9666,-3.9666,-3.9538,-3.9424,-3.9424,-3.9424,-3.9481,-3.9681,-3.9553,-3.9364,-3.9215,-3.8706,-3.8078,-3.727,-3.6761,-3.6207,-3.5549,-3.5504,-3.5504,-3.5504,-3.5504,-3.5504,-3.5504,-3.5504,-3.5504,-3.5504,-3.5504,-3.5504,-3.5504,-3.5504,-3.5504,0.0,0.0,0.0,0.0,0.0,0.0,0.0,0.0,0.0,0.0,0.0,0.0,0.0,0.0,0.0,0.0,0.0,0.0,0.0,0.0,0.0,0.0,0.0,0.0,0.0,0.0,0.0,0.0,0.0,0.0,0.0,-4.069,-4.069,-4.069,-3.9864,-3.9793,-4.069,-3.9864,-3.9424,-3.9424,-3.9424,-3.9424,-3.9424,-3.9424,-3.9424,-3.9424,-3.9424,-3.9666,-4.0045,-3.961,-3.992,-4.0622,-4.017,-4.0255,-4.0706,-4.1147,-4.1028,-4.0706,-4.1147,-4.1346,-4.128,-4.0774,-4.0706,-4.0622,-4.0185,-3.9737,-3.9424,-3.9424,-3.9424,-3.9481,-3.999,-3.9737,-3.9538,-3.999,-3.9737,-3.9538,-3.999,-3.9737,-3.9424,-3.9424,-3.9424,-3.9424,-3.9424,-3.9424,-3.9424,-3.9424,-3.9424,-3.9424,-3.9424,-3.9424,-3.9424,-3.9424,-3.9095,-3.8616,-3.7943,-3.73,-3.6656,-3.6013,-3.5684,-3.5504,-3.5504,-3.5504,-3.5504,-3.5504,-3.5504,-3.5504,-3.5504,-3.5504,-3.5504,-3.5504,-3.5504,-3.5504,0.0,0.0,0.0,0.0,0.0,0.0,0.0,0.0,0.0,0.0,0.0,0.0,0.0,0.0,0.0,0.0,0.0,0.0,0.0,0.0,0.0,0.0,0.0,0.0,0.0,0.0,0.0,0.0,0.0,0.0,-4.069,-4.0569,-4.05,-4.05,-3.9809,-3.9737,-4.05,-3.9737,-3.9424,-3.9424,-3.9424,-3.9424,-3.9424,-3.9424,-3.9424,-3.9424,-3.9424,-3.9481,-3.961,-3.9481,-3.992,-4.069,-4.069,-4.1147,-4.1804,-4.2125,-4.2125,-4.1997,-4.2189,-4.2125,-4.1997,-4.1997,-4.1543,-4.0878,-4.0758,-4.0185,-3.961,-3.9409,-3.9424,-3.9424,-3.9424,-3.9424,-3.9424,-3.9424,-3.9424,-3.9424,-3.9424,-3.9424,-3.9424,-3.9424,-3.9424,-3.9424,-3.9424,-3.9424,-3.9424,-3.9424,-3.9424,-3.9424,-3.9424,-3.9424,-3.9424,-3.9424,-3.9424,-3.914,-3.8452,-3.7883,-3.727,-3.6537,-3.5968,-3.5624,-3.5504,-3.5504,-3.5504,-3.5504,-3.5504,-3.5504,-3.5504,-3.5504,-3.5504,-3.5504,-3.5504,-3.5504,0.0,0.0,0.0,0.0,0.0,0.0,0.0,0.0,0.0,0.0,0.0,0.0,0.0,0.0,0.0,0.0,0.0,0.0,0.0,0.0,0.0,0.0,0.0,0.0,0.0,0.0,0.0,0.0,0.0,0.0,-4.069,-3.999,-3.9538,-3.9538,-3.9481,-3.9481,-3.9538,-3.9481,-3.9424,-3.9424,-3.9424,-3.9424,-3.9424,-3.9424,-3.9424,-3.9424,-3.9424,-3.9864,-4.05,-3.9737,-3.992,-4.069,-4.069,-4.0743,-4.108,-4.2583,-4.2645,-4.2125,-4.2847,-4.2645,-4.1997,-4.1997,-4.1933,-4.1674,-4.0946,-4.0622,-4.0363,-3.961,-3.9424,-3.9424,-3.9424,-3.9424,-3.9424,-3.9424,-3.9424,-3.9424,-3.9424,-3.9424,-3.9424,-3.9424,-3.9424,-3.9424,-3.9424,-3.9424,-3.9424,-3.9424,-3.9424,-3.9424,-3.9424,-3.9424,-3.9424,-3.9424,-3.9424,-3.914,-3.8452,-3.8302,-3.7749,-3.6552,-3.6402,-3.6103,-3.5534,-3.5504,-3.5504,-3.5504,-3.5504,-3.5504,-3.5504,-3.5504,-3.5504,-3.5504,-3.5504,-3.5504,-3.4996,0.0,0.0,0.0,0.0,0.0,0.0,0.0,0.0,0.0,0.0,0.0,0.0,0.0,0.0,0.0,0.0,0.0,0.0,0.0,0.0,0.0,0.0,0.0,0.0,0.0,0.0,0.0,0.0,-3.999,-3.999,-3.961,-3.9424,-3.9424,-3.9424,-3.9424,-3.9424,-3.9424,-3.9424,-3.9424,-3.9424,-3.9424,-3.9424,-3.9424,-3.9681,-4.0115,-3.961,-3.9864,-4.0622,-3.9737,-3.992,-4.069,-4.069,-4.128,-4.2189,-4.2458,-4.2645,-4.2707,-4.2583,-4.2332,-4.1997,-4.1997,-4.1674,-4.1213,-4.0826,-4.0378,-3.9864,-3.9481,-3.9424,-3.9424,-3.9424,-3.9424,-3.9424,-3.9424,-3.9424,-3.9424,-3.9424,-3.9424,-3.9424,-3.9424,-3.9424,-3.9424,-3.9424,-3.9424,-3.9424,-3.9424,-3.9424,-3.9424,-3.9424,-3.9424,-3.9424,-3.9424,-3.9424,-3.929,-3.899,-3.8616,-3.8153,-3.7584,-3.6881,-3.6357,-3.6073,-3.5699,-3.5504,-3.5504,-3.5504,-3.5504,-3.5504,-3.5504,-3.5504,-3.5504,-3.5504,-3.5504,0.0,0.0,0.0,0.0,0.0,0.0,0.0,0.0,0.0,0.0,0.0,0.0,0.0,0.0,0.0,0.0,0.0,0.0,0.0,0.0,0.0,0.0,0.0,0.0,0.0,0.0,0.0,0.0,0.0,-3.961,-4.006,-3.961,-3.9424,-3.9424,-3.9424,-3.9424,-3.9424,-3.9424,-3.9424,-3.9424,-3.9424,-3.9553,-3.9737,-3.9737,-4.0309,-4.128,-4.0185,-4.0115,-4.069,-4.0255,-4.0447,-4.108,-4.1264,-4.2125,-4.3246,-4.2847,-4.2909,-4.3185,-4.2583,-4.2189,-4.1997,-4.1997,-4.1543,-4.1013,-4.0758,-4.0239,-3.9666,-3.9481,-3.9424,-3.9424,-3.9424,-3.9424,-3.9424,-3.9424,-3.9424,-3.9424,-3.9424,-3.9424,-3.9424,-3.9424,-3.9424,-3.9424,-3.9424,-3.9424,-3.9424,-3.9424,-3.9424,-3.9424,-3.9424,-3.9424,-3.9424,-3.9424,-3.9424,-3.9424,-3.9424,-3.8945,-3.8571,-3.8407,-3.7494,-3.6821,-3.6492,-3.6013,-3.5669,-3.5504,-3.5504,-3.5504,-3.5504,-3.5504,-3.5504,-3.5504,-3.5504,-3.5504,0.0,0.0,0.0,0.0,0.0,0.0,0.0,0.0,0.0,0.0,0.0,0.0,0.0,0.0,0.0,0.0,0.0,0.0,0.0,0.0,0.0,0.0,0.0,0.0,0.0,0.0,0.0,0.0,0.0,-4.013,-4.1804,-4.0324,-3.9424,-3.9424,-3.9424,-3.9424,-3.9424,-3.9424,-3.9424,-3.9424,-3.9424,-3.9864,-4.0622,-4.0622,-4.1543,-4.3047,-4.1346,-4.069,-4.0758,-4.1543,-4.1869,-4.1997,-4.2847,-4.3246,-4.3366,-4.4196,-4.3948,-4.3306,-4.3246,-4.2707,-4.1997,-4.1997,-4.1997,-4.1804,-4.0946,-4.069,-4.0432,-3.961,-3.9424,-3.9424,-3.9424,-3.9424,-3.9424,-3.9424,-3.9424,-3.9424,-3.9424,-3.9424,-3.9424,-3.9424,-3.9424,-3.9424,-3.9424,-3.9424,-3.9424,-3.9424,-3.9424,-3.9424,-3.9424,-3.9424,-3.9424,-3.9424,-3.9424,-3.9424,-3.9424,-3.9394,-3.9095,-3.8437,-3.8332,-3.7749,-3.6537,-3.6447,-3.6148,-3.5519,-3.5504,-3.5504,-3.5504,-3.5504,-3.5504,-3.5504,-3.5504,-3.5504,0.0,0.0,0.0,0.0,0.0,0.0,0.0,0.0,0.0,0.0,0.0,0.0,0.0,0.0,0.0,0.0,0.0,0.0,0.0,0.0,0.0,0.0,0.0,0.0,0.0,0.0,0.0,0.0,0.0,0.0,-4.1147,-4.0569,-4.0239,-4.0239,-3.9666,-3.9424,-3.9424,-3.992,-3.992,-3.9424,-3.9424,-3.9538,-3.9849,-4.0432,-4.1013,-4.1674,-4.2125,-4.2395,-4.2332,-4.2125,-4.1997,-4.2062,-4.2316,-4.2785,-4.3246,-4.3031,-4.2707,-4.2458,-4.2458,-4.1543,-4.0447,-4.0946,-4.0774,-4.0255,-3.992,-3.9864,-3.9793,-3.9481,-3.9424,-3.9424,-3.9424,-3.9424,-3.9424,-3.9424,-3.9424,-3.9424,-3.9424,-3.9424,-3.9424,-3.9424,-3.9424,-3.9424,-3.9424,-3.9424,-3.9424,-3.9424,-3.9424,-3.9424,-3.9424,-3.9424,-3.9424,-3.9424,-3.9424,-3.9424,-3.9424,-3.9424,-3.932,-3.9065,-3.8631,-3.7988,-3.7105,-3.6701,-3.6178,-3.5519,-3.5504,-3.5504,-3.5504,-3.5504,-3.5504,-3.5504,-3.5504,-3.5504,-3.584,0.0,0.0,0.0,0.0,0.0,0.0,0.0,0.0,0.0,0.0,0.0,0.0,0.0,0.0,0.0,0.0,0.0,0.0,0.0,0.0,0.0,0.0,0.0,0.0,0.0,0.0,0.0,0.0,0.0,-4.1147,-4.1147,-4.1013,-4.069,-3.9864,-3.9424,-3.9424,-4.0239,-4.0432,-3.9864,-4.013,-4.0462,-4.0721,-4.128,-4.1723,-4.2045,-4.3229,-4.3562,-4.3306,-4.297,-4.2892,-4.2892,-4.2892,-4.3229,-4.368,-4.3092,-4.2707,-4.2379,-4.2125,-4.1028,-3.9849,-4.0185,-3.9864,-3.9424,-3.9424,-3.9424,-3.9424,-3.9424,-3.9424,-3.9424,-3.9424,-3.9424,-3.9424,-3.9424,-3.9424,-3.9424,-3.9424,-3.9424,-3.9424,-3.9424,-3.9424,-3.9424,-3.9424,-3.9424,-3.9424,-3.9424,-3.9424,-3.9424,-3.9424,-3.9424,-3.9424,-3.9424,-3.9424,-3.9424,-3.9424,-3.9424,-3.9424,-3.9424,-3.899,-3.8437,-3.7764,-3.712,-3.6492,-3.5848,-3.5609,-3.5504,-3.5504,-3.5504,-3.5504,-3.5504,-3.5504,-3.5504,0.0,0.0,0.0,0.0,0.0,0.0,0.0,0.0,0.0,0.0,0.0,0.0,0.0,0.0,0.0,0.0,0.0,0.0,0.0,0.0,0.0,0.0,0.0,0.0,0.0,0.0,0.0,0.0,0.0,-4.108,-4.1933,-4.1997,-4.1674,-4.0758,-3.992,-3.9481,-3.9409,-4.0309,-4.0675,-4.069,-4.1543,-4.2379,-4.3246,-4.3306,-4.3756,-4.457,-4.4587,-4.4121,-4.3366,-4.4253,-4.4587,-4.4587,-4.4587,-4.4587,-4.4587,-4.4587,-4.4064,-4.3185,-4.2316,-4.1478,-4.0554,-3.9737,-3.9409,-3.9424,-3.9424,-3.9424,-3.9424,-3.9424,-3.9424,-3.9424,-3.9424,-3.9424,-3.9424,-3.9424,-3.9424,-3.9424,-3.9424,-3.9424,-3.9424,-3.9424,-3.9424,-3.9424,-3.9424,-3.9424,-3.9424,-3.9424,-3.9424,-3.9424,-3.9424,-3.9424,-3.9424,-3.9424,-3.9424,-3.9424,-3.9424,-3.9424,-3.9424,-3.9424,-3.9424,-3.911,-3.8422,-3.7764,-3.712,-3.6492,-3.5833,-3.5504,-3.5504,-3.5504,-3.5504,-3.5504,-3.5504,-3.5504,-3.75,0.0,0.0,0.0,0.0,0.0,0.0,0.0,0.0,0.0,0.0,0.0,0.0,0.0,0.0,0.0,0.0,0.0,0.0,0.0,0.0,0.0,0.0,0.0,0.0,0.0,0.0,0.0,-4.0961,-4.1739,-4.1997,-4.2583,-4.252,-4.1674,-4.1997,-4.1625,-4.0378,-4.1213,-4.1028,-3.9809,-4.0622,-4.1213,-4.1462,-4.2724,-4.3426,-4.368,-4.4327,-4.444,-4.4253,-4.4514,-4.4587,-4.4587,-4.4587,-4.4587,-4.4587,-4.4587,-4.4064,-4.3246,-4.3047,-4.1933,-4.069,-4.0432,-3.992,-3.9424,-3.9424,-3.9424,-3.9424,-3.9424,-3.9424,-3.9424,-3.9424,-3.9424,-3.9424,-3.9424,-3.9424,-3.9424,-3.9424,-3.9424,-3.9424,-3.9424,-3.9424,-3.9424,-3.9424,-3.9424,-3.9424,-3.9424,-3.9424,-3.9424,-3.9424,-3.9424,-3.9424,-3.9424,-3.9424,-3.9424,-3.9424,-3.9424,-3.9424,-3.9424,-3.9424,-3.911,-3.8422,-3.7764,-3.712,-3.6492,-3.5833,-3.5504,-3.5504,-3.5504,-3.5504,-3.5504,-3.5504,-3.5504,-3.8355,-3.7979,0.0,0.0,0.0,0.0,0.0,0.0,0.0,0.0,0.0,0.0,0.0,0.0,0.0,0.0,0.0,0.0,0.0,0.0,0.0,0.0,0.0,0.0,0.0,0.0,0.0,-3.9409,-4.1028,-4.2316,-4.3031,-4.3229,-4.3047,-4.2583,-4.2645,-4.2252,-4.128,-4.1739,-4.1674,-4.1044,-4.1543,-4.1804,-4.1869,-4.3229,-4.3426,-4.2847,-4.4064,-4.4384,-4.4064,-4.4457,-4.4384,-4.4064,-4.4064,-4.4064,-4.4121,-4.4457,-4.4253,-4.3756,-4.3031,-4.2062,-4.1147,-4.0378,-3.9793,-3.9424,-3.9424,-3.9424,-3.9424,-3.9424,-3.9424,-3.9424,-3.9424,-3.9424,-3.9424,-3.9424,-3.9424,-3.9424,-3.9424,-3.9424,-3.9424,-3.9424,-3.9424,-3.9424,-3.9424,-3.9424,-3.9424,-3.9424,-3.9424,-3.9424,-3.9424,-3.9424,-3.9424,-3.9424,-3.9424,-3.9424,-3.9424,-3.9424,-3.9424,-3.9424,-3.9424,-3.923,-3.8841,-3.8167,-3.7524,-3.6881,-3.6237,-3.5774,-3.5504,-3.5504,-3.5504,-3.5504,-3.5504,-3.5504,-3.9424,-3.9424,-3.9424,0.0,0.0,0.0,-3.9424,-3.9424,-3.9424,0.0,0.0,0.0,0.0,0.0,0.0,0.0,0.0,0.0,0.0,0.0,0.0,0.0,0.0,0.0,0.0,0.0,-3.9481,-3.9424,-4.1028,-4.2707,-4.4253,-4.3756,-4.3426,-4.3426,-4.2707,-4.2252,-4.2125,-4.2125,-4.2458,-4.3185,-4.3246,-4.3306,-4.3306,-4.4121,-4.3604,-4.2252,-4.3798,-4.4006,-4.3366,-4.4138,-4.4006,-4.3306,-4.3306,-4.3246,-4.3246,-4.4006,-4.431,-4.4064,-4.252,-4.1933,-4.1609,-4.006,-3.9481,-3.9424,-3.9424,-3.9424,-3.9424,-3.9424,-3.9424,-3.9424,-3.9424,-3.9424,-3.9424,-3.9424,-3.9424,-3.9424,-3.9424,-3.9424,-3.9424,-3.9424,-3.9424,-3.9424,-3.9424,-3.9424,-3.9424,-3.9424,-3.9424,-3.9424,-3.9424,-3.9424,-3.9424,-3.9424,-3.9424,-3.9424,-3.9424,-3.9424,-3.9424,-3.9424,-3.9424,-3.9424,-3.9424,-3.8751,-3.8078,-3.7419,-3.6731,-3.6088,-3.5504,-3.5504,-3.5504,-3.5504,-3.5504,-3.5504,0.0,0.0,0.0,0.0,0.0,0.0,-3.9424,-3.9424,-3.9424,0.0,0.0,0.0,0.0,0.0,0.0,0.0,0.0,0.0,0.0,0.0,0.0,0.0,0.0,0.0,0.0,0.0,-4.0185,-3.9481,-4.1028,-4.2125,-4.2504,-4.368,-4.4327,-4.4327,-4.4179,-4.3739,-4.3047,-4.3047,-4.2785,-4.2252,-4.297,-4.3306,-4.3306,-4.3502,-4.3366,-4.3047,-4.3426,-4.3443,-4.3306,-4.3486,-4.3426,-4.3306,-4.3306,-4.2847,-4.2252,-4.2442,-4.252,-4.2442,-4.2125,-4.1543,-4.0878,-4.0569,-3.999,-3.9424,-3.9424,-3.9424,-3.9424,-3.9424,-3.9424,-3.9424,-3.9424,-3.9424,-3.9424,-3.9424,-3.9424,-3.9424,-3.9424,-3.9424,-3.9424,-3.9424,-3.9424,-3.9424,-3.9424,-3.9424,-3.9424,-3.9424,-3.9424,-3.9424,-3.9424,-3.9424,-3.9424,-3.9424,-3.9424,-3.9424,-3.9424,-3.9424,-3.9424,-3.9424,-3.9424,-3.9424,-3.9424,-3.8751,-3.8078,-3.7419,-3.6282,-3.5624,-3.5504,-3.5504,-3.5504,-3.5504,-3.5504,-3.5504,0.0,0.0,0.0,-3.9424,0.0,0.0,0.0,-3.9424,0.0,0.0,0.0,0.0,0.0,0.0,0.0,0.0,0.0,0.0,0.0,0.0,0.0,0.0,0.0,0.0,0.0,-4.1095,-4.1147,-4.0706,-4.108,-4.1739,-4.2583,-4.3486,-4.4138,-4.4587,-4.4587,-4.4384,-4.3948,-4.3502,-4.329,-4.329,-4.3306,-4.3306,-4.3306,-4.3756,-4.3229,-4.2062,-4.2909,-4.2785,-4.2062,-4.2458,-4.2395,-4.2062,-4.2458,-4.2125,-4.1396,-4.1869,-4.1997,-4.1933,-4.1478,-4.108,-4.0622,-4.017,-3.9737,-3.9424,-3.9424,-3.9424,-3.9424,-3.9424,-3.9424,-3.9424,-3.9424,-3.9424,-3.9424,-3.9424,-3.9424,-3.9424,-3.9424,-3.9424,-3.9424,-3.9424,-3.9424,-3.9424,-3.9424,-3.9424,-3.9424,-3.9424,-3.9424,-3.9424,-3.9424,-3.9424,-3.9424,-3.9424,-3.9424,-3.9424,-3.9424,-3.9424,-3.9424,-3.9424,-3.9424,-3.9424,-3.9424,-3.9095,-3.8437,-3.7434,-3.6163,-3.5504,-3.5504,-3.5504,-3.5504,-3.5504,-3.5504,-3.5504,0.0,0.0,0.0,0.0,0.0,-3.9424,0.0,0.0,0.0,0.0,0.0,0.0,0.0,0.0,0.0,0.0,0.0,0.0,0.0,0.0,0.0,0.0,0.0,0.0,0.0,-4.1997,-4.1997,-4.1997,-4.1478,-4.1739,-4.297,-4.3366,-4.3814,-4.4327,-4.4514,-4.4587,-4.4587,-4.3873,-4.3873,-4.457,-4.3873,-4.3562,-4.3562,-4.4138,-4.3213,-4.128,-4.252,-4.2252,-4.1013,-4.1739,-4.1478,-4.0743,-4.1478,-4.1213,-4.0569,-4.1213,-4.1478,-4.1412,-4.0894,-4.0554,-4.0363,-3.9793,-3.9553,-3.9424,-3.9424,-3.9424,-3.9424,-3.9424,-3.9424,-3.9424,-3.9424,-3.9424,-3.9424,-3.9424,-3.9424,-3.9424,-3.9424,-3.9424,-3.9424,-3.9424,-3.9424,-3.9424,-3.9424,-3.9424,-3.9424,-3.9424,-3.9424,-3.9424,-3.9424,-3.9424,-3.9424,-3.9424,-3.9424,-3.9424,-3.9424,-3.9424,-3.9424,-3.9424,-3.9424,-3.9424,-3.9424,-3.917,-3.8527,-3.7434,-3.6163,-3.5504,-3.5504,-3.5504,-3.5504,-3.5504,-3.5504,-3.5504,0.0,0.0,0.0,0.0,-3.9424,0.0,0.0,0.0,0.0,0.0,0.0,0.0,0.0,0.0,0.0,0.0,0.0,0.0,0.0,0.0,0.0,0.0,0.0,0.0,0.0,0.0,-4.1997,-4.1997,-4.2645,-4.2785,-4.2189,-4.3604,-4.4138,-4.3502,-4.4196,-4.4587,-4.4587,-4.4514,-4.4514,-4.4587,-4.4514,-4.4457,-4.444,-4.3756,-4.3306,-4.297,-4.2395,-4.2062,-4.1869,-4.1933,-4.1478,-4.069,-4.0811,-4.0309,-3.9538,-3.9681,-3.9681,-3.9809,-4.05,-4.017,-3.9666,-4.0309,-4.006,-3.9424,-3.9424,-3.9424,-3.9424,-3.9424,-3.9424,-3.9424,-3.9424,-3.9424,-3.9424,-3.9424,-3.9424,-3.9424,-3.9424,-3.9424,-3.9424,-3.9424,-3.9424,-3.9424,-3.9424,-3.9424,-3.9424,-3.9424,-3.9424,-3.9424,-3.9424,-3.9424,-3.9424,-3.9424,-3.9424,-3.9424,-3.9424,-3.9424,-3.9424,-3.9424,-3.9424,-3.9424,-3.9424,-3.8272,-3.7569,-3.7404,-3.6163,-3.5504,-3.5504,-3.5504,-3.5504,-3.5504,-3.5504,-3.5504,0.0,0.0,0.0,0.0,0.0,0.0,-4.0185,0.0,-3.9424,0.0,0.0,0.0,0.0,0.0,0.0,0.0,0.0,0.0,0.0,0.0,0.0,0.0,0.0,0.0,0.0,0.0,0.0,0.0,0.0,-4.2583,-4.2724,-4.3426,-4.3931,-4.4064,-4.4384,-4.4587,-4.4587,-4.4587,-4.4587,-4.4587,-4.4587,-4.4587,-4.4587,-4.4196,-4.3756,-4.3306,-4.2909,-4.2189,-4.128,-4.128,-4.0758,-3.992,-3.992,-3.9737,-3.9424,-3.9424,-3.9424,-3.9481,-3.9793,-3.9737,-3.9481,-3.9793,-3.9666,-3.9424,-3.9424,-3.9424,-3.9424,-3.9424,-3.9424,-3.9424,-3.9424,-3.9424,-3.9424,-3.9424,-3.9424,-3.9424,-3.9424,-3.9424,-3.9424,-3.9424,-3.9424,-3.9424,-3.9424,-3.9424,-3.9424,-3.9424,-3.9424,-3.9424,-3.9424,-3.9424,-3.9424,-3.9424,-3.9424,-3.9424,-3.9424,-3.9424,-3.9424,-3.9424,-3.9424,-3.9424,-3.9424,-3.8123,-3.7404,-3.7404,-3.6163,-3.5504,-3.5504,-3.5504,-3.5504,-3.5504,-3.5504,-3.5504,-4.1869,0.0,0.0,0.0,0.0,0.0,0.0,0.0,0.0,0.0,0.0,0.0,0.0,0.0,0.0,0.0,0.0,0.0,0.0,0.0,0.0,0.0,0.0,0.0,0.0,0.0,0.0,0.0,-4.2707,-4.2909,-4.3306,-4.3502,-4.3814,-4.4253,-4.4457,-4.4587,-4.4587,-4.4587,-4.4587,-4.4587,-4.4587,-4.4587,-4.4587,-4.4587,-4.4253,-4.3621,-4.3366,-4.2583,-4.1412,-4.0878,-4.0309,-3.9737,-3.9481,-3.9424,-3.9424,-3.9424,-3.9424,-3.9424,-3.9424,-3.9424,-3.9424,-3.9424,-3.9424,-3.9424,-3.9424,-3.9424,-3.9424,-3.9424,-3.9424,-3.9424,-3.9424,-3.9424,-3.9424,-3.9424,-3.9424,-3.9424,-3.9424,-3.9424,-3.9424,-3.9424,-3.9424,-3.9424,-3.9424,-3.9424,-3.9424,-3.9424,-3.9424,-3.9424,-3.9424,-3.9424,-3.9424,-3.9424,-3.9424,-3.9424,-3.9424,-3.9424,-3.9424,-3.9424,-3.9424,-3.9424,-3.9424,-3.8123,-3.7404,-3.7404,-3.6163,-3.5504,-3.5504,-3.5504,-3.5504,-3.5504,-3.5504,-3.5504,0.0,0.0,0.0,-4.1804,0.0,0.0,0.0,0.0,-4.1933,0.0,0.0,0.0,0.0,0.0,-4.171,-4.1023,-4.1486,0.0,0.0,0.0,0.0,0.0,0.0,0.0,0.0,0.0,0.0,-4.4514,-4.4514,-4.4138,-4.3366,-4.4121,-4.4196,-4.3366,-4.4138,-4.4587,-4.4587,-4.4587,-4.4587,-4.4587,-4.4587,-4.4587,-4.4587,-4.4587,-4.457,-4.4514,-4.368,-4.3246,-4.3108,-4.1412,-4.0675,-4.0554,-3.9737,-3.9424,-3.9424,-3.9424,-3.9424,-3.9424,-3.9424,-3.9424,-3.9424,-3.9424,-3.9424,-3.9424,-3.9424,-3.9424,-3.9424,-3.9424,-3.9424,-3.9424,-3.9424,-3.9424,-3.9424,-3.9424,-3.9424,-3.9424,-3.9424,-3.9424,-3.9424,-3.9424,-3.9424,-3.9424,-3.9424,-3.9424,-3.9424,-3.9424,-3.9424,-3.9424,-3.9424,-3.9424,-3.9424,-3.9424,-3.9424,-3.9424,-3.9424,-3.9424,-3.9424,-3.9424,-3.9424,-3.9424,-3.9424,-3.8123,-3.7404,-3.7404,-3.6163,-3.5504,-3.5504,-3.5504,-3.5504,-3.5504,-3.5504,-3.5504,0.0,0.0,-4.2645,-4.3469,0.0,0.0,0.0,0.0,0.0,0.0,0.0,0.0,0.0,0.0,-4.1917,-4.1677,-4.1837,-4.1853,0.0,0.0,0.0,0.0,0.0,0.0,0.0,0.0,0.0,-4.3756,-4.4253,-4.4457,0.0,-4.444,-4.444,-4.4196,-4.4457,-4.4587,-4.4587,-4.4587,-4.4587,-4.4587,-4.4587,-4.4587,-4.457,-4.4006,-4.3756,-4.368,-4.2847,-4.2458,-4.2379,-4.1788,-4.1213,-4.069,-4.0363,-3.9935,-3.9424,-3.9424,-3.9424,-3.9424,-3.9424,-3.9424,-3.9424,-3.9424,-3.9424,-3.9424,-3.9424,-3.9424,-3.9424,-3.9424,-3.9424,-3.9424,-3.9424,-3.9424,-3.9424,-3.9424,-3.9424,-3.9424,-3.9424,-3.9424,-3.9424,-3.9424,-3.9424,-3.9424,-3.9424,-3.9424,-3.9424,-3.9424,-3.9424,-3.9424,-3.9424,-3.9424,-3.9424,-3.9424,-3.9424,-3.9424,-3.9424,-3.9424,-3.9424,-3.9424,-3.9424,-3.9424,-3.9424,-3.8123,-3.7404,-3.7404,-3.6163,-3.5504,-3.5504,-3.5504,-3.5504,-3.5504,-3.5504,-3.5504,-4.297,-4.3047,0.0,-4.431,-4.4196,0.0,-4.3756,0.0,0.0,0.0,0.0,0.0,0.0,0.0,-4.2892,-4.2892,-4.2892,-4.2831,0.0,-4.2189,0.0,0.0,0.0,0.0,0.0,0.0,-4.3756,-4.3756,-4.4253,-4.4587,0.0,0.0,-4.4587,-4.4587,-4.4587,-4.4587,-4.4587,-4.4587,-4.444,-4.4138,-4.4457,-4.4457,-4.4138,-4.3873,-4.3621,-4.3246,-4.2724,-4.2252,-4.1997,-4.1674,-4.1213,-4.069,-4.0378,-3.9864,-3.9424,-3.9424,-3.9424,-3.9424,-3.9424,-3.9424,-3.9424,-3.9424,-3.9424,-3.9424,-3.9424,-3.9424,-3.9364,-3.9125,-3.923,-3.9364,-3.9125,-3.923,-3.9424,-3.9424,-3.9424,-3.9424,-3.9424,-3.9424,-3.9424,-3.9424,-3.9424,-3.9424,-3.9424,-3.9424,-3.9424,-3.9424,-3.9424,-3.9424,-3.9424,-3.9424,-3.9424,-3.9424,-3.9424,-3.9424,-3.9424,-3.9424,-3.9424,-3.9424,-3.9424,-3.9424,-3.9424,-3.8123,-3.7404,-3.7404,-3.6163,-3.5504,-3.5504,-3.5504,-3.5504,-3.5504,-3.5504,-3.5504]}]]